GFSNGP_sfc_dewp_000.txt.gz
Dewpoint
29 28 27 28 27 26 26 29 30 29 26 27 29 31 33 36 36 36 37 38 38 37 37 36 36 37 38 37 35 36 35 33 33 33 31 31 30 30 29 28 24 23 23 23
30 30 28 29 28 27 29 30 30 29 29 30 32 34 35 36 36 36 38 37 37 35 34 32 33 36 37 33 34 36 33 31 29 30 28 27 27 26 24 22 21 22 22 22
33 31 31 32 30 27 27 30 29 28 29 32 33 35 36 37 37 38 38 37 36 34 31 32 35 39 33 32 34 34 30 28 29 29 25 24 21 19 20 22 23 23 23 23
35 34 29 28 29 29 29 29 28 28 31 34 36 36 36 38 39 39 38 35 32 30 29 32 36 35 33 31 32 31 29 27 28 26 23 20 19 19 21 22 22 22 23 23
32 28 28 27 28 29 28 28 31 33 35 37 37 36 36 39 39 39 37 34 31 30 30 32 35 32 32 31 30 28 27 28 28 25 22 19 19 20 21 21 22 22 22 22
34 30 28 29 29 32 33 29 36 39 40 40 37 36 37 39 39 36 32 30 28 26 29 34 35 32 33 31 30 28 28 30 26 25 22 19 21 22 23 22 21 22 24 24
33 32 31 31 32 34 32 35 40 40 39 40 37 39 39 39 34 28 27 27 26 24 25 30 32 32 33 29 26 25 27 27 26 24 20 21 22 22 23 22 24 28 30 27
34 31 29 32 32 36 38 41 40 40 40 38 39 38 34 29 26 24 25 25 23 23 24 27 30 32 30 24 22 25 27 27 26 23 20 19 22 23 22 23 25 27 29 28
32 34 35 36 37 39 40 41 41 40 38 38 36 29 25 24 24 24 25 23 22 24 26 27 28 31 27 23 26 28 26 25 24 23 22 22 22 23 22 21 24 24 20 21
36 36 36 39 39 41 41 40 40 39 35 32 29 26 25 23 23 25 21 21 24 24 24 27 29 32 28 28 27 25 24 24 23 23 23 23 23 21 19 23 23 19 19 18
36 38 39 37 41 42 41 41 39 35 31 27 24 23 22 22 21 20 21 23 24 24 25 24 26 32 29 27 25 21 22 22 24 25 25 24 22 20 21 23 22 20 19 19
37 39 39 39 40 41 41 39 33 28 25 23 23 23 22 20 21 21 23 25 24 25 26 25 25 26 27 25 25 25 23 23 26 28 27 25 20 20 22 21 19 18 18 20
39 41 40 40 39 38 35 30 27 25 25 25 25 21 21 23 23 25 25 25 26 28 27 27 28 28 25 29 30 30 28 28 28 27 26 24 23 23 22 21 19 18 17 17
39 39 38 36 36 33 30 27 29 28 27 25 23 23 24 23 24 24 25 28 30 29 29 27 26 27 28 27 28 31 29 28 28 27 26 26 25 24 23 22 21 21 18 14
37 38 37 34 32 29 28 28 28 24 23 24 25 26 27 26 25 27 30 31 31 30 27 25 27 27 26 27 26 25 26 26 29 30 28 26 26 24 23 21 20 19 17 14
34 33 31 29 27 27 26 22 21 23 24 23 24 26 27 27 28 29 31 31 32 29 28 31 31 29 27 26 24 23 23 25 26 27 26 25 24 23 21 21 19 19 16 16
33 31 30 27 21 21 22 23 24 24 27 27 29 32 30 30 31 31 31 32 33 30 31 32 31 27 26 25 25 23 24 23 25 25 24 24 24 22 21 21 20 19 18 18
28 25 23 22 22 24 27 27 29 30 30 30 32 31 30 30 31 33 33 33 32 31 32 32 31 27 27 24 25 24 26 27 27 26 25 25 24 23 22 21 19 19 19 18
22 21 23 24 27 28 28 28 30 32 32 32 32 31 31 30 32 34 33 32 31 30 31 33 28 28 25 27 26 25 28 28 26 24 25 24 25 23 22 23 22 21 19 18
22 24 27 28 30 30 31 32 33 32 31 32 32 31 31 32 32 33 33 32 33 32 33 31 29 29 29 27 27 24 27 29 27 27 26 25 24 24 24 22 21 21 21 21
26 28 32 34 33 33 32 32 31 31 32 32 30 30 31 32 33 33 32 31 34 33 32 30 29 26 25 26 25 29 30 30 29 28 27 25 24 24 24 24 23 22 22 22
27 31 34 33 32 32 33 34 33 32 31 31 30 30 31 32 34 33 34 33 34 30 31 32 29 28 26 28 26 31 28 29 29 29 28 26 25 24 24 24 23 23 22 22
27 28 30 32 32 31 32 33 32 32 31 31 31 31 31 32 32 32 31 35 33 33 33 34 30 28 28 32 32 31 31 29 29 29 28 26 25 25 24 23 23 23 23 22
28 30 30 33 34 31 32 30 32 34 33 33 33 32 32 33 34 36 37 34 30 31 33 34 31 28 28 32 31 31 31 30 30 30 29 26 26 25 25 24 24 23 23 21
33 31 31 32 31 30 28 28 30 32 31 32 33 33 35 34 33 34 34 33 31 32 34 31 28 28 31 32 31 30 28 28 28 29 29 28 28 26 25 25 24 24 23 23
30 30 30 30 31 30 29 29 28 30 32 32 32 33 34 34 34 32 33 32 34 32 34 33 32 32 32 32 30 29 28 27 27 26 26 26 26 26 25 25 25 25 24 24
31 30 30 31 31 31 31 31 31 31 32 32 31 33 33 34 33 33 32 33 32 32 33 33 33 32 32 31 29 29 28 27 25 26 25 25 25 25 25 25 25 26 25 25

GFSNGP_sfc_dewp_003.txt.gz
Dewpoint
28 24 22 23 23 23 21 24 28 29 25 26 28 30 32 34 34 35 35 37 38 37 36 35 34 34 34 38 38 36 35 33 32 30 29 28 27 27 26 24 21 20 21 22
30 25 23 24 23 21 22 25 25 25 26 30 31 31 33 35 37 36 37 39 38 35 33 32 31 31 33 36 34 34 35 32 30 29 28 27 25 24 22 21 20 21 21 21
32 32 31 34 31 23 24 25 28 28 28 29 31 35 36 37 37 38 39 38 36 34 31 29 28 29 31 31 32 33 32 30 27 28 29 25 23 19 19 20 22 22 22 21
36 34 30 29 27 27 27 27 26 26 28 32 35 36 36 39 38 37 36 36 33 30 27 24 24 26 30 30 29 29 28 27 27 29 28 25 22 19 20 21 22 21 22 23
34 29 28 27 28 28 29 29 29 32 36 37 37 37 35 38 37 37 36 33 28 26 23 22 21 24 27 27 26 26 27 27 28 29 30 25 21 20 21 21 22 21 22 23
36 31 29 32 29 31 32 29 37 38 38 39 37 36 33 36 36 34 29 24 23 24 22 20 20 21 23 24 25 26 25 23 26 27 28 26 22 21 21 21 21 23 25 25
33 33 31 30 32 34 30 35 40 40 40 39 36 36 37 36 30 25 22 21 22 20 18 19 21 23 23 22 24 24 23 24 26 27 26 23 20 21 20 21 25 29 31 28
35 33 29 32 32 36 38 39 41 40 41 38 38 35 32 27 23 22 20 19 18 17 18 20 19 21 21 19 23 24 26 26 24 24 21 16 21 20 21 21 25 28 31 30
33 33 33 37 41 41 40 40 41 41 40 40 35 29 27 24 22 21 18 15 15 15 19 19 20 20 19 27 30 29 30 28 24 21 18 18 20 20 19 20 24 25 21 23
37 34 33 37 39 40 42 41 41 41 39 33 30 27 24 23 22 19 15 14 14 17 18 20 21 21 23 30 32 28 26 23 21 21 23 22 19 18 18 23 23 20 19 18
37 35 35 37 41 41 40 41 41 38 34 30 26 24 24 22 19 17 17 17 19 20 20 21 23 24 23 27 26 24 25 21 23 24 24 23 20 20 22 24 22 19 18 18
38 38 40 40 42 41 39 39 38 32 29 27 26 24 22 19 19 19 19 20 19 19 21 23 25 25 27 28 26 27 25 23 26 27 26 24 21 21 23 22 19 18 17 19
39 41 42 41 39 39 36 33 30 28 28 27 24 21 21 20 21 23 21 20 21 24 26 27 28 26 26 29 30 29 28 27 26 26 24 24 24 24 23 24 22 20 18 17
40 40 39 40 38 35 33 30 30 28 25 22 20 21 20 19 21 20 21 23 25 27 29 29 28 27 29 27 27 29 29 29 28 27 27 26 26 25 24 23 23 23 24 16
38 41 39 36 33 30 28 26 23 20 19 20 20 20 21 22 23 25 26 27 29 31 31 28 27 28 27 28 27 25 24 25 29 30 29 27 27 27 26 24 22 21 21 19
36 33 32 29 27 24 21 19 19 20 20 20 23 26 26 26 27 28 30 30 32 30 31 31 31 31 30 28 27 25 22 27 27 27 27 27 26 25 23 23 21 21 21 19
34 32 30 27 21 19 19 20 21 21 26 25 27 31 30 31 32 30 31 33 35 33 34 31 31 31 29 28 26 24 24 25 27 26 27 25 25 25 23 23 22 21 22 22
30 27 21 19 20 21 24 27 28 27 28 29 34 33 32 32 32 32 32 33 34 33 34 31 31 30 28 27 26 25 25 28 28 28 26 27 25 23 25 23 23 21 22 21
21 19 19 19 23 28 29 28 28 31 34 35 34 33 33 33 33 33 33 33 33 32 34 35 31 29 27 26 26 26 28 28 28 27 27 25 27 26 26 26 25 24 23 21
18 19 22 23 28 31 32 32 35 32 32 33 34 33 33 32 33 33 34 33 33 33 36 33 30 30 29 26 27 25 28 29 27 29 30 26 27 27 26 25 25 25 25 24
24 25 29 36 35 36 35 35 34 32 33 35 33 32 31 32 31 32 33 32 32 35 35 32 31 30 27 26 26 32 31 31 30 29 29 28 27 26 26 27 27 26 26 25
25 28 36 36 35 33 35 36 34 35 34 34 33 32 31 31 32 33 34 34 35 33 35 33 32 30 27 27 26 33 29 29 30 30 30 30 29 26 26 26 26 26 26 26
24 25 29 35 34 32 34 35 34 34 33 33 33 32 33 32 33 31 31 35 36 35 35 35 32 29 28 33 33 32 32 29 29 29 30 30 28 27 26 25 25 25 25 25
27 28 30 33 36 35 33 31 32 34 34 34 34 34 34 32 34 34 36 35 33 32 33 35 32 29 29 32 32 32 32 32 32 32 31 29 31 28 27 26 25 25 26 25
32 31 32 35 33 31 28 28 30 32 32 31 34 34 35 34 33 33 34 34 32 33 34 32 31 29 31 31 32 32 32 31 30 30 29 30 30 29 27 27 26 26 26 26
28 29 28 29 31 30 30 31 32 33 32 33 34 36 36 36 36 34 34 33 34 33 33 33 32 32 32 32 32 32 32 29 28 27 27 27 27 27 27 27 27 26 27 27
29 30 31 32 31 30 32 32 34 33 32 33 33 35 34 35 34 34 33 33 33 33 33 33 33 32 32 32 32 32 31 30 28 27 26 26 25 25 25 25 25 26 27 27

GFSNGP_sfc_dewp_006.txt.gz
Dewpoint
27 23 22 21 21 21 20 23 27 27 23 26 30 31 36 37 37 37 38 38 38 38 37 35 34 34 32 34 37 39 38 36 37 35 33 33 33 31 31 30 26 26 25 26
33 24 24 24 23 22 21 21 23 25 25 29 34 35 36 37 37 38 37 36 35 35 33 31 31 29 28 29 32 38 33 35 35 34 32 33 32 32 29 28 26 26 26 26
34 32 32 34 33 24 23 24 26 30 29 33 34 35 35 37 38 36 35 34 34 32 30 28 25 24 24 26 28 32 32 32 35 37 35 35 32 28 25 26 27 27 27 26
35 35 30 28 27 27 27 25 26 25 30 35 35 36 35 38 37 34 34 33 31 27 26 25 25 23 24 21 23 24 26 32 35 36 34 32 31 30 27 26 27 26 27 27
35 29 28 27 29 29 30 29 29 33 36 36 36 35 35 35 35 34 33 29 24 23 24 23 21 22 22 22 22 22 22 31 32 36 31 31 30 30 27 26 26 27 27 27
34 30 26 33 30 32 32 30 38 38 38 38 36 35 34 36 34 31 25 22 21 21 20 19 21 20 20 20 21 22 32 31 30 28 30 30 31 29 26 25 25 29 28 28
34 32 32 30 31 34 29 34 40 40 39 38 36 39 38 34 29 24 22 20 21 19 18 19 19 20 20 20 20 28 30 31 32 32 29 28 28 25 25 25 27 30 29 28
34 32 28 33 31 34 40 42 40 39 39 40 39 39 34 28 24 22 20 18 16 17 18 20 19 20 20 20 24 29 32 31 31 30 27 22 25 25 25 24 27 27 25 25
35 35 38 37 38 40 43 42 41 41 39 38 38 35 29 25 24 22 18 16 16 16 19 20 20 20 20 24 25 29 30 28 28 26 24 24 23 23 23 24 25 25 22 21
39 34 33 36 38 42 42 41 40 39 39 39 33 30 26 25 24 20 17 17 17 19 19 20 21 22 25 27 27 28 27 27 27 25 25 25 23 22 23 26 25 23 21 19
37 35 36 37 41 41 41 41 40 39 37 31 28 26 25 23 21 20 19 20 20 20 20 22 23 25 27 26 28 27 27 26 27 29 28 26 23 24 27 26 23 22 21 20
38 38 40 41 41 40 40 39 38 35 30 28 27 24 22 21 21 20 20 20 19 21 23 23 25 27 28 27 28 30 29 28 29 29 29 26 25 23 25 23 21 19 17 19
37 41 42 42 40 39 37 33 31 29 28 25 22 21 21 20 20 23 20 22 23 24 26 29 29 29 29 29 30 29 29 28 28 27 28 27 27 26 24 26 24 23 21 20
39 41 39 39 38 38 33 30 30 27 22 21 21 20 20 21 23 23 23 26 26 26 29 29 30 30 31 32 29 30 29 27 29 30 29 29 27 26 26 25 23 24 25 23
38 39 39 37 38 31 29 25 21 18 19 21 21 22 24 23 24 25 28 28 29 30 30 29 30 30 30 31 29 28 28 27 28 30 30 29 28 28 27 26 24 23 23 22
38 36 34 31 28 25 22 19 19 20 21 22 24 29 27 27 26 28 30 30 30 30 32 32 31 31 31 32 28 28 27 25 24 28 29 29 28 27 25 25 24 23 22 21
37 34 31 29 24 20 20 21 22 25 27 26 30 31 30 30 31 30 30 30 30 31 33 33 33 31 31 32 29 28 28 28 26 28 27 29 27 26 27 26 25 24 22 19
34 32 26 22 20 22 28 32 31 30 30 32 31 29 28 28 30 30 30 31 31 31 32 33 33 31 31 30 29 28 27 27 29 29 29 28 28 26 25 26 25 25 23 22
25 21 21 20 23 31 32 32 31 32 31 31 31 31 31 30 31 31 31 30 29 30 31 33 33 31 30 28 27 27 28 29 28 28 29 29 27 27 27 27 26 25 24 24
21 21 24 24 28 32 32 32 32 32 32 31 29 30 30 30 29 30 30 29 30 31 33 34 33 30 29 27 26 26 29 30 28 28 29 29 27 27 28 26 26 26 26 25
29 30 29 34 34 33 33 33 31 31 32 30 31 31 30 31 30 30 30 29 29 33 34 34 33 31 30 29 27 29 29 30 29 29 28 29 29 27 27 27 27 27 26 26
30 29 30 31 32 32 33 34 34 33 32 32 30 31 31 29 30 30 30 30 32 34 34 34 34 31 31 24 28 31 29 28 28 29 29 29 29 29 27 27 27 27 27 26
30 29 29 31 31 32 33 34 33 32 32 32 32 32 32 31 31 30 29 32 33 34 32 34 34 32 30 30 30 30 30 28 28 28 29 29 29 28 27 27 27 26 26 25
30 30 30 31 33 33 32 32 33 33 33 33 33 33 33 32 33 32 32 32 32 33 33 33 33 31 30 30 30 30 29 29 29 29 29 28 29 28 27 27 27 26 26 26
31 31 31 32 32 32 33 32 32 32 32 33 33 32 33 34 33 32 33 33 33 32 33 33 32 32 31 30 29 29 30 29 29 29 29 29 28 28 29 29 28 27 27 27
30 30 31 31 31 32 32 32 32 33 34 33 32 33 34 34 34 34 34 33 33 33 33 33 33 32 32 30 30 30 30 30 29 28 28 27 27 27 27 27 28 27 27 27
31 31 32 32 32 32 32 32 34 35 34 33 32 32 33 33 33 34 33 33 33 33 33 33 33 32 32 32 31 31 31 30 28 28 28 27 27 27 27 26 26 26 26 26

GFSNGP_sfc_dewp_009.txt.gz
Dewpoint
30 27 25 24 23 23 22 25 25 26 28 33 36 36 37 37 38 38 37 36 35 34 34 32 32 30 27 28 32 32 38 37 37 38 37 37 37 34 32 29 26 24 24 26
29 30 29 27 27 26 24 24 24 26 28 35 36 36 36 37 37 35 34 34 34 34 32 28 25 24 25 26 27 28 25 26 36 38 38 39 38 36 31 27 24 24 25 26
28 32 32 25 29 28 28 28 28 26 30 36 35 35 37 37 35 34 34 33 33 32 28 25 24 25 24 23 25 25 25 30 37 37 37 37 37 34 30 27 24 25 26 26
24 24 15 31 30 29 30 29 29 34 36 36 35 37 36 35 34 33 33 32 32 30 24 23 22 22 22 22 23 25 30 32 34 35 35 37 37 31 28 27 24 25 25 27
26 25 25 28 31 31 30 29 37 37 37 37 36 35 34 35 34 33 31 28 24 22 21 20 20 20 20 21 21 22 30 31 31 32 34 34 36 32 30 26 25 27 27 27
27 18 14 28 33 34 34 28 40 39 38 37 36 29 34 38 35 28 24 23 21 19 18 19 19 19 20 20 21 28 31 31 33 33 33 34 34 31 25 23 27 28 27 27
29 17 27 34 34 35 27 27 40 40 38 38 36 36 38 39 29 24 23 21 21 18 18 19 19 20 20 21 22 29 32 32 32 31 31 31 28 24 23 26 27 25 24 25
28 21 21 35 33 28 34 41 41 38 39 39 39 39 40 31 25 24 22 18 17 19 20 20 20 21 21 23 25 28 30 31 29 29 26 24 23 23 24 24 24 23 15 18
30 29 34 36 35 39 41 41 40 40 40 39 39 38 33 27 26 24 18 18 18 19 21 21 22 22 24 27 28 29 29 28 27 27 26 25 23 22 23 23 21 21 21 16
33 36 35 37 41 42 42 41 40 39 39 40 39 32 28 27 23 21 19 19 20 20 21 23 24 25 28 28 27 28 27 27 27 27 28 26 24 23 24 21 19 22 20 17
33 36 37 41 42 42 40 41 41 40 40 37 30 28 25 23 22 21 19 20 21 22 24 24 27 28 28 28 27 28 28 28 27 27 27 26 24 22 25 22 21 19 18 17
31 38 38 41 41 42 41 40 41 39 30 29 26 23 22 21 21 21 22 24 23 25 26 26 29 29 30 30 29 28 27 27 26 25 25 26 25 24 26 24 23 21 19 15
37 42 43 42 40 39 39 35 32 30 29 23 23 22 21 22 24 26 25 25 26 27 28 29 29 30 31 31 29 28 27 27 26 26 25 25 23 23 18 23 27 27 23 22
43 41 39 39 39 39 34 32 32 27 23 24 23 23 25 25 25 25 25 28 28 29 29 28 29 28 32 31 30 28 27 26 24 23 22 22 22 25 26 23 20 18 24 24
40 40 39 41 38 33 31 25 21 22 24 24 25 27 26 27 26 27 28 28 30 29 28 29 30 31 30 31 31 30 27 24 24 21 19 22 26 26 25 24 24 21 19 21
39 39 39 36 29 25 22 22 23 25 26 25 27 27 29 29 28 28 29 30 28 28 29 27 28 32 32 31 31 29 27 23 22 21 20 26 27 25 25 25 24 22 19 14
38 36 33 29 24 23 24 26 27 27 27 27 27 28 29 29 28 28 28 27 25 27 29 28 31 32 33 31 31 29 25 25 22 23 21 26 25 24 25 24 24 22 18 14
31 30 28 25 25 27 28 28 27 27 26 28 25 21 20 20 26 27 26 28 28 28 28 29 31 32 32 31 30 28 26 23 22 20 24 26 26 26 24 22 23 22 18 16
26 25 26 28 29 28 27 27 28 29 25 24 22 24 23 23 27 27 29 28 27 27 27 30 32 33 32 28 27 22 18 17 24 26 23 20 21 23 25 25 24 24 22 17
26 28 27 26 27 25 26 28 26 29 29 26 20 19 25 21 27 29 28 27 28 29 29 31 33 32 30 29 24 22 16 15 22 23 14 17 22 25 24 25 24 23 19 21
25 25 25 27 28 27 28 28 24 28 29 23 22 26 25 25 23 29 28 28 27 25 30 33 32 32 32 28 23 20 17 14 16 17 17 18 18 23 26 25 25 20 16 20
27 25 25 26 27 28 29 29 30 26 28 31 24 22 20 25 25 28 30 29 29 32 30 32 30 32 32 29 29 26 21 21 22 22 14 18 19 22 23 24 25 25 23 17
28 27 27 26 24 28 28 29 26 29 29 27 26 29 30 28 29 29 28 27 29 31 31 32 32 33 33 32 29 28 27 21 19 19 21 22 26 27 26 25 25 25 25 25
29 28 28 28 26 27 28 30 30 30 28 27 30 32 29 27 28 29 30 31 31 31 32 33 33 32 32 31 29 28 25 26 26 23 21 18 23 25 23 25 26 25 25 25
27 28 28 26 28 29 30 31 30 29 28 29 29 28 26 26 27 31 32 32 31 31 32 33 32 32 32 31 29 28 27 27 27 27 25 25 26 27 25 26 27 27 26 26
28 29 29 29 30 30 30 29 29 29 26 23 23 21 21 22 30 32 32 32 33 33 32 32 33 33 32 32 30 28 28 28 29 29 29 27 27 26 26 26 26 27 27 26
29 27 29 29 29 30 29 27 24 28 29 28 27 24 25 31 31 29 31 32 32 32 33 33 33 32 32 32 32 30 30 30 30 30 29 28 26 25 26 26 26 26 25 25

GFSNGP_sfc_dewp_012.txt.gz
Dewpoint
28 28 26 25 24 25 24 28 25 25 27 34 36 36 37 38 37 35 34 34 34 33 33 31 26 25 25 26 26 28 26 28 36 37 37 36 37 36 36 37 37 28 26 26
28 31 32 25 27 27 26 25 25 26 32 36 36 36 37 36 34 34 33 33 33 32 31 26 24 23 23 23 25 27 26 34 36 36 37 37 37 38 37 36 27 28 26 26
24 30 29 22 27 29 27 28 27 25 31 36 35 37 36 34 33 33 33 32 32 31 26 23 22 22 20 21 24 25 29 33 34 37 35 36 37 37 36 33 32 25 25 26
20 20 9 27 31 29 29 32 35 35 35 35 36 37 35 34 32 32 32 31 29 23 21 21 20 19 21 21 22 24 30 31 32 34 33 34 35 34 35 35 26 25 27 26
16 22 20 25 30 29 27 29 37 36 36 36 37 34 34 34 33 32 29 25 23 21 20 19 19 19 20 21 21 27 30 30 31 32 32 33 34 33 33 28 26 27 26 26
27 12 8 21 32 34 32 27 39 38 37 36 34 29 32 38 37 27 24 23 20 18 18 18 18 19 20 21 22 28 31 31 32 32 33 32 32 32 27 25 27 26 25 24
18 15 23 28 34 34 25 25 40 39 38 37 34 34 36 39 32 24 23 19 20 19 19 19 20 21 22 23 24 28 30 31 31 29 28 28 25 24 26 27 25 23 21 23
23 16 19 33 34 28 31 39 40 39 39 38 38 39 39 37 26 23 17 18 19 20 20 22 22 23 23 25 26 28 29 29 27 27 27 24 23 25 25 23 23 21 10 16
29 29 31 34 34 36 41 40 39 38 39 39 38 38 37 27 23 21 19 18 20 20 21 23 24 24 25 27 27 28 29 27 26 27 27 26 22 23 23 22 20 20 21 14
32 33 35 36 39 41 41 40 40 40 39 39 38 36 27 23 21 20 18 18 20 22 23 25 26 28 28 29 29 28 27 27 27 27 27 26 23 24 23 19 18 22 19 17
32 34 39 40 41 41 40 40 40 39 40 39 31 23 23 21 21 20 20 22 23 25 26 26 27 29 30 30 30 27 28 27 27 26 26 26 22 23 24 21 20 19 18 16
31 34 34 38 41 41 40 41 42 39 29 25 23 22 21 21 23 22 23 24 25 27 27 28 29 28 30 31 31 30 28 27 27 25 23 24 24 24 26 25 23 24 22 14
36 40 41 42 41 41 40 39 35 31 24 23 22 22 22 23 24 26 25 25 27 27 29 29 28 28 30 30 31 31 30 28 27 26 25 23 21 22 16 22 26 26 26 23
41 42 39 39 38 39 32 32 29 24 24 24 23 25 25 25 26 26 25 27 28 28 30 29 28 29 30 31 30 30 29 29 26 27 23 23 16 22 25 17 13 15 21 25
42 40 40 40 38 32 30 23 24 23 25 25 26 26 26 26 26 27 28 28 29 29 29 29 29 29 30 32 31 30 32 29 23 20 20 21 17 20 23 22 20 18 15 18
40 39 40 36 30 23 24 26 25 25 25 25 25 25 27 29 28 29 29 29 28 28 28 28 28 28 31 33 32 30 30 27 20 19 22 24 20 19 23 23 22 21 17 12
38 35 30 28 27 28 27 27 26 25 26 26 26 27 28 27 26 28 28 27 27 28 28 28 27 29 31 33 33 31 29 26 25 25 25 25 20 21 21 23 22 18 16 10
34 33 32 32 31 30 29 28 27 26 26 26 25 19 17 16 24 25 25 25 28 28 27 27 29 30 32 34 32 30 27 25 25 26 23 17 21 25 21 19 17 21 20 17
33 34 34 31 30 27 24 24 26 28 24 23 20 21 19 21 25 26 25 23 27 25 26 25 28 30 33 32 31 27 22 16 16 19 20 16 13 17 22 20 20 21 21 15
33 31 29 26 25 23 24 25 25 28 29 25 17 16 22 23 22 23 23 24 27 27 27 28 30 30 31 30 30 25 18 14 16 17 10 11 8 15 25 21 23 21 13 10
27 25 24 26 27 26 25 25 24 26 28 21 21 27 25 24 23 21 22 26 27 24 27 31 29 31 31 32 31 23 17 15 15 16 16 14 11 13 18 26 23 20 14 7
26 25 25 25 26 26 27 27 28 24 23 25 30 26 24 27 24 20 22 26 29 25 29 30 30 31 32 32 31 30 28 27 22 20 19 16 15 15 18 22 19 24 22 18
27 27 26 24 22 26 27 27 24 23 25 26 26 25 24 29 26 26 27 27 27 30 31 30 31 32 32 32 32 30 29 27 25 25 22 21 19 17 21 25 25 24 23 24
29 29 27 28 25 26 26 28 28 29 26 26 26 24 29 29 24 25 27 26 26 31 31 32 32 31 32 32 30 31 29 28 27 27 25 24 23 22 21 22 24 25 23 22
27 27 27 25 27 28 29 29 29 29 28 28 27 27 29 29 28 27 22 28 31 31 30 32 32 31 32 32 31 30 29 28 28 28 27 26 27 26 26 26 25 26 26 25
28 28 29 29 29 29 29 28 27 26 24 21 22 28 30 30 27 28 30 30 30 30 30 30 31 32 31 31 32 32 31 29 29 29 28 29 28 28 28 27 26 26 26 26
29 25 28 28 29 29 28 26 27 30 27 25 27 28 27 28 30 30 28 28 26 28 29 25 26 28 29 30 31 30 30 31 31 30 30 30 29 29 28 27 25 25 26 26

GFSNGP_sfc_dewp_015.txt.gz
Dewpoint
28 29 26 23 22 28 27 27 23 24 26 28 35 36 37 37 36 34 34 33 33 32 32 30 25 24 23 23 24 25 25 30 34 36 36 36 36 36 36 36 36 38 29 29
29 31 31 24 24 24 25 25 28 26 27 36 36 37 37 36 34 33 32 31 31 31 31 26 23 21 21 21 23 25 25 31 34 35 36 36 36 36 36 36 35 30 31 26
17 29 26 15 25 28 26 27 26 25 29 35 36 37 36 35 34 33 32 30 30 30 27 23 22 21 19 20 23 24 25 32 33 34 35 33 35 35 35 33 36 29 25 26
19 20 7 20 29 29 27 30 34 34 35 35 36 37 36 34 33 33 32 31 30 25 21 22 20 19 21 20 22 23 27 30 32 32 32 32 33 34 33 32 30 26 26 25
17 19 17 19 29 29 28 26 35 34 35 35 36 34 34 34 33 33 32 28 25 21 20 19 18 19 20 21 21 23 29 30 30 32 32 32 32 31 31 30 26 26 26 25
24 10 5 17 31 33 30 26 37 36 36 36 34 30 33 35 35 34 26 22 19 18 18 18 19 20 21 21 23 25 29 30 31 32 30 29 28 29 26 26 26 25 22 23
14 13 21 25 33 33 23 21 38 38 37 36 34 34 34 38 38 26 21 18 20 19 19 20 21 23 22 23 25 26 29 29 30 28 27 26 24 23 26 26 24 23 22 22
24 17 17 31 32 29 31 35 39 39 38 38 36 38 39 39 25 20 18 19 19 20 21 22 24 24 24 25 26 27 28 29 27 26 26 24 23 25 25 23 22 21 9 15
27 27 30 33 33 35 38 39 39 39 39 39 39 39 39 27 22 20 18 18 20 20 22 24 25 25 26 27 28 29 29 28 26 27 26 25 22 23 23 22 19 19 21 14
30 30 32 33 35 38 40 40 40 40 40 39 38 38 27 23 21 19 18 20 21 23 24 25 27 28 29 30 30 30 28 28 28 27 27 26 23 23 22 20 18 21 19 17
32 33 37 39 39 40 41 41 40 40 39 39 38 27 23 21 20 20 21 22 23 25 26 26 28 29 28 30 30 29 29 29 28 29 26 25 22 23 24 23 22 19 18 16
29 33 36 34 40 41 40 40 39 38 33 28 25 22 21 22 22 23 23 24 24 26 27 27 29 27 28 30 31 30 31 30 30 29 26 25 23 24 26 26 25 25 25 15
32 35 36 38 41 41 40 40 40 29 24 23 22 22 23 23 24 26 24 25 26 27 28 29 28 28 29 29 29 30 29 30 29 29 27 24 23 23 18 22 25 26 26 25
40 41 38 40 40 41 37 32 29 24 24 25 25 25 25 24 26 25 26 27 28 28 29 29 28 27 29 30 31 30 30 29 30 28 28 27 25 20 18 18 13 14 21 25
40 41 40 40 38 32 25 23 24 25 27 26 26 25 26 25 25 27 28 28 29 29 28 27 26 26 28 30 31 32 31 30 29 27 23 22 21 16 19 21 20 15 13 17
41 40 40 38 32 24 26 30 30 30 26 25 26 25 27 28 28 28 29 29 27 26 27 27 26 27 28 30 32 33 32 30 27 25 23 24 24 21 21 20 21 18 13 11
37 36 30 27 29 33 33 34 32 26 26 26 25 27 27 26 26 28 28 26 21 21 25 25 25 28 29 31 33 33 32 30 26 25 23 22 19 19 22 20 23 21 14 8
34 33 33 34 34 33 33 30 26 26 26 26 26 21 21 21 25 25 24 23 21 23 25 26 26 29 30 31 33 31 30 29 27 26 25 17 18 22 23 20 20 15 18 13
35 36 36 36 36 34 28 26 27 28 26 25 23 24 22 22 24 25 23 19 20 22 26 24 27 29 29 29 31 30 30 28 24 20 18 15 11 17 19 20 20 17 19 16
36 37 34 29 27 24 26 25 27 28 28 25 20 17 22 22 19 20 19 22 26 27 27 27 27 29 28 30 31 31 29 25 21 17 8 11 9 14 14 16 22 23 22 14
29 27 27 29 28 27 27 26 25 26 27 21 22 25 26 24 21 18 25 25 27 24 26 25 29 30 30 30 31 32 29 25 19 18 21 21 16 14 15 16 22 24 21 17
26 26 26 26 26 26 27 27 28 24 22 19 21 29 28 26 23 20 21 24 28 23 25 27 29 30 30 30 31 32 30 27 27 27 24 23 21 20 21 20 21 22 22 22
28 28 27 25 24 27 27 26 22 21 21 22 23 24 23 26 24 27 27 26 25 23 25 26 26 28 30 31 32 31 31 30 29 27 26 26 25 24 23 22 22 23 25 24
28 27 27 27 25 25 25 28 28 28 24 25 25 24 24 25 30 29 28 25 21 21 24 29 27 30 31 32 31 31 30 30 30 29 28 27 27 27 25 24 24 25 24 22
26 27 27 25 27 28 28 29 28 27 27 27 26 26 25 31 30 24 21 22 27 28 24 25 28 27 28 30 31 30 30 29 29 29 29 28 27 27 26 27 26 26 26 25
29 28 28 29 28 28 28 28 27 26 24 25 23 23 23 24 25 25 25 25 24 23 23 22 21 25 25 22 21 21 22 24 26 28 29 29 28 27 27 28 28 28 27 27
27 24 27 26 27 28 27 26 26 28 28 29 27 27 24 26 25 23 27 25 21 20 20 18 17 16 14 13 12 12 13 14 14 15 18 23 28 30 29 29 29 29 28 27

GFSNGP_sfc_dewp_018.txt.gz
Dewpoint
28 29 26 22 22 28 25 24 22 22 21 24 34 35 36 38 37 35 34 34 32 32 32 30 26 25 23 23 24 24 25 25 30 33 35 35 35 35 35 35 35 37 35 31
28 30 29 25 23 24 27 26 27 27 26 28 34 37 37 37 35 34 33 32 31 31 31 30 25 22 21 21 22 24 25 25 31 33 34 35 34 34 35 34 34 34 28 26
15 27 22 17 22 24 24 26 25 23 24 35 35 36 36 36 35 34 33 31 30 30 30 24 23 21 19 20 22 23 25 26 31 32 32 33 32 33 33 32 32 29 25 24
17 18 8 19 28 28 26 27 28 31 32 35 35 36 37 36 35 34 33 30 31 30 23 22 21 19 20 20 21 23 23 27 30 31 31 31 32 31 31 31 30 26 25 25
16 17 16 14 23 28 27 25 33 32 34 35 35 35 35 36 35 34 34 33 29 24 20 20 18 19 20 21 22 22 25 29 30 30 31 31 30 28 29 28 26 25 25 23
17 9 5 17 26 31 29 25 32 35 35 35 35 30 34 35 35 33 32 25 21 19 18 18 19 21 22 22 23 24 26 29 30 30 30 27 27 26 27 26 26 24 23 22
12 12 19 22 30 32 22 23 36 36 35 35 34 35 35 36 35 35 23 19 20 19 19 20 22 23 23 23 24 26 27 28 29 29 26 26 25 24 24 25 24 23 23 22
21 13 16 28 32 27 30 32 37 37 37 36 36 35 37 37 32 20 19 20 20 20 21 23 25 25 24 25 27 28 29 29 29 27 26 26 24 25 25 23 22 21 9 16
25 25 28 30 33 34 34 33 38 38 38 38 37 37 39 30 21 20 18 18 20 21 23 25 26 26 27 28 29 29 29 28 28 27 27 26 23 23 22 22 19 19 21 15
28 28 31 32 33 35 36 37 38 40 39 39 38 39 32 23 23 22 19 20 21 23 23 25 26 28 28 28 29 29 28 28 28 27 27 26 26 23 23 19 20 21 20 18
30 32 33 34 37 36 37 40 40 40 40 40 39 34 27 26 23 20 21 23 23 24 26 26 27 29 27 27 29 29 29 29 30 29 30 27 23 23 24 23 23 21 19 17
28 30 30 31 34 40 40 40 41 40 38 31 31 27 26 24 23 23 23 23 24 26 26 26 29 29 28 29 28 29 29 30 30 30 28 27 24 23 26 26 26 26 26 17
30 32 35 35 39 40 40 40 39 33 27 25 26 26 27 24 24 26 24 24 26 27 28 29 29 28 28 28 28 28 30 30 30 28 28 26 24 25 20 22 26 27 27 27
39 39 37 39 39 41 40 32 28 24 25 26 29 30 26 24 26 25 26 26 28 28 29 28 27 26 27 27 28 29 31 30 30 30 28 27 26 24 21 18 16 14 21 24
39 40 39 39 36 29 27 24 25 30 33 34 31 26 25 24 25 27 28 28 29 29 28 27 26 26 26 27 28 30 32 32 30 29 27 25 24 23 18 18 20 16 13 17
40 40 39 32 25 26 28 32 34 34 33 30 27 26 27 28 28 28 28 29 28 27 27 23 24 26 27 28 29 31 32 32 30 28 26 24 19 18 21 21 23 22 15 14
35 32 28 32 34 34 35 35 35 33 30 27 26 28 29 27 26 27 28 27 24 23 24 24 25 26 28 29 30 30 32 32 30 27 25 25 23 19 18 21 23 23 18 8
34 35 35 35 35 35 34 33 31 29 28 28 28 25 24 25 26 26 25 24 20 21 24 26 26 27 28 29 28 28 30 30 29 28 26 25 24 20 17 19 20 21 20 14
34 35 35 36 36 34 32 30 29 29 28 27 25 27 25 24 25 25 23 19 21 21 26 25 26 26 28 29 28 29 30 30 29 27 26 19 10 15 15 19 22 21 19 19
32 32 32 31 30 28 28 28 28 28 28 26 24 22 24 25 21 20 17 22 26 27 27 26 25 25 27 29 29 29 30 30 28 25 22 18 13 12 18 20 17 17 19 21
29 28 28 30 29 28 27 27 26 27 28 24 23 24 23 25 22 20 23 25 27 24 25 23 25 26 28 30 30 30 31 31 28 25 23 22 23 22 21 19 19 20 21 23
26 27 26 25 26 27 27 27 27 26 25 22 18 18 27 27 26 21 23 25 27 22 23 23 25 24 25 25 30 31 31 31 29 27 25 26 25 24 24 23 23 23 24 24
29 29 28 25 23 26 26 25 21 21 22 23 23 23 22 26 24 24 28 26 25 22 22 21 21 23 26 29 29 30 30 27 28 29 29 26 26 26 26 26 26 26 25 25
27 27 27 27 23 24 26 28 28 27 22 24 24 23 22 24 24 25 27 30 27 20 24 26 28 28 27 26 28 30 30 29 29 28 27 25 26 26 26 26 25 26 26 26
27 28 27 26 27 27 28 28 26 26 26 27 26 26 24 23 26 28 19 24 22 25 26 24 26 23 24 21 16 16 17 18 17 17 19 21 23 26 27 26 26 25 26 26
27 26 26 27 26 26 25 25 24 25 26 26 26 28 28 25 24 25 28 28 24 25 25 19 18 14 11 10 8 8 10 11 10 11 10 11 13 14 18 22 28 28 27 27
24 22 21 21 21 21 20 20 22 22 24 25 25 28 29 28 29 30 29 29 27 17 21 19 15 12 10 10 8 9 7 7 6 8 9 9 9 11 12 14 20 26 28 29

GFSNGP_sfc_dewp_021.txt.gz
Dewpoint
28 28 26 22 26 27 23 25 26 23 22 23 29 35 36 38 38 37 37 36 35 34 33 33 32 29 28 27 26 26 26 26 28 31 35 36 37 36 36 37 37 37 35 33
27 29 28 26 25 25 28 27 25 25 26 28 30 35 37 37 37 36 35 35 34 33 33 32 31 28 26 25 25 25 26 26 28 32 34 35 35 35 35 35 35 36 32 28
23 26 23 23 25 25 26 27 28 26 27 34 34 35 36 37 38 37 35 35 33 32 32 32 31 28 24 22 24 24 25 26 27 32 33 33 33 33 33 33 35 34 29 26
26 23 19 22 29 26 26 26 26 26 28 33 34 36 37 38 38 37 35 34 32 31 32 27 26 23 23 21 23 24 25 26 30 32 32 32 33 32 31 31 33 32 27 26
28 21 19 16 21 28 29 24 29 27 31 35 36 37 37 38 38 38 37 35 32 32 26 24 22 21 22 23 23 24 25 27 29 31 31 31 30 30 29 30 30 28 26 24
24 22 19 22 21 32 30 28 30 33 35 36 36 36 35 38 37 37 36 34 27 23 21 21 22 23 24 23 24 25 27 28 29 30 30 30 29 28 27 27 27 26 23 22
21 27 24 24 27 32 25 28 32 36 37 37 37 39 37 39 37 35 31 24 22 21 21 22 24 25 23 24 25 27 29 30 30 28 29 29 28 27 26 26 27 27 26 24
24 24 23 28 32 32 35 34 34 38 38 39 39 37 37 37 33 25 20 20 21 22 23 25 25 25 23 25 28 28 28 30 28 29 28 26 28 27 26 26 26 25 26 26
28 30 31 31 36 36 35 34 36 39 39 39 39 37 38 34 24 20 19 20 20 22 24 25 25 26 26 28 27 28 30 29 28 28 28 27 27 27 24 24 25 25 23 25
31 31 30 32 33 34 35 37 37 39 40 40 39 38 36 24 22 23 20 21 22 23 22 24 26 27 29 28 28 29 29 30 30 29 27 28 29 26 24 26 25 24 25 24
32 33 33 33 35 37 37 37 38 39 41 41 40 39 26 24 24 25 26 23 23 23 25 24 26 28 29 28 29 29 29 29 30 30 30 29 29 25 25 26 26 27 26 25
33 33 34 33 33 37 39 39 40 40 39 39 37 29 26 28 30 27 24 23 23 25 25 25 28 29 29 28 29 30 29 29 31 31 31 30 28 26 27 27 26 27 27 27
33 35 35 36 36 39 40 40 40 39 32 30 29 29 29 29 28 27 23 24 25 25 27 28 28 27 27 28 29 29 28 30 31 31 31 30 30 29 28 28 27 28 28 28
39 39 39 39 40 41 34 28 29 29 31 33 34 34 32 29 28 26 25 26 28 28 28 28 27 26 27 27 28 29 29 31 32 32 31 31 31 30 30 29 28 28 26 25
39 41 40 35 29 26 28 32 34 35 35 33 32 30 30 28 27 28 30 30 29 29 28 26 26 26 27 29 28 28 29 30 32 33 32 32 32 31 30 28 27 26 26 24
36 29 30 31 32 34 35 35 34 33 33 32 31 30 30 29 30 31 31 30 29 28 26 28 27 27 28 28 28 30 30 31 32 31 32 31 30 29 28 28 27 27 27 26
35 32 34 35 34 35 34 35 34 33 33 31 31 30 31 32 30 29 30 30 29 29 29 28 28 28 28 28 30 29 29 29 31 32 30 29 30 29 27 28 27 27 27 30
37 37 36 35 34 34 34 33 34 33 32 30 31 30 29 28 29 30 29 29 27 27 28 29 29 28 28 29 30 29 29 30 30 31 31 30 29 30 28 27 26 26 27 28
34 34 34 33 33 33 33 32 30 30 31 30 30 31 30 29 27 28 28 27 27 28 29 30 29 29 28 29 29 31 31 31 30 29 31 30 30 29 28 28 27 27 26 26
31 32 31 30 30 30 29 30 30 30 30 29 28 27 28 29 28 27 26 26 29 30 30 30 29 29 29 29 29 31 32 32 30 29 30 29 29 28 28 25 26 27 27 27
28 28 28 30 29 29 28 28 28 29 30 27 27 28 28 28 28 27 28 29 30 30 29 28 28 29 29 29 29 30 30 30 32 31 31 30 29 28 28 29 28 28 28 28
28 28 26 26 26 27 28 28 28 26 26 25 25 24 24 28 29 30 28 29 31 27 29 30 29 28 28 26 28 29 30 31 32 31 31 31 30 29 29 30 30 30 30 29
29 28 28 27 27 28 28 29 27 28 27 27 27 27 28 28 28 28 29 31 29 30 28 30 28 24 25 31 31 31 31 31 31 30 30 30 30 30 30 30 30 30 30 30
29 29 28 28 26 27 26 26 26 26 25 26 27 25 27 27 28 29 30 30 30 31 31 30 31 29 30 31 29 26 24 23 22 21 20 19 21 21 23 26 27 28 29 29
27 26 26 25 24 23 22 21 21 22 23 23 24 25 26 28 28 29 30 29 30 30 29 29 28 25 26 23 21 19 18 17 16 16 16 15 15 16 16 17 19 20 22 28
23 22 22 21 20 19 16 16 17 18 19 19 20 23 24 25 26 28 28 28 30 30 29 27 23 21 19 18 17 15 15 14 13 13 12 12 12 12 12 13 14 15 16 20
20 18 17 16 16 15 14 13 14 13 16 18 16 19 20 21 22 24 24 26 28 30 26 20 18 15 15 13 13 12 12 11 9 9 9 9 8 9 9 10 11 14 15 18

GFSNGP_sfc_dewp_024.txt.gz
Dewpoint
26 26 26 24 24 25 22 22 24 15 16 12 18 22 28 34 37 39 39 40 41 39 38 37 35 32 31 32 31 27 25 23 27 29 30 31 34 34 33 33 32 32 32 33
28 28 27 25 24 23 25 23 24 21 21 22 24 27 31 36 37 38 38 39 39 39 37 34 34 32 31 32 28 26 24 26 26 28 29 30 33 32 31 32 31 31 31 32
24 26 26 32 27 23 23 26 26 24 24 23 27 29 30 33 37 37 38 38 38 37 35 33 33 34 33 28 26 25 25 25 25 27 28 30 29 28 28 30 32 31 32 31
33 29 30 17 23 23 24 23 23 24 21 25 25 32 35 36 35 38 38 38 38 37 34 32 33 32 28 23 23 25 24 24 24 26 27 27 28 28 30 31 30 30 31 29
36 23 19 10 18 22 24 18 23 23 23 24 34 36 35 37 38 39 40 39 39 37 33 31 28 26 23 22 23 23 22 21 24 28 27 26 26 28 30 29 29 29 29 29
31 34 32 22 25 31 30 24 25 29 31 33 35 35 24 37 39 40 40 39 37 33 29 25 24 23 23 22 23 20 23 24 26 27 26 26 27 29 30 29 27 26 27 28
32 36 28 23 23 32 24 24 31 33 34 36 35 32 37 38 40 39 39 37 31 26 24 23 23 25 23 21 18 22 26 27 25 26 26 27 29 29 29 28 28 30 30 28
32 35 30 26 31 30 33 35 35 34 36 39 39 39 38 38 39 38 36 30 26 23 23 25 26 24 17 16 22 26 25 25 26 27 26 26 28 29 28 28 29 29 33 31
30 31 29 32 33 35 37 36 36 37 35 39 40 39 38 38 37 32 27 21 21 23 26 26 23 20 16 22 27 26 26 27 27 28 27 26 27 28 28 27 28 28 26 27
31 27 29 31 32 32 33 35 35 35 36 37 39 38 39 36 31 27 24 23 25 29 28 24 23 24 25 27 27 27 27 27 27 28 27 26 25 27 28 27 28 26 26 25
33 32 31 31 32 34 35 37 38 38 39 40 40 40 39 33 28 25 25 30 29 26 23 20 24 25 26 27 28 26 26 27 28 29 28 27 26 27 28 28 28 27 26 27
34 34 34 34 35 38 38 39 40 41 41 40 41 40 34 29 29 32 29 28 26 23 23 23 26 26 26 27 26 28 28 28 29 30 29 28 27 26 29 27 28 28 28 29
37 40 41 40 39 41 41 36 36 35 35 34 33 31 32 30 29 29 26 25 26 26 28 29 28 28 26 27 29 29 28 28 28 29 28 28 28 29 29 29 29 29 29 29
39 41 40 39 37 34 34 35 36 36 35 35 34 33 32 32 33 33 30 28 29 30 30 30 29 27 27 27 28 29 29 30 30 30 30 31 31 31 31 31 31 30 30 27
35 37 37 33 33 35 36 36 35 34 33 34 34 34 34 33 32 32 31 32 32 32 30 29 25 25 26 30 29 29 29 29 31 33 33 32 33 32 32 32 32 28 28 27
35 35 35 36 36 36 35 34 34 34 35 34 33 34 33 32 32 31 31 32 31 29 29 33 32 29 30 30 29 29 28 29 30 29 30 32 32 30 30 32 31 29 26 26
35 35 35 34 34 34 35 35 33 32 32 31 32 33 31 31 32 31 30 31 35 34 35 34 32 28 30 30 30 29 29 28 28 28 28 28 31 31 30 32 31 28 29 33
37 36 34 34 35 34 32 33 34 34 33 32 33 33 33 32 32 33 35 35 34 33 33 32 33 31 30 31 30 30 31 30 31 32 30 31 31 31 32 32 31 29 30 31
33 32 32 32 32 33 32 30 30 30 33 34 33 33 33 33 31 31 33 32 32 32 31 34 31 31 31 30 30 31 32 33 32 33 32 31 31 31 32 33 33 33 31 30
28 27 27 28 30 30 31 30 34 30 30 32 33 33 33 33 34 33 33 32 32 32 32 32 32 32 32 30 30 30 32 32 31 32 33 32 32 32 32 31 31 32 32 33
28 28 29 29 29 33 33 33 33 30 30 32 31 31 30 32 32 32 32 30 30 37 33 31 32 32 31 29 28 35 32 32 32 32 32 32 32 32 32 32 32 32 32 32
30 29 32 32 31 30 31 29 29 31 30 29 29 30 29 30 30 32 33 33 33 31 32 33 33 32 31 29 30 33 32 32 32 33 32 32 32 32 32 32 32 32 32 32
30 30 31 31 31 28 29 26 27 27 26 26 27 27 26 26 26 25 25 28 29 30 29 30 32 32 31 32 33 32 32 32 31 30 29 29 29 28 28 28 28 30 31 31
30 28 28 27 26 23 21 19 19 21 25 25 25 26 25 27 29 25 28 28 28 29 30 32 32 30 30 32 32 32 31 29 26 26 25 22 24 23 23 23 22 23 23 24
27 24 22 23 21 19 16 16 16 17 17 17 19 19 20 21 23 25 27 28 26 26 28 29 30 30 31 30 29 27 25 25 22 21 21 21 20 20 20 20 19 19 19 19
21 20 20 18 18 16 15 14 15 16 15 17 18 20 21 20 21 22 23 23 24 24 28 27 23 24 24 22 22 20 20 19 18 18 16 17 16 16 16 15 16 16 17 18
18 17 17 17 14 13 14 13 16 15 16 18 16 18 18 19 19 18 19 21 21 19 19 19 17 16 16 16 15 15 15 15 13 11 12 12 12 12 11 12 13 14 15 17

GFSNGP_sfc_dewp_027.txt.gz
Dewpoint
25 25 23 22 19 22 21 21 23 20 12 8 11 15 20 24 28 30 36 39 41 42 42 41 40 40 36 36 37 34 31 27 27 28 30 29 29 30 32 32 30 30 29 29
31 28 26 24 22 19 18 18 16 15 16 17 22 19 22 23 28 29 32 37 40 41 42 41 39 38 34 35 34 35 30 28 26 28 28 28 28 31 32 29 28 29 29 29
23 25 25 31 28 24 21 20 21 23 22 19 21 24 25 25 28 31 33 36 38 40 41 40 39 38 33 34 37 32 28 25 26 27 26 26 26 26 26 28 30 30 29 30
31 31 28 16 20 18 21 20 18 17 18 17 18 26 29 29 30 30 33 35 37 39 40 40 38 35 35 35 30 28 26 25 25 24 23 25 25 25 27 28 30 29 29 30
37 24 20 16 13 19 20 17 20 20 19 20 26 32 31 31 31 31 32 35 38 39 40 39 36 35 34 29 26 24 24 24 21 22 24 25 24 25 26 28 29 29 28 29
30 33 30 26 23 26 26 23 23 23 24 25 27 29 25 32 32 33 36 37 38 39 39 36 34 31 28 25 26 24 22 21 21 24 24 24 25 26 28 28 27 26 26 29
33 36 31 24 24 29 24 29 31 30 28 30 30 28 38 37 34 35 35 37 39 39 36 33 29 28 25 27 27 22 22 24 24 22 23 25 26 27 28 28 29 31 33 31
37 35 30 25 28 26 34 31 30 33 33 35 37 37 37 38 36 36 37 37 35 33 30 26 27 31 30 26 22 24 27 26 23 24 24 24 27 28 28 29 30 30 35 32
31 32 31 29 28 29 32 34 34 34 34 35 36 35 36 36 37 37 36 33 29 26 27 30 30 30 30 23 28 28 27 26 25 26 26 26 27 26 26 28 29 30 29 32
32 24 25 26 29 31 32 34 34 35 36 37 37 38 38 38 37 35 30 25 26 30 31 33 34 28 26 28 29 27 26 26 26 27 27 27 27 25 26 30 31 30 29 28
32 30 28 29 32 35 37 39 39 39 40 40 41 40 40 39 33 28 28 30 33 35 35 29 26 25 27 28 28 26 25 26 28 29 30 28 26 27 27 29 31 29 30 30
35 35 38 37 39 41 41 40 39 39 39 38 38 39 37 31 29 31 34 35 31 30 29 24 28 27 26 27 27 27 27 28 32 31 30 28 26 27 29 29 29 28 28 30
37 40 41 41 39 37 37 37 36 36 35 34 34 33 33 31 30 30 33 34 32 29 30 30 29 30 29 28 30 30 29 30 29 29 28 28 30 30 29 31 30 29 29 29
38 40 40 37 36 37 37 37 36 35 34 34 34 35 36 35 35 33 32 31 29 29 30 30 29 29 29 28 29 30 30 30 30 30 31 31 31 31 32 31 32 33 32 29
36 37 36 37 37 37 36 34 33 33 34 34 34 34 34 34 32 31 31 31 30 30 30 29 28 25 24 30 29 30 30 30 32 33 33 32 32 32 31 31 31 31 32 30
37 37 37 36 35 34 33 33 33 33 33 31 31 32 30 30 30 30 29 30 31 29 28 32 34 30 31 29 29 29 29 30 30 31 31 30 30 30 31 31 30 31 32 31
36 35 35 33 33 33 32 31 30 30 31 32 33 32 30 31 31 29 29 31 36 34 35 35 35 31 32 30 30 30 31 32 31 30 31 31 32 31 31 31 31 31 32 34
37 35 34 33 32 31 31 33 32 31 30 32 33 32 32 31 33 33 34 36 34 33 34 33 33 33 32 31 31 33 34 34 33 32 32 34 33 32 32 31 30 31 32 34
33 32 31 31 31 29 28 29 31 31 33 33 32 32 33 32 33 33 34 33 32 33 30 32 30 32 32 31 31 33 35 35 34 30 31 31 33 33 32 33 33 33 33 33
28 27 27 28 30 31 30 31 35 31 32 32 32 32 32 33 32 32 33 31 33 33 34 34 33 33 32 31 31 33 34 35 33 30 32 33 33 33 33 31 32 33 33 33
28 29 30 29 31 33 34 33 33 30 29 31 30 29 28 31 32 30 29 25 26 31 29 29 28 28 30 32 33 35 35 35 33 32 33 33 32 32 33 32 32 32 32 32
29 31 34 35 31 30 30 27 27 28 28 27 28 28 27 25 27 28 30 27 27 28 29 29 28 28 29 29 31 32 33 33 33 34 33 32 31 31 31 31 30 30 31 31
31 32 32 31 33 28 25 23 30 26 25 25 25 24 23 22 21 23 23 22 24 25 26 28 27 26 28 30 32 32 32 32 32 32 31 29 27 27 27 27 26 26 25 26
31 30 29 26 25 21 19 18 18 18 24 23 24 24 20 21 22 21 22 22 22 24 25 27 27 22 26 31 32 31 31 31 30 29 27 25 26 24 24 24 23 22 21 21
27 24 23 23 21 19 17 15 14 15 16 16 18 17 19 19 21 21 22 22 20 21 23 21 19 17 22 24 23 22 24 22 22 23 22 22 21 20 20 20 19 18 18 19
24 22 21 19 18 16 15 13 15 17 16 19 18 20 21 20 19 19 18 18 18 17 18 20 19 17 17 17 17 17 17 17 15 15 16 16 16 15 15 14 14 14 16 17
19 20 19 19 15 13 15 15 17 17 17 19 17 19 18 19 19 17 17 17 17 17 17 17 16 14 12 13 13 13 13 13 12 11 12 12 12 11 10 10 11 12 14 15

GFSNGP_sfc_dewp_030.txt.gz
Dewpoint
21 22 24 25 21 20 18 23 26 26 17 16 17 22 22 26 30 29 29 36 39 41 43 44 45 45 43 43 39 39 36 35 34 37 33 34 34 34 34 36 34 33 33 34
31 28 26 26 24 22 19 17 18 17 17 18 21 24 25 25 23 25 29 29 37 40 42 44 44 43 43 40 39 39 36 36 34 33 33 34 33 33 34 35 33 32 33 33
33 27 26 28 28 23 20 20 21 22 25 23 21 20 26 28 27 29 32 32 34 39 41 44 45 44 42 38 39 37 37 34 34 32 32 32 30 29 30 32 33 33 33 32
37 33 27 20 20 18 20 18 17 16 19 19 27 27 26 26 29 32 31 34 35 36 40 42 44 42 41 35 36 38 34 32 31 30 28 27 29 30 31 32 32 33 32 32
37 30 24 20 17 18 20 18 21 20 20 21 23 28 28 32 34 34 35 34 34 37 40 42 43 39 37 35 35 32 28 30 30 27 26 28 29 30 31 30 32 32 31 31
36 35 31 29 23 24 23 28 25 27 28 27 26 35 33 36 36 36 34 35 35 38 40 41 38 37 36 29 28 30 29 28 28 27 28 28 29 30 31 31 30 31 31 31
35 37 34 26 25 27 28 34 32 31 32 33 33 36 39 40 39 36 35 36 40 40 37 35 34 32 32 33 33 32 30 29 27 29 31 29 30 30 30 30 31 31 30 30
40 35 31 26 27 27 37 38 35 34 36 39 39 38 38 36 35 36 36 36 34 29 29 32 32 34 33 32 32 33 32 32 31 29 28 26 30 30 30 30 31 31 33 31
37 37 36 30 31 31 35 35 36 38 36 38 39 38 38 38 39 38 35 31 27 29 32 34 34 33 31 33 32 31 32 30 30 29 28 27 29 29 29 29 29 31 31 31
36 27 27 29 29 30 35 38 37 38 39 41 41 42 40 40 37 32 28 27 30 33 35 35 33 31 29 29 31 31 31 31 30 29 29 29 29 29 29 31 30 30 31 30
33 31 32 32 39 41 40 41 40 40 40 38 39 39 36 31 30 31 33 35 36 35 33 31 29 27 30 31 31 31 30 28 30 31 31 31 29 29 29 30 31 30 30 31
41 39 40 40 39 40 38 37 37 37 35 34 33 32 32 33 33 33 33 32 31 31 29 27 29 30 29 29 29 29 29 30 32 33 32 30 29 28 30 29 30 30 30 29
38 40 40 40 38 38 37 37 36 36 35 34 33 32 31 31 31 33 33 33 32 31 31 29 29 29 30 31 31 31 30 31 31 30 31 30 30 30 29 31 32 31 31 30
38 39 38 38 37 37 36 35 35 34 34 34 33 34 34 34 34 33 33 32 30 29 29 29 29 29 31 30 31 31 31 30 30 31 32 31 30 31 30 29 29 29 31 30
36 37 38 37 36 35 35 34 33 33 33 33 33 33 33 32 30 30 31 30 29 29 27 26 27 28 27 32 29 31 31 31 32 33 32 31 31 30 30 29 30 30 30 29
37 37 36 35 34 33 33 32 32 32 31 31 32 32 28 27 27 27 27 31 31 31 32 30 32 32 33 31 29 29 30 31 30 32 32 31 31 30 28 28 28 29 29 29
36 34 34 33 32 31 30 31 32 31 30 30 32 33 32 32 31 32 32 33 33 32 33 33 33 32 34 34 32 31 31 31 31 33 33 33 32 30 30 30 30 29 28 30
36 35 34 32 31 33 32 31 30 31 31 33 31 31 31 30 31 32 32 32 32 32 33 34 32 33 34 34 33 33 33 32 32 32 33 31 31 30 30 30 30 30 29 29
33 33 32 31 31 29 29 31 32 33 32 31 31 30 30 30 29 29 28 29 29 30 32 31 29 28 29 30 31 32 33 33 33 32 32 31 29 29 29 29 29 30 30 30
31 30 29 31 32 32 32 33 33 32 30 29 28 26 26 25 27 25 27 27 27 28 26 26 26 25 25 26 26 26 26 28 29 30 33 31 29 29 29 27 29 31 31 30
28 30 31 32 32 32 31 31 28 26 26 25 25 24 24 26 26 25 24 22 25 23 23 22 23 24 25 24 25 25 26 27 29 28 31 31 31 31 29 29 31 31 30 29
30 32 33 32 31 29 27 26 26 26 25 23 22 20 21 20 21 22 22 22 22 21 21 21 24 20 18 18 24 26 26 28 29 29 29 29 31 29 28 25 27 27 26 26
32 32 31 30 29 26 24 23 26 24 21 21 21 21 20 20 20 20 19 20 21 20 20 22 19 14 15 21 21 21 22 24 21 23 25 26 27 27 25 25 24 24 23 22
32 31 29 27 26 23 21 18 19 21 21 22 22 21 20 21 22 21 20 19 17 18 18 19 17 13 13 17 17 16 17 17 16 17 18 19 20 20 20 20 19 19 18 16
28 26 25 26 23 21 18 15 16 17 17 17 19 18 19 20 21 20 20 19 17 17 17 17 16 12 14 14 14 13 13 14 12 12 13 14 14 15 15 14 13 13 13 13
27 25 21 19 18 16 16 15 16 18 16 19 19 20 22 22 20 19 19 18 17 16 16 16 16 14 13 12 12 11 11 11 10 9 10 10 10 10 10 10 9 9 10 11
21 23 21 20 15 15 16 16 18 17 18 19 17 18 20 20 20 17 15 17 16 16 15 14 14 13 12 11 10 9 9 8 8 8 7 6 7 6 7 7 7 9 9 9

GFSNGP_sfc_dewp_033.txt.gz
Dewpoint
26 28 28 27 27 26 21 27 25 26 25 24 23 22 24 26 29 28 29 36 41 41 42 44 45 46 46 44 39 36 35 35 37 38 35 36 34 34 34 34 32 32 32 32
30 31 28 27 27 26 25 25 23 23 24 23 24 24 24 25 25 26 29 31 33 39 45 45 46 46 45 40 38 37 36 37 37 37 35 35 32 31 31 32 33 33 32 33
27 27 25 21 24 24 26 26 24 21 24 27 26 26 26 27 28 30 31 32 32 34 40 45 46 46 43 40 41 39 40 38 38 39 35 31 30 29 29 29 30 31 32 32
27 26 13 24 24 19 19 22 22 21 22 26 25 28 30 30 32 32 32 32 32 35 36 41 46 46 42 40 38 39 38 34 33 32 30 31 29 29 31 32 32 32 32 32
24 26 26 24 24 26 23 23 26 26 26 26 27 28 36 36 35 34 33 33 34 37 39 41 41 37 36 37 38 33 31 30 31 32 30 30 31 33 34 33 30 31 32 31
28 23 16 28 25 28 26 25 31 31 32 31 30 29 35 36 37 36 36 34 31 33 35 35 34 31 31 32 31 32 32 31 31 32 33 33 34 34 32 29 28 30 29 30
25 24 29 34 28 31 20 26 34 33 33 34 32 35 37 38 37 36 31 30 31 33 33 33 33 33 33 33 31 31 32 34 35 35 34 34 33 30 29 29 30 30 30 30
31 29 26 32 29 24 36 35 33 33 35 36 38 38 39 39 38 32 28 30 33 34 33 34 33 33 32 31 31 32 34 35 34 32 31 30 30 30 29 29 28 29 30 29
33 33 38 31 30 34 34 36 38 39 41 41 42 41 40 33 28 28 30 33 34 33 32 32 32 33 33 33 33 34 34 33 32 32 32 30 29 28 28 28 28 28 29 26
32 33 32 32 40 41 41 41 40 37 37 39 38 32 29 31 32 34 34 35 35 34 32 32 32 31 32 32 32 32 32 32 32 32 31 30 30 30 29 28 26 28 28 27
32 34 40 40 41 39 39 39 36 35 34 33 32 32 33 33 34 35 35 35 33 33 33 31 29 29 31 31 32 31 31 31 29 30 30 30 31 30 29 27 28 27 27 27
32 40 38 38 38 38 37 36 36 35 33 33 34 33 33 33 33 32 32 32 31 31 30 30 30 30 30 30 30 30 29 28 28 27 28 29 29 29 30 29 30 31 31 28
40 40 39 38 37 37 36 35 35 34 33 32 33 32 32 33 33 33 33 33 32 31 31 31 29 29 29 30 29 28 28 28 28 29 28 28 27 27 26 28 31 31 32 32
39 39 38 38 35 35 35 34 34 34 34 34 34 34 33 33 34 33 32 32 30 29 29 29 29 29 30 30 29 28 28 29 29 29 29 29 27 27 26 27 25 26 29 30
37 38 36 36 35 34 33 33 33 32 33 33 33 33 33 32 31 30 31 31 30 30 31 31 30 29 30 32 31 29 29 29 29 29 29 30 30 28 27 27 26 27 27 26
36 35 35 34 33 33 33 32 31 32 32 31 30 31 31 31 31 32 32 32 30 29 30 30 31 31 33 33 33 33 32 29 28 29 30 31 31 30 29 28 28 27 26 27
34 33 33 32 32 32 32 32 31 31 31 30 29 30 30 30 30 30 30 29 29 29 31 31 28 28 30 29 29 30 30 31 30 31 31 31 30 30 31 29 27 27 27 27
35 35 34 33 32 31 31 31 31 30 29 29 29 29 29 27 27 26 26 26 23 26 27 26 24 25 26 26 26 26 25 24 24 24 26 27 30 31 30 29 27 24 27 25
34 33 33 32 31 31 31 32 30 29 29 28 26 25 24 22 26 26 25 20 21 21 22 22 23 22 24 24 21 21 22 22 22 23 24 25 26 26 29 30 27 23 23 25
31 32 32 31 32 31 31 31 28 26 27 24 22 20 21 19 18 17 19 21 21 21 20 19 22 17 16 16 17 19 23 23 21 21 24 25 25 27 29 28 26 24 27 30
30 30 30 30 29 28 26 26 26 25 26 21 18 13 13 18 16 13 18 19 20 18 18 20 17 13 12 15 18 18 18 18 18 19 20 20 21 25 28 29 27 26 20 20
32 31 30 28 26 26 26 25 24 22 21 16 10 10 11 19 15 17 13 18 19 12 16 18 16 9 12 12 15 14 13 14 11 13 14 16 17 18 19 21 21 22 19 19
32 31 30 27 24 24 25 23 20 18 15 15 12 14 16 20 19 15 14 18 17 14 16 16 8 7 7 11 12 9 9 10 8 8 10 11 12 14 13 13 13 14 13 14
30 29 26 25 24 23 19 20 22 19 14 19 14 10 17 11 9 19 19 13 8 6 7 13 9 6 2 4 8 7 7 8 7 6 7 7 8 9 8 9 9 10 10 10
27 27 25 24 22 19 18 19 20 19 19 20 18 18 19 20 10 13 8 9 11 8 5 6 6 5 -2 -3 -1 5 4 5 5 4 4 4 5 4 5 6 6 7 8 9
25 21 19 19 19 18 18 19 19 18 18 13 14 7 11 14 12 11 8 8 9 9 6 1 -0 3 -0 -4 -3 -4 -0 0 2 3 0 0 2 1 2 3 4 6 6 7
23 22 19 17 17 18 18 17 14 12 12 4 5 6 13 12 5 9 2 -0 -0 2 -1 -0 -2 -0 3 1 -5 -2 -4 -5 -3 2 -8 -4 -3 -3 -1 0 2 3 3 4

GFSNGP_sfc_dewp_036.txt.gz
Dewpoint
26 28 30 28 27 27 24 25 23 23 25 24 23 23 24 25 27 33 42 42 43 42 42 44 46 47 47 44 43 41 39 38 41 40 38 39 36 35 35 34 33 33 32 33
27 29 27 26 25 24 25 25 27 25 25 26 25 27 27 28 27 29 31 32 34 41 42 44 45 47 47 44 43 40 39 40 41 39 36 36 35 33 32 33 32 32 32 33
26 26 24 22 24 24 25 27 25 21 24 26 25 24 25 29 30 30 31 32 34 35 44 45 46 47 45 41 41 41 41 40 40 38 36 35 33 32 31 32 33 33 32 33
25 23 16 26 26 25 25 24 24 24 25 29 31 33 33 32 32 31 32 33 35 38 40 44 46 43 42 42 42 41 38 37 36 34 33 33 33 33 34 34 33 32 32 31
23 23 25 24 22 21 23 25 28 26 27 27 32 35 35 36 36 36 36 36 37 37 36 37 39 40 40 37 33 32 31 32 33 33 32 33 34 35 35 33 33 31 30 31
28 20 16 25 26 26 28 25 31 32 31 32 31 31 34 37 37 32 32 32 33 33 33 33 32 32 32 32 31 31 32 33 33 34 36 36 36 34 33 32 29 29 30 30
22 21 24 29 29 29 17 21 32 33 33 32 33 34 36 34 31 31 32 33 34 33 32 33 33 31 31 31 32 34 35 36 38 38 37 35 33 32 29 29 29 29 29 29
30 24 21 34 27 24 29 35 34 36 36 38 40 40 36 30 30 32 33 33 32 32 33 33 32 32 32 33 34 35 36 37 36 33 32 31 31 31 30 29 27 27 24 28
31 30 34 32 32 36 36 38 39 41 42 42 39 30 30 30 32 33 33 32 32 31 32 33 33 32 31 32 34 35 34 32 32 32 32 31 30 28 27 27 25 26 27 25
33 36 39 40 40 40 41 37 36 37 37 34 32 33 33 34 34 34 34 33 33 32 31 31 31 31 32 32 32 32 31 31 31 31 31 30 29 29 28 25 24 27 27 27
36 39 39 39 38 37 36 35 34 34 34 34 34 33 34 34 34 33 32 33 32 31 30 29 29 30 31 31 31 30 30 31 30 28 29 29 29 30 29 28 27 26 26 26
30 38 38 38 38 38 36 35 34 33 33 33 33 32 32 32 32 32 31 31 31 31 30 30 30 29 29 30 29 29 29 28 27 27 27 28 28 28 30 30 30 31 31 27
40 40 38 37 36 35 34 34 34 33 32 32 32 33 33 32 33 33 32 31 31 30 30 29 29 29 29 30 30 29 27 27 27 27 27 27 28 27 27 29 31 31 31 32
38 37 36 36 34 34 34 34 34 33 33 33 33 33 31 32 32 31 31 30 29 29 31 30 30 30 32 32 31 30 29 28 28 28 28 28 28 28 29 28 29 29 29 29
37 38 36 34 33 33 33 33 32 32 32 31 31 31 30 29 31 31 32 31 30 30 31 30 28 28 29 31 31 31 32 31 31 31 31 31 31 31 32 32 31 30 29 26
35 34 34 33 33 33 32 31 31 31 29 30 30 30 31 31 31 29 29 29 29 29 30 27 25 24 26 26 26 27 27 26 25 24 24 24 24 26 27 29 30 29 29 28
33 32 32 32 32 32 31 31 31 29 29 28 28 29 29 27 25 25 26 27 29 27 25 22 21 23 25 23 20 19 20 20 20 22 22 22 23 23 24 25 26 28 31 29
35 33 33 33 32 31 31 30 29 29 29 29 29 24 22 21 24 25 24 22 22 22 20 20 22 20 18 17 17 18 19 21 22 22 21 21 21 24 24 24 25 25 26 27
34 33 33 31 31 30 30 29 28 29 28 25 23 23 23 22 24 23 22 18 17 17 17 20 18 14 12 15 18 19 18 16 17 17 17 17 18 18 18 21 25 26 29 28
32 32 32 32 32 29 27 27 27 26 24 21 20 19 20 17 15 17 19 19 15 16 20 16 13 11 11 13 15 15 13 14 11 11 11 12 13 13 16 16 16 20 24 24
30 30 30 29 28 28 27 26 25 23 19 17 17 15 15 18 16 13 16 17 16 17 18 15 12 11 10 10 11 10 9 9 6 7 8 8 8 10 10 11 12 13 14 15
29 29 28 26 25 25 25 24 24 21 19 16 13 11 14 18 15 16 12 15 16 9 15 15 12 4 7 6 10 5 8 7 5 4 5 5 5 6 5 7 8 9 10 11
29 28 26 25 24 23 22 21 21 19 16 14 13 14 17 19 18 12 12 16 17 11 16 11 4 0 -0 -4 -3 -5 -4 1 2 1 2 2 2 3 2 3 4 6 7 8
31 28 26 24 24 22 19 18 19 19 16 17 12 9 17 13 8 18 17 9 3 1 0 3 -0 0 -4 -9 -9 -9 -9 -10 -3 -5 -1 -5 0 -2 -1 1 1 2 5 6
27 26 23 23 19 19 21 20 19 20 19 16 15 16 18 18 9 11 4 5 7 5 1 -1 -1 -1 -9 -12 -12 -13 -11 -13 -12 -5 -12 -9 -5 -5 -4 -2 -2 1 2 2
24 21 20 19 18 19 19 18 17 18 16 11 11 2 6 12 12 9 3 1 4 3 -1 -7 -10 -9 -10 -7 -11 -13 -12 -9 -12 -6 -15 -14 -10 -8 -8 -6 -5 -3 -1 -0
19 19 18 18 18 18 17 15 13 12 11 2 3 1 12 7 2 3 -6 -9 -9 -7 -10 -9 -12 -9 -9 -6 -3 -9 -13 -14 -14 -12 -20 -19 -16 -13 -10 -7 -7 -5 -4 -3

GFSNGP_sfc_dewp_039.txt.gz
Dewpoint
26 24 28 26 26 27 24 25 23 23 25 25 24 22 23 24 28 39 44 43 44 44 45 47 50 50 49 48 46 43 42 41 41 41 39 40 39 37 38 37 35 35 34 33
26 28 26 26 26 26 26 26 25 25 24 26 26 28 28 29 31 31 32 33 37 42 42 43 46 47 48 46 45 43 41 42 41 41 39 37 36 36 35 34 33 35 37 35
23 26 24 23 25 25 25 26 26 22 23 24 24 26 29 30 30 30 31 33 36 36 43 43 45 47 45 42 41 40 42 42 41 39 37 35 34 33 33 34 37 38 36 33
25 23 17 25 28 26 26 25 24 24 24 29 30 31 32 32 32 32 33 37 39 40 42 44 43 41 41 40 40 41 41 41 39 35 34 33 33 34 36 39 38 33 32 30
24 24 25 25 23 24 22 22 27 27 30 32 35 35 35 36 36 35 35 35 33 34 37 39 40 40 37 33 33 33 33 33 34 35 35 36 36 38 39 35 32 31 30 29
25 21 19 27 27 26 27 23 28 30 30 32 31 28 33 36 33 33 33 33 33 33 32 32 32 32 32 32 32 32 33 34 35 37 38 39 38 36 33 32 32 29 28 29
22 21 25 27 28 26 18 22 32 32 32 32 30 32 34 33 33 33 33 33 33 32 31 31 32 32 32 32 33 36 39 40 40 40 39 38 34 32 30 29 29 28 28 28
25 19 21 32 28 21 27 34 34 34 35 38 38 33 32 33 33 32 31 32 32 32 32 33 32 33 34 35 36 37 38 38 37 35 32 31 31 31 30 28 27 27 24 26
30 28 32 35 30 34 35 35 37 38 40 38 32 31 32 33 33 32 31 31 32 32 32 33 33 33 33 34 35 35 33 32 32 32 31 31 31 30 28 27 26 26 27 26
32 36 38 38 39 39 39 39 38 40 38 32 32 33 33 33 33 33 33 31 31 29 29 30 32 32 33 32 32 31 31 30 30 30 30 29 29 29 28 26 25 27 27 26
35 38 38 37 37 35 35 35 35 35 34 34 33 33 33 33 32 32 32 31 30 30 29 30 31 31 31 31 31 29 29 29 29 29 28 28 28 29 28 28 28 28 28 27
32 38 36 37 37 36 34 34 34 33 33 34 33 33 32 31 31 30 30 31 30 30 30 29 29 29 30 30 30 28 28 28 27 27 27 27 27 27 30 30 30 31 31 29
35 39 38 37 35 35 34 33 33 32 32 31 32 32 32 31 32 32 31 30 29 29 29 30 29 28 30 31 30 30 28 29 29 28 28 28 28 28 28 29 31 31 31 32
37 36 35 35 34 34 34 33 33 32 33 33 32 32 31 30 30 29 29 29 30 30 29 28 27 25 27 28 27 28 28 28 28 27 27 26 25 26 27 26 26 27 29 31
36 37 35 34 33 33 33 32 32 32 31 31 30 30 30 29 29 29 29 30 29 28 25 22 21 21 25 25 24 24 23 21 21 21 21 21 22 21 22 22 22 23 24 24
34 33 33 33 32 31 31 31 29 29 29 30 30 31 30 28 26 27 28 28 26 23 20 17 22 24 24 19 16 17 18 19 19 21 21 21 19 18 18 20 21 22 22 23
33 32 32 32 31 31 31 29 28 28 29 29 29 28 24 25 26 26 27 24 21 20 21 22 19 16 17 15 17 19 19 19 17 18 18 17 18 17 18 17 15 17 21 23
37 35 35 33 32 31 30 29 28 28 28 28 24 22 22 23 24 22 21 21 18 18 20 17 15 12 13 14 15 17 15 16 14 13 14 13 13 15 14 15 14 14 14 16
35 34 34 33 32 30 28 28 28 28 26 24 24 23 23 23 23 21 19 14 12 15 18 14 15 11 10 14 13 13 12 11 8 9 9 8 9 9 11 9 10 11 12 13
33 32 31 30 30 29 28 28 27 25 25 24 21 20 19 18 17 17 17 15 14 17 17 13 10 9 8 10 9 10 9 6 6 4 5 5 3 4 6 5 6 8 8 10
31 30 29 27 26 27 27 25 23 21 21 20 19 17 18 18 15 13 14 15 14 16 15 12 11 9 7 7 8 5 2 -2 -2 1 0 -1 -1 1 0 0 2 3 5 6
30 29 28 26 24 24 24 22 20 20 19 16 14 15 15 16 14 15 12 15 15 9 15 14 11 1 5 2 7 -4 2 1 0 -3 -3 -3 -4 -2 -4 -3 -2 -1 1 3
29 28 26 26 24 23 24 20 19 17 16 15 15 16 18 18 16 13 13 16 16 9 14 8 2 -2 -4 -9 -10 -12 -11 -12 -10 -7 -12 -13 -9 -6 -6 -6 -4 -3 -2 -0
27 27 26 23 21 20 19 19 18 17 17 18 14 13 18 13 10 17 15 7 2 -2 -2 -1 -3 -3 -8 -13 -15 -15 -15 -18 -18 -14 -13 -14 -17 -13 -10 -9 -7 -7 -5 -3
28 24 23 22 20 19 19 20 19 18 18 15 16 18 18 16 9 11 4 4 5 2 -3 -6 -5 -7 -14 -17 -16 -17 -17 -19 -21 -17 -21 -22 -17 -16 -15 -13 -11 -9 -8 -6
24 22 20 20 20 20 19 19 19 18 15 10 11 4 10 11 10 8 1 -2 1 -1 -4 -12 -15 -15 -16 -12 -13 -15 -17 -14 -19 -17 -22 -22 -20 -18 -18 -15 -13 -11 -10 -8
22 21 19 19 18 17 16 16 16 15 12 7 6 5 9 6 3 1 -9 -12 -13 -13 -13 -15 -16 -13 -14 -18 -14 -11 -14 -18 -20 -19 -25 -26 -23 -24 -21 -17 -15 -13 -12 -11

GFSNGP_sfc_dewp_042.txt.gz
Dewpoint
25 25 26 25 26 27 25 25 24 24 24 25 25 23 23 24 34 37 44 45 45 46 48 50 50 51 51 48 46 46 45 44 41 41 40 41 39 38 38 37 36 35 37 39
28 27 26 27 27 27 26 26 25 25 23 26 26 28 29 31 32 32 33 35 38 41 43 43 47 49 49 47 45 44 42 41 41 41 39 38 37 35 36 37 39 40 40 39
23 25 25 23 25 26 25 27 27 25 26 25 25 28 29 30 31 32 34 37 39 41 44 45 45 45 45 44 42 41 42 41 41 39 36 36 35 35 36 37 40 40 39 39
24 23 16 24 28 27 27 27 26 24 24 25 27 30 31 32 32 34 37 36 35 37 40 41 41 40 40 40 41 41 40 39 38 36 34 35 36 37 39 40 39 38 36 33
23 23 23 25 24 25 23 21 25 25 29 31 33 34 35 34 34 34 34 33 33 33 33 33 33 33 34 33 34 34 34 34 34 35 36 37 38 39 40 39 37 34 32 30
24 20 18 26 28 25 24 20 27 30 32 34 32 27 33 33 34 33 33 33 32 32 32 32 32 33 32 32 33 34 35 36 38 39 40 40 39 38 36 34 32 32 29 29
21 21 26 30 27 26 19 22 30 32 33 33 29 29 33 34 32 33 33 32 32 31 31 32 32 32 33 34 36 37 39 40 40 40 39 39 37 33 31 30 29 29 29 29
24 20 24 29 28 23 27 33 32 32 33 34 34 33 34 33 32 31 31 32 32 32 32 33 34 35 35 35 36 37 37 37 36 34 32 31 31 30 30 29 27 27 25 27
30 30 33 32 28 30 32 33 33 34 38 36 33 32 33 32 31 31 31 31 31 32 32 33 33 34 34 34 33 32 32 31 31 30 30 30 29 29 28 27 25 27 27 27
31 33 35 37 38 38 39 37 39 40 37 34 32 33 32 32 32 31 30 29 29 30 30 31 32 32 32 32 32 30 29 29 29 29 29 28 28 28 27 26 26 27 27 27
32 37 37 37 37 36 36 36 35 34 33 33 33 32 33 32 31 31 30 29 29 30 30 29 30 31 31 30 29 28 28 28 28 28 27 28 28 27 27 27 28 27 28 27
30 35 34 34 36 36 35 34 34 34 33 33 33 33 32 31 30 29 29 30 30 29 29 30 29 29 29 30 30 29 28 28 27 27 26 27 27 26 28 29 30 30 30 29
33 38 37 36 35 34 34 34 34 33 33 32 32 31 30 30 30 31 29 29 29 29 28 27 24 25 27 27 28 27 26 25 23 22 21 21 21 21 20 21 23 23 24 25
37 36 35 35 34 33 33 33 33 32 32 32 31 31 30 29 28 28 29 29 28 26 24 21 22 24 23 23 24 22 21 22 20 20 20 20 18 20 20 19 17 17 20 21
36 36 36 34 33 32 32 32 31 31 31 31 31 30 29 28 28 28 28 28 23 20 20 21 22 22 19 19 16 17 18 19 20 19 19 18 18 17 18 17 17 15 15 16
34 34 33 32 32 32 32 31 31 30 31 30 30 29 28 28 27 27 27 27 21 19 20 18 17 15 16 16 16 18 17 18 16 17 17 15 15 14 14 15 15 14 13 13
32 31 32 31 31 31 30 30 31 30 30 30 29 25 26 27 27 25 21 20 21 21 19 17 14 12 13 14 15 15 15 15 12 12 12 12 11 12 11 12 9 10 11 11
35 34 33 32 31 30 30 31 31 30 30 28 25 25 25 24 24 23 20 19 20 18 16 13 12 10 10 12 10 11 12 9 9 9 9 8 8 8 7 7 6 7 7 9
35 33 32 32 31 30 30 30 29 28 26 24 24 23 24 23 21 19 16 16 15 17 15 12 14 10 7 12 9 10 10 5 5 5 4 2 1 2 4 1 2 3 3 5
34 33 32 31 32 30 29 29 27 25 24 23 22 22 22 20 19 17 16 14 15 17 14 11 9 8 6 9 6 7 6 -0 3 -0 -3 -1 -9 -9 -6 -4 -1 -1 -2 0
32 31 30 29 28 28 28 26 25 23 22 22 21 20 20 19 17 15 16 14 13 17 13 12 9 8 6 6 6 1 -5 -9 -9 -7 -9 -13 -14 -10 -11 -12 -7 -6 -5 -3
29 28 27 27 25 23 22 22 22 21 20 19 18 18 16 16 14 15 14 15 14 13 14 13 10 1 4 2 4 -7 -1 -5 -6 -9 -12 -15 -16 -15 -13 -15 -11 -8 -7 -6
29 28 27 25 24 21 20 19 20 19 18 17 17 17 18 18 17 14 14 15 15 10 14 8 1 -2 -5 -10 -12 -14 -14 -15 -16 -14 -20 -24 -23 -22 -18 -14 -13 -12 -11 -9
29 27 25 25 22 19 17 16 16 17 18 19 16 15 17 14 11 16 14 8 3 -1 -0 0 -3 -3 -10 -15 -17 -18 -18 -21 -22 -22 -18 -20 -27 -24 -21 -21 -17 -14 -13 -12
27 26 25 24 23 20 18 17 18 18 18 17 18 18 18 16 10 11 7 4 7 4 -1 -5 -6 -10 -17 -18 -19 -19 -20 -22 -24 -24 -25 -27 -25 -24 -23 -22 -21 -18 -15 -14
26 24 24 22 20 20 20 19 18 16 13 13 14 12 11 11 10 7 3 1 1 -1 -2 -11 -15 -18 -19 -18 -19 -19 -14 -13 -21 -22 -25 -27 -27 -23 -24 -21 -21 -19 -17 -16
22 21 20 18 18 18 18 18 17 15 13 12 12 11 10 8 2 2 -6 -10 -12 -13 -14 -15 -18 -16 -17 -21 -20 -17 -15 -17 -22 -20 -28 -31 -31 -29 -27 -25 -22 -21 -19 -17

GFSNGP_sfc_dewp_045.txt.gz
Dewpoint
25 22 26 27 27 29 26 29 29 28 25 26 28 28 27 28 35 40 43 45 46 48 51 54 54 55 55 54 52 50 48 48 47 45 44 43 41 40 40 39 38 38 39 40
27 27 27 27 26 28 27 27 26 25 25 28 28 27 29 32 36 35 37 40 43 44 44 45 48 51 52 50 48 47 46 44 42 41 40 39 38 38 39 39 39 40 40 40
25 26 25 28 28 28 28 29 29 27 29 29 27 29 32 33 34 36 38 38 39 42 42 42 44 47 47 46 45 44 43 41 40 38 37 37 38 38 39 40 41 41 41 41
29 27 25 27 28 28 29 29 28 27 26 27 28 31 32 33 36 37 35 36 38 39 39 39 40 41 43 43 42 41 40 39 37 36 36 37 39 40 40 41 40 40 40 40
30 26 26 24 26 27 27 23 27 28 27 28 33 35 34 34 36 35 35 35 35 36 36 36 36 37 38 37 37 37 36 35 35 37 37 39 39 40 41 40 40 39 38 36
27 27 25 30 28 28 26 24 28 28 31 32 34 32 34 34 34 34 34 34 34 34 34 34 34 36 36 36 36 36 37 37 37 39 39 40 40 39 38 36 34 33 32 33
27 31 30 30 28 29 26 28 31 31 34 36 33 33 36 35 34 33 33 32 34 34 33 34 35 36 36 36 36 37 38 39 40 40 39 38 36 34 33 32 32 33 32 32
29 32 28 32 26 28 35 32 34 35 37 37 35 35 34 33 33 32 32 32 33 34 34 35 35 35 36 37 38 37 36 34 32 32 31 31 32 32 31 31 31 31 34 32
32 34 37 33 35 33 33 34 35 36 36 36 35 34 33 32 32 32 32 32 33 33 34 34 34 34 33 32 31 31 30 30 30 30 29 29 29 29 29 29 30 30 30 31
36 35 34 36 36 38 36 36 35 37 37 36 34 34 32 32 32 31 31 31 31 31 30 30 31 31 31 30 30 30 30 30 30 30 29 29 28 28 28 29 28 27 27 27
34 35 38 38 39 38 37 38 37 36 35 35 34 32 32 31 30 30 30 30 30 30 30 30 30 30 30 30 30 29 28 27 26 25 23 21 19 21 21 22 26 24 24 23
34 36 38 35 39 38 38 37 36 34 34 34 33 32 32 31 30 29 30 30 29 30 28 27 25 25 26 26 25 24 21 19 20 20 20 18 17 16 21 22 22 21 21 23
36 39 37 36 36 36 36 36 35 34 34 33 33 32 31 30 30 30 29 29 28 26 24 24 22 20 21 22 20 18 17 17 18 19 18 18 18 17 17 18 18 19 18 19
37 37 36 35 35 35 34 34 34 33 33 33 32 31 31 30 29 29 28 27 25 21 23 23 18 16 16 15 16 17 18 20 17 18 19 18 17 17 17 17 17 17 16 16
36 36 36 34 33 33 33 33 32 31 31 31 31 30 29 29 29 29 27 22 21 22 21 18 14 13 15 16 14 14 15 15 17 18 18 16 16 15 15 14 14 13 13 13
34 34 34 33 32 32 32 32 31 31 31 30 29 29 29 29 28 26 21 21 21 19 16 18 14 13 15 14 14 12 14 15 13 14 14 13 12 12 11 12 11 11 11 11
34 32 32 32 32 31 31 32 32 31 30 30 29 29 29 28 26 23 21 21 20 19 16 15 12 11 13 11 11 11 12 11 11 11 11 10 10 10 9 10 9 9 9 10
36 35 34 33 32 31 32 32 32 32 30 29 29 28 27 26 23 20 21 19 19 17 13 11 10 10 11 8 9 10 10 8 9 9 9 8 6 7 8 6 5 5 6 6
35 34 34 32 32 31 31 31 30 29 28 28 28 26 26 24 21 19 19 19 18 15 12 11 13 9 9 10 8 9 8 7 6 5 6 4 5 3 4 4 3 4 4 4
33 32 32 31 31 30 29 30 29 28 27 26 25 24 22 21 20 19 18 17 16 15 12 10 8 7 7 7 7 5 5 6 4 5 4 2 2 2 2 -0 -0 1 3 3
31 31 30 30 29 29 29 29 27 25 25 25 24 23 21 19 18 17 16 13 15 15 12 11 9 8 6 6 5 7 6 5 4 4 2 1 0 -0 -0 -0 -0 -0 0 1
29 28 28 28 27 27 27 25 23 23 23 21 21 20 19 17 17 17 18 14 15 16 13 12 10 7 6 7 6 7 5 3 3 3 2 0 -1 -2 -2 -3 -3 -2 -2 -1
29 28 27 26 24 22 22 21 21 21 20 20 20 19 18 16 16 15 14 14 14 14 13 13 8 5 4 9 8 7 5 2 1 1 1 -1 -2 -3 -5 -6 -6 -5 -4 -4
27 26 24 20 20 19 19 19 19 19 20 20 19 19 17 17 17 16 16 13 11 13 13 11 9 4 2 7 6 5 4 3 1 1 -0 -7 -3 -5 -6 -7 -8 -7 -7 -7
27 26 25 24 22 21 20 19 18 18 18 18 18 18 17 16 18 16 14 13 12 11 11 4 2 -1 5 5 5 3 3 3 2 -0 -1 -3 -4 -6 -7 -8 -10 -9 -10 -8
22 22 22 22 22 21 21 19 16 15 15 16 16 17 16 15 14 12 11 10 9 7 9 7 5 4 3 3 2 1 1 2 1 -1 -3 -4 -6 -7 -9 -11 -11 -11 -11 -10
19 20 19 17 18 18 19 19 18 16 16 17 16 15 14 13 11 10 7 8 7 6 5 5 4 2 3 2 1 1 1 1 -2 -2 -3 -5 -7 -8 -11 -12 -12 -12 -12 -12

GFSNGP_sfc_dewp_048.txt.gz
Dewpoint
21 19 17 18 17 22 23 25 24 25 23 24 25 26 26 29 30 34 36 43 47 49 51 53 55 56 56 57 56 55 54 52 51 49 48 48 48 47 45 42 41 41 41 41
25 23 21 19 18 18 22 20 23 25 23 25 28 29 29 29 33 36 41 43 45 46 47 48 50 51 53 52 51 51 50 48 46 45 45 44 42 42 41 40 40 40 40 41
23 26 25 29 28 23 23 27 28 25 26 26 27 28 30 32 35 38 40 41 42 42 43 45 48 49 49 48 48 47 46 44 43 41 40 40 39 38 39 41 43 42 42 42
29 31 31 23 27 26 26 26 26 26 25 26 26 28 32 34 37 37 37 39 41 41 42 44 45 46 46 45 45 44 42 41 39 39 39 39 39 40 42 43 42 41 41 41
36 28 24 24 26 28 28 25 25 26 25 24 29 33 34 36 37 37 39 39 40 40 41 41 42 42 42 41 41 40 39 38 38 39 39 39 40 41 42 41 40 40 38 37
32 29 32 26 26 29 27 28 25 26 27 28 32 33 30 37 37 37 38 38 38 39 39 39 40 40 40 39 39 38 38 38 38 39 40 40 41 40 39 37 35 33 32 33
34 35 30 29 28 29 26 29 28 27 30 32 33 32 37 37 37 36 36 37 38 38 38 39 39 39 38 38 37 38 38 39 39 40 38 36 35 34 34 32 32 34 33 33
35 37 33 31 28 28 32 36 33 35 34 37 36 39 37 36 35 35 35 35 36 37 37 38 38 38 37 37 38 38 37 34 33 32 29 29 30 30 29 29 30 31 37 33
33 33 36 35 32 33 36 33 35 35 35 37 38 37 36 35 35 34 34 35 35 36 36 36 36 36 35 35 35 34 32 30 29 28 28 28 28 30 28 29 30 30 28 29
36 32 34 36 33 35 34 35 34 35 36 39 37 37 35 35 34 34 33 34 34 35 34 34 33 32 31 30 28 28 28 29 29 28 27 26 25 22 20 23 23 21 21 22
36 35 36 37 37 36 36 37 37 35 37 37 37 36 35 34 34 33 33 34 33 33 32 31 30 29 28 28 28 26 27 25 25 23 17 14 13 16 19 21 22 21 21 21
36 36 39 35 37 39 38 37 37 37 37 37 36 35 35 34 33 33 33 32 32 31 29 28 27 26 26 26 25 24 20 17 20 20 19 15 13 14 22 21 19 19 19 21
36 39 40 39 37 39 39 38 38 37 37 36 35 35 34 33 33 32 31 31 30 28 26 25 23 22 20 20 18 17 15 16 17 19 17 16 16 17 17 20 18 17 16 16
40 38 37 36 36 38 38 37 38 36 36 36 35 34 34 32 32 31 30 29 27 25 23 20 17 16 15 15 16 17 17 18 17 18 17 18 17 18 18 18 19 19 15 14
39 38 38 37 36 36 36 35 35 35 35 34 34 33 32 31 30 30 28 24 24 23 20 16 12 12 14 16 12 13 14 14 19 21 19 17 18 18 17 16 16 15 15 13
36 36 35 35 34 34 35 34 34 34 34 33 32 32 31 30 28 26 23 25 24 19 16 19 15 13 16 12 10 12 13 14 14 16 17 16 15 15 14 14 14 14 14 14
37 36 35 35 34 34 34 34 34 33 32 32 31 30 28 26 26 25 25 24 23 22 20 17 12 11 12 9 8 10 12 12 12 14 14 13 14 14 13 14 13 13 14 14
38 37 37 36 35 35 34 35 34 33 32 32 31 30 28 28 26 24 23 21 21 19 14 11 11 10 8 8 8 11 12 11 12 13 12 14 11 11 12 12 10 10 12 10
37 37 36 35 35 34 34 33 32 31 30 30 29 28 27 26 24 22 21 20 19 16 12 11 13 10 8 10 8 11 12 13 11 10 11 8 12 10 11 11 10 10 10 10
34 34 34 34 34 32 30 30 30 29 29 28 27 26 24 23 23 23 22 20 17 14 11 10 8 8 7 7 7 8 10 12 8 11 12 10 11 11 11 7 7 9 10 10
31 30 30 29 29 30 30 30 29 28 29 28 26 25 23 22 23 21 19 15 14 13 11 12 10 8 7 7 5 13 13 13 12 11 11 10 10 9 8 8 8 8 8 8
30 29 29 30 29 29 29 29 27 27 26 25 24 23 21 20 20 19 20 16 15 15 13 13 11 10 8 6 9 14 11 10 10 10 10 9 8 7 7 6 6 6 6 7
29 29 28 27 26 25 25 25 25 25 24 24 23 23 20 18 17 17 15 14 15 15 14 15 12 9 5 14 14 12 11 9 8 8 8 8 7 6 5 4 4 3 3 3
27 26 26 24 23 21 21 21 22 22 23 21 21 21 19 20 20 18 17 16 15 16 16 14 13 5 7 13 12 10 9 9 9 8 7 3 6 5 4 3 1 2 1 1
27 27 26 25 23 22 22 22 21 19 18 17 18 18 18 19 21 19 19 17 14 14 15 10 5 2 11 11 10 8 8 8 8 7 6 6 4 3 3 2 0 0 -1 -1
23 22 22 23 23 23 22 21 20 21 21 20 20 22 21 20 18 18 17 15 14 10 13 14 12 11 10 9 8 7 7 6 6 6 4 3 3 2 1 -0 -1 -2 -2 -2
19 20 19 18 19 19 19 20 19 18 20 21 19 20 19 19 17 16 14 15 14 12 12 11 11 8 8 7 7 6 6 6 4 3 2 2 2 1 0 -1 -2 -3 -4 -5

GFSNGP_sfc_dewp_051.txt.gz
Dewpoint
21 20 19 19 20 20 20 23 25 24 20 22 23 23 24 25 26 26 28 33 39 42 47 50 53 55 56 57 57 56 54 53 52 53 52 51 50 49 47 45 44 42 42 42
22 20 19 17 16 16 15 18 20 20 19 21 22 21 24 27 27 28 31 33 39 44 48 52 54 55 55 55 55 55 53 51 50 49 49 47 47 46 45 44 43 42 42 42
26 22 22 27 21 18 17 18 20 21 22 22 22 22 24 25 27 31 36 40 44 46 48 49 51 52 51 51 51 49 48 47 45 44 43 43 41 41 41 42 43 43 42 42
32 33 28 24 23 22 22 21 20 21 21 22 21 21 25 28 30 36 40 42 43 44 45 46 47 47 48 46 46 45 44 42 42 42 41 41 41 41 42 43 42 43 42 41
34 30 24 21 24 24 23 21 20 21 23 22 22 28 31 32 35 39 40 40 41 42 43 44 44 44 43 43 42 42 41 40 40 41 41 41 41 41 42 42 41 41 40 38
35 29 28 28 24 25 24 28 23 23 24 24 24 32 27 35 38 38 39 39 40 41 41 42 42 42 41 40 40 39 39 39 40 40 40 41 42 41 40 40 36 34 32 32
36 33 28 25 24 26 28 30 27 25 24 27 26 30 35 38 38 38 38 38 40 40 40 40 41 41 40 40 39 39 40 40 40 40 40 40 38 37 34 33 32 34 32 33
37 35 33 33 29 28 32 35 32 31 30 32 32 39 38 38 37 37 37 38 38 39 40 40 40 40 38 38 39 39 39 38 37 36 33 33 33 30 28 29 31 32 34 32
33 33 37 36 35 33 32 32 36 34 32 34 38 38 38 37 36 36 36 37 38 38 39 39 39 39 38 38 37 37 36 34 32 29 26 26 27 28 27 28 29 28 25 26
35 34 33 36 35 34 35 35 35 35 33 36 39 38 37 36 36 36 35 36 37 38 37 38 38 37 37 36 34 33 30 29 28 27 26 25 22 17 18 23 23 21 21 22
32 31 31 32 37 39 35 36 35 34 34 36 39 37 37 36 36 35 35 36 37 37 37 35 33 32 31 30 29 27 27 25 25 22 19 15 15 16 20 23 22 21 22 21
35 29 39 38 37 39 37 37 38 36 35 38 37 37 36 36 36 35 35 36 35 35 34 31 30 29 29 28 26 25 22 20 24 23 20 14 12 19 22 21 21 20 18 20
33 35 40 42 38 38 38 38 38 37 36 37 37 37 36 36 36 35 35 35 34 33 31 29 27 24 23 24 24 21 20 19 19 20 18 17 17 18 18 22 20 20 18 15
36 40 38 37 36 38 39 38 39 37 37 37 37 36 37 35 35 34 34 33 31 29 26 24 21 18 18 17 18 19 17 22 18 19 18 19 18 19 19 19 20 21 19 14
40 40 40 38 37 37 38 38 37 36 37 37 37 36 36 34 33 33 32 29 27 24 20 16 14 13 15 19 15 15 15 17 21 22 21 19 19 19 18 17 18 17 16 17
39 38 37 37 36 36 36 36 36 36 37 36 36 36 35 33 32 29 28 26 24 19 18 21 19 18 17 13 14 14 12 16 17 17 17 17 16 16 15 16 15 16 16 16
39 38 38 38 37 36 36 36 36 36 36 35 35 35 32 28 28 28 26 24 25 24 24 22 21 19 14 11 11 11 13 13 15 14 15 14 15 15 14 15 15 15 16 17
39 39 39 38 38 37 37 37 37 36 35 33 31 29 29 27 25 24 23 23 23 22 22 20 17 10 10 10 10 12 13 12 13 15 14 16 14 13 14 14 13 13 14 13
37 37 38 37 37 37 36 35 33 32 31 30 29 27 26 25 24 23 23 21 20 19 18 17 16 12 10 12 10 13 14 15 12 11 13 11 15 13 14 14 13 13 13 13
32 31 31 31 32 31 30 31 30 29 29 28 26 25 24 24 23 23 24 23 22 18 16 13 10 9 7 8 10 10 14 16 11 13 15 12 15 14 14 11 11 12 13 13
30 30 29 29 29 30 31 31 30 29 29 28 26 24 24 24 24 23 21 17 17 15 13 13 10 8 7 7 6 15 16 15 14 14 13 13 13 13 12 12 12 12 12 11
31 30 29 29 29 28 29 29 28 27 26 24 24 24 23 22 22 23 23 18 15 16 13 13 11 12 9 11 11 15 13 11 11 13 13 12 12 11 11 11 10 10 9 9
29 28 28 27 27 27 27 27 27 26 25 25 24 24 23 22 20 19 17 16 16 17 15 17 13 11 6 15 15 14 13 11 11 11 11 12 11 10 10 9 8 8 7 7
28 28 28 28 27 25 23 24 23 23 24 24 24 24 22 22 20 18 18 18 17 18 20 17 14 8 8 14 14 13 11 12 12 12 11 9 10 10 8 8 6 7 5 4
27 27 27 25 23 23 23 24 23 22 22 22 22 22 22 23 24 22 21 19 16 18 18 11 8 6 12 13 12 11 11 11 12 9 8 8 8 8 7 7 5 5 3 2
23 22 22 23 24 23 24 23 22 24 22 22 22 23 22 21 20 20 19 17 15 13 15 16 14 12 12 12 11 10 10 9 9 10 8 7 7 6 6 4 4 3 2 2
20 20 19 18 19 19 20 20 19 19 20 23 20 21 20 20 18 17 16 17 15 14 14 13 13 12 9 10 8 10 10 9 8 7 5 5 5 4 4 3 2 1 -0 -1

GFSNGP_sfc_dewp_054.txt.gz
Dewpoint
24 22 24 24 23 23 24 24 32 33 24 23 25 28 32 35 30 28 28 33 37 44 49 52 53 54 56 58 57 56 56 55 54 53 52 51 49 48 46 45 45 43 43 43
28 23 22 21 21 20 20 20 19 21 24 24 24 25 32 32 29 28 29 28 32 40 47 51 53 55 57 57 56 55 53 53 52 51 51 50 48 46 45 44 43 43 43 42
28 26 23 23 23 20 19 21 20 21 24 24 22 22 24 25 26 29 30 32 37 42 47 52 55 57 56 55 55 53 51 51 50 48 47 46 45 43 43 43 43 43 42 42
32 33 24 24 24 22 22 22 19 17 18 20 22 23 24 28 32 32 35 40 44 49 52 54 54 53 52 51 50 48 47 45 45 44 42 42 42 43 43 43 43 43 43 42
32 29 27 24 25 24 24 23 23 22 21 20 21 30 33 33 37 40 42 45 46 47 49 50 49 49 47 47 45 44 43 43 42 42 42 42 41 42 43 42 42 42 41 40
38 29 27 33 28 25 27 26 26 24 27 26 26 33 31 36 38 42 42 43 43 45 45 45 45 45 44 43 42 41 41 41 42 42 42 42 42 42 41 41 40 37 34 35
35 34 31 28 28 28 27 30 33 30 30 33 32 34 38 38 40 40 40 40 42 42 42 43 43 42 41 41 40 40 41 41 42 42 42 41 40 39 39 36 36 34 33 34
36 35 32 33 30 28 33 37 39 36 37 41 38 41 40 39 39 39 38 39 40 41 41 42 41 41 40 39 40 40 41 40 40 39 38 37 36 33 31 33 33 33 32 32
34 34 41 39 37 38 40 40 40 40 37 38 42 40 39 39 39 38 38 38 39 40 41 41 40 40 39 39 40 39 38 37 36 34 32 30 31 31 31 31 30 29 27 29
36 32 33 40 41 40 38 40 37 38 38 42 42 40 39 39 38 38 37 37 38 40 40 40 40 39 39 39 38 37 35 32 30 29 28 27 23 22 27 27 27 27 27 26
33 34 34 34 34 42 40 42 39 38 39 38 40 40 39 38 38 37 37 37 39 39 39 39 39 38 37 36 35 31 30 29 28 28 24 20 19 22 25 22 24 26 24 24
36 36 40 38 41 42 36 36 40 39 40 38 39 40 39 38 38 37 37 38 38 38 38 36 34 33 32 32 30 29 27 26 29 27 25 20 18 18 25 22 21 20 20 22
32 34 37 42 40 40 39 41 41 42 40 39 40 39 38 38 38 36 37 38 37 36 34 32 30 30 29 30 28 25 23 24 25 26 25 23 24 25 22 21 21 21 20 17
41 42 41 42 40 40 40 40 41 40 40 39 39 39 39 38 37 37 37 37 35 33 31 28 24 22 22 21 22 22 21 26 24 24 24 25 24 24 24 24 24 23 20 18
40 41 41 40 39 37 38 39 39 39 38 40 41 39 39 37 37 37 36 33 31 28 24 20 18 16 19 24 19 21 22 24 26 25 24 23 24 24 23 22 22 22 21 20
40 40 39 38 38 37 37 37 38 38 39 39 39 39 37 36 33 31 30 29 25 21 20 22 19 19 23 19 18 19 22 23 25 23 21 21 21 21 20 20 20 21 20 20
39 39 40 39 40 39 36 38 38 38 38 36 33 32 28 26 25 24 24 24 23 23 23 23 22 17 19 19 22 24 21 19 19 18 18 18 19 19 18 19 19 19 18 15
38 39 38 38 39 39 38 38 36 33 31 29 28 27 25 23 22 22 22 22 21 21 22 23 23 23 22 20 18 17 17 17 17 18 17 19 16 16 18 17 17 16 17 16
34 34 34 34 35 34 32 31 30 30 29 27 25 23 23 22 21 21 22 20 19 18 20 22 22 19 18 18 16 18 18 18 15 14 15 14 17 17 17 17 16 15 14 15
29 29 29 29 30 29 28 28 27 26 26 25 24 23 21 22 23 23 23 20 20 20 22 21 17 13 10 11 14 14 17 17 13 15 18 14 16 17 15 14 14 14 14 14
29 29 29 28 28 29 29 28 27 25 26 25 24 23 22 22 22 21 19 16 19 21 19 17 13 11 9 9 11 18 18 17 16 16 16 16 16 15 15 14 14 13 12 12
28 27 27 27 26 26 26 26 25 24 24 23 23 23 22 22 22 21 21 18 19 20 17 15 12 13 10 14 14 18 15 14 14 15 15 15 14 13 12 12 11 11 11 7
28 27 26 25 24 24 25 25 25 25 24 24 24 24 23 23 23 20 17 21 22 21 18 15 13 12 11 17 17 16 16 14 14 14 14 13 13 12 10 10 9 8 6 7
27 26 26 26 25 23 22 24 24 24 24 24 25 25 24 21 21 22 21 19 19 19 17 16 13 10 9 16 16 15 14 13 13 13 13 11 12 11 11 9 7 7 6 4
26 26 27 25 24 24 24 24 24 24 23 22 22 23 22 24 22 21 20 18 18 20 14 11 10 9 15 15 14 12 12 12 12 9 8 9 9 8 7 7 7 6 4 0
22 22 21 22 23 24 23 21 21 24 22 21 22 22 22 22 21 19 18 17 16 15 15 16 13 13 13 12 10 10 11 11 10 10 8 7 6 5 5 6 5 4 3 2
19 20 18 18 19 19 18 19 18 17 19 21 19 20 20 20 18 17 18 16 16 16 15 14 14 12 12 9 9 9 8 9 8 8 6 5 5 4 4 4 3 1 -1 -2

GFSNGP_sfc_dewp_057.txt.gz
Dewpoint
25 26 26 27 27 25 24 27 29 30 30 30 30 28 28 32 31 31 31 41 45 46 48 50 53 57 56 57 57 57 56 55 53 52 52 50 48 48 47 47 46 45 44 44
25 25 26 27 28 27 24 28 29 30 29 32 29 29 29 29 31 30 26 32 42 47 50 52 55 56 55 54 54 54 53 53 52 51 50 48 47 46 45 44 43 43 43 42
25 26 25 26 26 26 27 25 25 23 24 25 27 26 31 28 30 30 28 27 31 47 51 53 56 56 55 54 53 52 52 52 51 50 48 47 45 44 43 42 42 41 40 40
28 29 24 27 27 25 25 25 23 21 21 21 22 23 25 27 28 30 30 37 50 51 54 57 57 55 55 52 52 51 49 48 48 46 45 44 42 43 42 41 41 41 42 42
28 28 28 27 25 26 25 25 24 23 22 22 21 26 31 31 33 37 41 45 49 52 54 52 52 51 50 48 47 45 45 44 44 43 42 42 42 42 42 42 41 41 41 40
31 27 24 30 31 32 31 25 29 30 28 28 25 27 28 34 42 44 45 46 47 49 49 50 50 48 46 44 44 44 43 43 42 42 42 42 42 41 41 40 41 40 37 35
32 32 32 32 31 34 26 27 32 32 31 31 29 32 33 40 42 42 42 43 45 45 46 46 45 45 43 43 42 42 42 42 42 42 41 41 40 39 40 37 33 32 32 32
33 30 28 38 35 27 31 33 35 34 32 29 37 37 38 40 40 40 40 42 43 43 43 43 42 42 41 40 41 41 41 41 41 40 40 39 38 37 34 33 31 30 30 29
34 33 39 39 43 42 42 41 39 38 38 41 40 38 39 39 40 39 39 40 41 41 41 41 40 40 39 40 41 40 40 39 39 38 37 37 30 31 32 31 28 27 27 26
35 35 32 34 40 41 44 43 44 39 43 46 45 42 40 39 39 38 39 39 40 41 40 40 41 39 40 40 39 38 37 37 35 31 29 25 27 26 25 24 25 26 25 25
34 36 37 36 36 40 41 44 41 42 37 41 45 44 41 39 39 38 38 39 40 40 40 39 39 39 38 38 37 35 32 29 28 25 21 23 25 22 20 23 26 23 24 24
35 38 37 38 41 42 42 39 40 40 41 38 41 40 39 39 39 38 38 39 40 39 38 37 36 36 36 35 32 30 26 25 25 25 22 19 21 20 23 22 22 22 23 23
27 35 35 38 39 40 40 41 41 41 42 40 41 40 39 38 38 37 39 39 38 35 32 28 23 23 27 29 27 26 25 25 25 24 23 23 22 21 21 23 23 22 20 19
41 40 39 40 39 39 39 40 40 40 40 39 39 40 39 38 38 38 37 35 32 25 22 20 20 20 22 23 24 25 25 26 25 25 25 24 24 25 24 23 22 22 21 19
39 40 39 39 39 38 38 38 38 38 40 40 40 39 38 37 36 34 32 25 21 20 19 19 19 19 23 25 24 25 25 25 24 24 25 25 25 24 23 23 22 22 23 21
40 40 40 40 39 37 37 37 37 37 35 33 29 28 27 26 24 24 23 22 20 18 17 20 20 22 23 23 23 23 25 26 25 25 25 24 23 22 21 21 21 21 20 19
38 37 37 38 39 37 36 35 33 31 29 28 26 25 24 23 23 22 22 22 22 21 22 22 23 25 26 26 24 23 23 23 24 24 22 21 21 20 19 19 19 19 17 14
35 35 35 35 35 34 32 31 29 28 26 25 24 23 22 21 20 20 21 21 21 20 21 22 22 23 24 24 24 23 23 23 22 20 20 19 17 17 18 17 17 16 16 15
31 31 31 31 31 30 28 26 26 25 25 23 22 21 21 21 21 20 20 19 18 17 19 21 22 21 21 22 22 21 21 20 19 18 17 16 17 18 17 16 14 14 14 14
29 28 27 27 27 26 25 25 25 24 24 23 22 21 19 20 20 19 19 17 19 19 21 20 19 18 19 20 20 19 19 18 16 17 17 14 14 13 13 14 14 12 10 9
26 25 25 24 24 24 24 25 23 22 23 22 20 19 19 20 20 19 17 15 19 21 21 20 19 17 14 15 18 19 17 16 15 15 13 12 11 11 10 9 8 7 5 7
24 24 24 24 23 23 24 24 23 23 22 22 22 21 19 19 18 18 19 17 20 20 18 16 14 13 12 18 18 17 16 14 13 13 12 10 7 4 3 2 2 3 2 -3
25 24 23 23 22 22 23 23 23 22 21 21 21 21 21 21 20 17 16 21 20 17 15 14 12 10 12 16 15 13 12 10 9 8 8 9 8 5 0 -2 1 -4 -7 -3
25 24 24 24 22 20 21 22 23 22 21 21 21 23 20 18 18 20 19 17 16 16 14 12 10 9 9 11 10 8 6 3 3 4 3 0 -3 -2 2 -1 -1 0 -2 -6
21 21 23 23 22 22 23 23 21 20 19 19 19 19 19 19 17 17 17 16 15 12 10 8 7 6 9 8 7 4 1 2 4 0 4 1 -2 -8 -10 -6 -1 -2 -4 -6
19 18 18 18 17 18 18 16 16 19 17 17 17 18 18 18 17 15 14 12 12 11 13 4 3 5 -1 -3 -6 -7 -5 -1 2 -1 -6 -8 -11 -11 -8 -3 -3 -4 -8 -14
16 15 15 15 14 13 13 14 13 13 16 15 13 14 15 14 13 14 10 9 10 7 4 3 8 8 6 3 3 -1 -7 -8 -7 -3 -3 -11 -15 -16 -9 -8 -12 -17 -19 -20

GFSNGP_sfc_dewp_060.txt.gz
Dewpoint
27 24 24 27 26 26 23 27 26 27 30 31 33 32 32 29 30 28 29 40 43 45 46 52 56 56 55 56 57 58 58 58 57 58 55 53 52 51 49 48 48 47 46 46
28 27 24 23 26 27 26 26 27 28 31 32 32 32 31 31 31 29 29 35 43 45 48 55 56 55 55 55 58 58 57 56 54 53 51 50 49 49 47 46 46 45 44 44
30 26 25 25 26 25 28 30 29 28 30 33 32 31 31 30 30 30 30 31 42 46 49 55 55 55 54 54 55 55 54 53 52 50 49 48 47 46 45 44 44 44 43 42
31 28 25 26 30 28 28 28 28 27 25 29 28 28 29 31 29 30 30 29 36 46 50 55 55 54 53 53 53 52 52 51 50 48 46 45 45 44 45 44 42 41 41 40
31 29 28 30 30 29 28 25 27 25 23 22 23 25 28 30 31 30 32 36 45 49 53 56 55 54 52 52 52 50 49 49 48 46 45 45 43 42 41 40 40 40 41 40
31 28 26 29 30 32 30 26 29 27 28 28 27 25 27 31 38 42 46 50 52 52 52 52 52 51 51 49 48 47 47 46 46 46 44 43 41 40 40 41 41 41 39 37
31 30 32 35 38 32 27 26 31 32 31 30 29 31 30 38 43 45 47 49 49 51 51 48 48 48 46 45 45 45 44 44 42 42 42 41 41 41 40 38 35 34 31 29
32 31 27 39 39 32 36 41 42 42 38 35 32 35 37 41 42 43 45 46 48 48 47 46 46 45 43 43 43 43 44 42 41 41 41 40 40 39 34 32 31 30 27 26
31 31 36 41 40 44 43 41 43 43 42 44 38 37 39 41 42 43 44 43 45 44 43 43 43 42 40 41 41 41 41 40 40 40 39 38 37 34 32 31 30 28 26 24
36 34 36 36 40 42 42 40 42 41 42 41 43 40 40 40 40 41 41 41 41 42 41 40 40 40 41 41 41 40 39 39 38 34 29 29 28 29 29 27 28 27 26 24
33 34 35 35 37 38 36 41 41 40 40 41 40 42 39 40 40 39 39 41 41 41 40 39 40 40 40 39 39 38 35 29 26 27 25 22 20 22 24 25 26 26 25 25
30 35 34 35 33 38 37 36 38 39 40 40 41 42 42 40 39 39 40 41 40 39 38 37 37 38 37 37 34 30 27 24 25 24 23 17 17 21 25 25 26 25 25 24
38 40 38 39 39 39 40 39 41 41 41 40 42 42 41 39 40 38 40 38 36 29 28 27 28 29 30 30 28 26 24 24 24 24 23 22 22 22 22 24 24 23 23 24
39 41 40 38 38 39 38 38 40 40 41 40 41 41 40 39 39 37 32 26 24 23 23 23 24 25 26 26 25 25 25 26 25 25 25 26 25 24 24 23 23 23 24 21
38 39 40 39 38 37 38 38 37 33 31 30 32 38 37 34 28 25 23 21 20 20 21 22 23 25 26 26 25 25 25 25 26 26 26 26 25 25 25 25 25 24 24 22
38 38 38 38 36 35 36 34 32 30 28 27 26 25 24 23 22 21 21 21 21 21 23 24 24 26 28 28 27 26 26 26 25 25 24 24 24 24 24 23 22 21 21 18
35 35 36 37 34 32 30 29 28 27 26 25 24 24 23 22 21 21 22 22 23 23 24 23 24 26 25 25 24 24 24 24 24 23 23 22 22 21 21 20 20 19 17 16
32 33 34 34 33 31 29 27 26 25 24 23 23 22 21 21 20 20 20 20 19 19 20 22 23 23 23 24 23 23 23 22 22 21 21 19 19 20 19 18 18 16 16 15
28 27 27 27 27 25 24 23 23 23 23 22 21 20 20 19 19 19 19 18 17 16 18 20 22 21 21 22 21 21 20 20 20 19 18 17 17 18 16 16 15 15 15 14
24 25 25 25 25 25 23 24 23 22 22 21 20 19 18 18 18 18 18 16 18 18 20 20 19 19 20 20 20 19 18 18 18 17 16 15 15 14 14 14 14 12 11 10
23 23 23 22 22 23 23 23 22 21 21 21 19 18 18 19 19 18 16 14 17 18 17 17 17 17 18 19 18 17 16 15 14 14 12 12 12 11 10 9 8 7 5 4
23 22 22 22 22 22 23 23 23 22 21 20 20 19 18 17 17 18 18 15 16 16 15 14 14 15 17 17 16 14 13 12 12 12 10 9 7 6 4 1 -0 -0 -3 -8
23 23 23 22 21 21 22 21 21 21 20 20 19 19 18 18 19 16 12 16 15 14 13 12 13 14 14 12 11 9 9 8 7 4 2 0 -0 -1 -2 -0 0 -1 -8 -6
22 23 23 24 22 20 19 20 20 20 19 20 19 19 17 15 15 16 15 14 12 11 11 12 12 11 9 8 6 4 3 2 -2 -8 -6 -8 -13 -13 -14 -17 -13 -13 -7 -6
19 18 19 18 17 18 20 18 17 17 16 16 17 17 16 16 14 15 13 12 11 9 7 5 3 0 -2 -4 -4 -5 -7 -8 -8 -9 -12 -16 -18 -20 -20 -17 -15 -12 -13 -15
17 15 15 15 15 15 15 15 15 15 14 13 13 13 14 14 13 12 11 9 9 8 8 7 5 1 -2 -2 -7 -12 -14 -10 -12 -13 -18 -19 -20 -19 -19 -18 -19 -20 -22 -24
12 13 12 10 10 11 11 11 10 10 9 6 6 8 8 9 9 8 5 3 0 -1 -2 -6 -6 -6 -8 -13 -13 -15 -14 -14 -12 -13 -18 -22 -22 -21 -21 -22 -24 -26 -27 -24

GFSNGP_sfc_dewp_063.txt.gz
Dewpoint
36 35 32 29 26 24 23 26 25 25 27 28 31 32 31 32 32 29 27 36 40 42 43 45 48 50 50 51 53 54 55 56 56 57 57 57 57 57 54 55 54 53 49 47
32 34 32 30 25 23 26 26 26 26 27 31 32 33 33 33 32 30 28 29 39 43 45 48 52 52 50 51 53 55 56 56 56 56 57 57 55 52 50 49 49 47 46 45
27 33 30 27 29 26 24 25 28 26 28 30 32 32 32 32 32 31 30 29 34 43 45 49 54 54 54 55 54 55 55 55 56 56 53 52 50 50 48 47 48 46 44 44
29 30 24 32 30 30 26 26 29 29 29 30 31 32 33 33 32 32 31 31 31 38 46 51 53 53 54 56 56 56 56 55 54 52 51 50 49 47 46 46 44 43 44 44
26 27 28 26 30 29 29 26 28 28 28 27 25 25 24 27 29 32 33 32 32 38 47 53 53 53 54 55 55 54 53 52 51 50 48 47 45 45 45 43 43 42 42 41
31 26 21 22 29 26 34 28 30 30 29 28 27 25 26 28 32 33 32 38 45 51 52 53 52 52 52 52 52 52 51 51 49 48 46 44 44 44 42 42 42 41 39 39
30 27 30 33 39 41 33 31 41 41 39 31 29 30 31 31 36 42 45 49 50 52 52 52 52 52 49 50 50 49 48 47 46 45 44 43 41 41 41 40 37 34 32 32
29 27 25 39 36 35 38 40 42 41 41 41 40 37 35 35 38 44 46 49 50 50 48 48 50 49 46 45 45 45 44 43 43 42 41 41 40 38 36 34 32 29 28 27
30 30 35 38 38 40 42 44 40 43 41 41 40 40 39 39 42 44 46 47 48 46 45 45 46 46 44 42 43 43 42 42 41 41 40 39 36 34 33 32 30 28 27 25
32 32 32 33 38 40 44 43 43 42 42 40 39 40 40 40 41 42 43 44 44 44 44 42 42 42 42 42 42 41 40 39 37 34 33 33 33 32 31 31 29 26 25 23
26 31 32 36 35 37 39 42 41 43 42 40 41 39 41 41 40 41 41 42 43 43 41 40 41 41 41 41 40 39 35 32 30 28 26 25 25 26 27 28 29 27 26 23
30 38 39 37 37 39 39 39 40 40 39 39 41 41 41 41 41 40 41 41 40 39 39 39 39 39 39 39 37 32 29 29 28 25 24 22 22 22 27 28 28 28 27 25
38 39 39 41 39 39 39 40 41 41 39 40 40 41 41 39 40 39 39 35 33 32 31 31 30 30 31 32 31 29 27 26 24 23 22 22 21 21 21 24 25 25 24 24
39 39 40 41 39 39 39 38 35 32 31 30 33 39 39 38 33 29 26 26 26 26 26 26 26 26 27 27 27 27 26 26 25 24 24 25 25 25 25 24 22 23 25 25
35 39 39 39 36 35 34 33 31 29 27 26 25 25 25 23 22 22 23 23 24 25 26 26 26 26 26 27 26 27 26 27 27 27 27 27 27 26 26 25 25 23 23 24
34 37 38 35 33 33 30 31 28 26 25 24 23 22 22 22 23 23 23 24 24 23 24 24 24 27 28 28 27 26 26 26 26 25 25 25 25 24 24 23 22 22 21 19
33 33 33 35 32 30 28 27 26 24 24 23 22 22 21 20 20 20 20 21 21 21 22 23 23 25 25 26 25 24 24 23 23 23 22 21 21 21 21 20 19 19 17 17
32 29 28 28 28 26 25 25 24 23 23 23 22 21 19 19 18 19 19 19 19 19 20 21 22 23 23 23 23 23 22 21 20 19 19 19 19 19 18 18 17 16 16 16
25 24 24 23 23 22 21 21 21 22 21 21 19 18 18 18 18 17 18 16 16 15 17 20 22 21 21 21 20 20 20 19 18 17 17 17 16 16 15 15 15 14 14 13
23 23 22 22 23 22 21 21 21 20 21 20 19 17 16 16 17 16 15 14 15 16 18 19 19 19 19 19 19 17 16 16 16 15 15 14 13 12 13 12 12 11 10 9
21 21 21 21 20 21 21 21 19 18 19 18 17 16 16 17 17 16 13 11 14 16 17 17 17 17 17 17 16 15 15 14 13 11 10 10 9 8 7 6 6 5 2 -1
21 21 20 20 19 19 21 21 20 20 19 18 18 17 16 14 14 13 14 12 14 15 15 15 15 14 13 13 12 11 11 10 9 8 7 6 3 1 -2 -3 -5 -6 -8 -10
22 22 21 20 19 19 19 19 19 18 17 17 16 16 15 16 16 11 9 14 14 14 13 12 10 9 9 9 8 7 6 4 3 1 -1 -4 -7 -10 -11 -11 -11 -14 -16 -11
20 21 21 22 21 17 16 18 18 18 17 17 16 16 15 12 12 13 12 11 10 9 8 7 5 5 4 3 2 -1 -2 -4 -9 -13 -11 -15 -19 -18 -20 -21 -19 -22 -20 -18
17 17 17 16 16 16 16 15 14 14 13 13 14 14 14 13 10 11 10 9 9 6 4 0 -0 -2 -5 -7 -9 -13 -15 -16 -19 -19 -21 -22 -24 -25 -25 -23 -23 -22 -24 -25
13 12 12 13 13 13 13 12 10 10 9 8 8 8 9 10 9 7 5 3 3 1 -0 -7 -9 -10 -11 -12 -19 -20 -18 -12 -17 -19 -22 -24 -25 -23 -24 -24 -26 -26 -28 -30
10 10 9 8 9 9 9 8 6 5 3 -1 2 5 6 5 1 0 -6 -7 -9 -10 -13 -16 -16 -14 -17 -21 -19 -19 -19 -19 -20 -21 -27 -26 -26 -27 -28 -28 -29 -31 -32 -31

GFSNGP_sfc_dewp_066.txt.gz
Dewpoint
37 35 35 34 31 31 30 24 23 24 24 26 28 29 30 31 31 31 30 29 34 39 44 48 49 50 50 51 51 51 51 52 52 53 53 52 53 54 54 56 57 57 55 52
32 33 31 30 28 30 31 27 26 26 25 28 30 31 32 32 32 32 32 31 31 38 40 43 48 49 50 51 52 52 52 52 54 54 55 55 55 56 56 56 56 55 52 52
25 31 29 23 31 26 26 30 29 25 27 29 30 32 32 32 33 33 33 32 31 35 41 43 44 49 50 50 52 52 53 53 54 55 55 55 56 56 54 54 52 49 48 48
26 27 21 21 33 29 31 26 24 25 28 29 29 30 32 33 33 34 33 33 32 32 41 44 47 52 52 52 52 53 53 54 54 55 55 53 52 51 49 48 48 47 47 45
23 25 25 24 22 27 26 23 25 31 32 29 29 29 26 27 32 34 34 34 34 33 37 45 51 52 54 54 53 53 53 53 54 54 52 50 49 47 46 45 45 44 44 43
29 23 17 21 33 40 38 26 39 40 39 38 36 28 28 30 29 30 32 33 33 35 47 50 51 53 53 54 54 54 54 53 52 51 49 48 46 45 44 44 42 41 40 40
30 28 27 31 36 41 32 26 37 40 40 39 37 34 36 35 34 33 41 44 47 49 49 50 52 54 53 53 52 52 51 50 48 47 45 45 43 43 42 40 38 35 34 34
29 28 24 35 35 30 36 37 34 37 40 40 40 40 39 39 40 42 44 48 49 49 49 51 51 52 51 50 48 47 47 46 45 43 42 42 41 39 37 35 33 31 30 29
29 27 32 36 33 37 37 35 35 41 39 38 41 39 39 40 40 43 46 47 47 46 46 47 48 48 46 45 45 46 44 43 42 41 40 39 37 36 34 34 32 31 29 26
30 29 31 31 33 36 38 38 38 42 39 42 41 41 40 40 41 41 44 44 45 45 43 43 44 44 44 43 44 44 41 39 38 37 36 36 36 35 33 32 31 29 27 24
28 27 34 29 36 40 40 40 42 44 41 39 40 41 42 42 41 41 42 43 43 42 41 41 42 43 44 43 42 39 36 34 33 31 30 28 28 30 31 31 31 30 27 24
24 37 37 37 39 40 39 40 41 41 41 39 38 38 40 41 43 42 41 40 39 39 40 39 40 40 40 40 37 34 32 31 31 30 29 27 27 27 30 29 29 28 26 25
36 38 38 38 40 38 39 36 34 32 31 31 32 32 39 36 32 32 31 30 29 29 29 28 28 28 31 33 33 32 30 28 27 27 26 25 25 24 22 27 29 29 28 27
37 36 37 38 37 34 34 33 31 28 28 25 26 26 25 24 25 26 27 29 28 27 27 26 26 27 28 29 29 28 28 28 27 27 26 25 25 25 25 24 22 23 26 25
33 34 38 36 33 31 31 29 27 25 24 23 24 24 24 23 23 25 25 25 25 26 26 27 27 27 28 28 27 27 27 27 27 27 27 27 27 26 25 24 23 22 24 24
32 34 35 34 32 30 28 27 26 25 24 22 22 21 21 21 21 21 21 22 21 21 22 23 23 26 27 27 26 26 25 25 25 25 25 24 24 24 23 23 23 22 21 18
29 30 29 30 28 25 25 25 24 23 22 22 21 21 20 19 19 18 19 20 20 20 21 21 21 23 24 24 24 23 22 22 22 21 21 21 21 20 20 19 18 17 16 17
29 27 26 27 26 24 22 22 21 20 20 20 19 18 17 16 16 16 17 18 18 17 19 20 21 21 21 22 22 21 20 19 19 19 19 18 18 18 17 16 16 15 15 15
24 23 24 23 24 22 20 19 20 20 19 18 16 15 15 15 15 15 16 15 15 14 16 19 21 19 19 20 19 18 18 17 16 16 16 15 15 15 14 13 12 12 11 11
21 21 21 21 22 20 19 20 20 19 19 18 16 14 14 14 14 14 13 12 14 16 18 18 17 16 17 17 17 15 15 15 13 13 13 11 10 9 10 10 9 8 6 5
19 20 20 19 19 19 19 19 17 16 17 16 14 13 12 13 14 14 11 9 14 16 15 15 15 14 14 14 13 13 12 11 9 8 7 6 4 4 2 2 1 -2 -5 -8
20 19 19 19 18 18 19 19 18 18 17 16 15 14 13 12 12 11 13 11 13 13 12 11 11 10 10 10 9 9 8 7 6 5 3 2 -2 -7 -12 -12 -13 -12 -14 -13
20 20 19 18 17 17 18 17 16 16 15 14 13 13 12 13 13 9 7 12 10 8 7 7 7 6 6 5 4 2 1 -0 -1 -4 -8 -13 -16 -19 -18 -20 -21 -20 -20 -16
19 20 19 20 19 16 14 16 16 16 15 14 13 13 11 9 9 10 8 6 4 3 4 3 2 1 -1 -1 -3 -7 -9 -11 -14 -17 -16 -20 -26 -25 -25 -25 -22 -26 -25 -24
17 17 17 16 14 14 13 12 11 10 10 10 10 10 10 10 7 7 6 5 5 1 -2 -5 -6 -8 -10 -14 -15 -17 -19 -20 -24 -23 -25 -26 -28 -28 -29 -28 -28 -28 -29 -30
13 11 11 11 11 11 9 8 7 8 7 5 5 5 4 5 3 2 -0 -2 -2 -6 -8 -14 -16 -17 -19 -19 -23 -23 -20 -17 -22 -23 -27 -27 -27 -26 -28 -27 -30 -30 -32 -33
8 8 8 7 7 6 6 5 3 2 -1 -6 -0 3 2 -2 -5 -5 -11 -13 -16 -17 -19 -22 -21 -19 -21 -24 -23 -23 -23 -24 -25 -25 -31 -30 -29 -31 -31 -32 -34 -35 -36 -36

GFSNGP_sfc_dewp_069.txt.gz
Dewpoint
31 32 35 32 31 28 24 28 29 28 25 25 28 29 30 32 34 33 33 34 34 38 41 47 50 51 51 51 52 52 52 52 52 53 53 53 53 53 53 53 53 54 55 57
33 34 33 31 30 28 26 29 28 27 27 29 29 30 31 32 33 33 33 34 34 35 38 43 48 50 51 52 52 52 52 52 52 52 53 52 52 53 53 54 55 57 58 57
27 31 30 25 28 27 28 28 29 26 27 27 28 30 31 33 34 34 35 35 36 36 36 40 44 50 51 52 52 52 52 52 52 53 53 54 53 52 54 55 56 57 57 55
29 28 20 20 27 29 29 29 29 27 28 36 36 36 33 32 34 36 35 35 36 37 38 40 44 46 51 51 52 52 52 52 52 54 54 54 55 55 55 56 56 54 52 50
28 26 24 22 21 23 26 24 35 38 38 39 38 37 34 35 36 35 35 36 36 36 38 39 43 46 48 50 51 52 52 53 53 54 54 55 55 54 49 49 47 47 46 44
31 24 21 22 29 38 33 25 36 37 36 38 38 36 37 40 41 41 38 33 33 35 36 38 44 51 50 51 51 51 52 53 54 55 55 53 51 47 46 46 44 43 42 41
30 27 28 30 31 41 26 27 36 36 35 38 36 37 40 42 41 41 43 42 48 47 44 46 51 53 53 54 53 53 54 53 52 51 50 48 45 45 43 41 39 37 35 36
29 27 23 32 35 29 30 36 36 36 36 40 40 41 41 40 40 41 43 48 50 50 50 51 52 53 53 52 50 50 49 48 47 46 45 45 43 40 38 36 34 32 31 30
31 29 33 36 37 36 38 37 38 37 38 39 40 39 40 40 41 41 44 47 47 49 48 49 50 51 47 47 48 47 45 44 44 43 42 42 40 38 35 34 32 31 29 28
29 27 28 28 33 40 40 40 41 41 40 40 41 40 41 41 43 41 43 45 46 46 45 44 46 46 46 46 45 44 42 41 40 39 38 37 36 35 34 33 32 30 28 26
27 29 34 31 38 40 39 40 38 37 38 40 39 39 40 41 41 42 41 42 42 42 42 41 43 44 44 43 42 40 38 36 35 34 32 31 31 33 33 33 33 31 29 27
27 36 36 36 38 39 37 36 34 32 31 31 31 33 39 33 33 31 33 35 36 34 33 32 32 33 36 38 38 36 34 33 33 33 31 30 29 28 30 29 30 30 28 26
35 36 37 38 40 34 34 34 32 30 27 27 27 27 29 29 28 29 29 30 30 30 30 29 29 29 30 32 33 32 31 30 29 29 28 27 26 25 24 28 30 29 29 28
33 35 37 37 36 33 31 30 29 27 25 26 27 27 26 27 27 26 26 26 26 27 28 29 29 29 30 30 29 28 28 28 27 27 26 25 25 25 25 24 23 24 27 27
30 32 34 36 33 30 29 28 26 25 24 23 24 24 24 23 22 22 23 22 22 23 24 25 25 26 29 29 29 28 27 27 27 27 27 27 27 26 25 25 25 24 24 25
27 30 33 33 28 27 27 26 25 24 24 22 21 20 20 19 19 19 19 19 19 19 20 21 22 24 26 26 25 24 24 25 25 25 25 25 26 26 25 24 23 22 20 20
25 25 26 28 26 25 25 25 25 23 22 21 21 20 18 17 17 18 18 19 19 19 20 20 20 22 23 23 23 22 22 22 23 23 22 23 23 22 22 21 20 19 19 19
25 25 25 25 24 23 22 22 22 20 18 19 19 18 17 16 16 16 18 19 17 17 18 20 21 21 21 22 22 22 21 20 20 20 20 20 19 19 19 18 17 16 16 15
22 21 22 21 21 21 20 19 19 18 18 17 15 14 14 14 15 15 16 15 15 14 16 19 20 18 19 20 19 19 18 18 17 17 16 16 16 15 15 14 14 13 13 12
20 21 19 19 20 19 18 19 18 17 18 16 15 14 13 14 15 14 14 12 14 15 16 16 16 16 16 16 16 15 16 15 13 13 13 12 13 12 11 9 10 10 10 9
20 19 19 18 18 19 19 18 16 15 15 15 13 12 12 13 14 14 12 9 13 14 14 13 13 12 11 11 11 13 12 11 10 9 8 8 8 7 7 7 6 6 6 7
19 18 18 17 16 16 18 18 17 16 16 15 15 14 13 12 12 10 11 10 10 9 8 8 7 7 7 7 7 8 7 6 6 6 5 4 4 3 2 3 2 3 3 2
20 19 18 17 16 16 16 16 15 15 13 13 12 11 11 11 10 7 4 7 6 6 5 6 5 4 5 7 6 5 4 3 2 2 2 1 1 1 0 -0 -0 -0 -1 -2
19 18 18 18 17 15 13 15 15 14 14 12 12 11 9 8 8 7 6 4 3 4 5 4 3 1 2 4 3 2 2 1 0 1 -1 -4 -2 -2 -2 -3 -4 -3 -4 -5
16 16 16 15 13 12 13 12 9 9 8 8 8 8 8 8 7 6 6 4 3 1 2 -3 -3 -3 1 2 1 -0 -1 -1 -2 -2 -2 -2 -3 -4 -3 -4 -6 -6 -7 -7
13 11 11 11 10 9 8 8 7 8 7 6 6 6 5 5 4 3 2 -0 -1 -3 -3 -2 -3 -1 -0 -1 -2 -3 -2 -2 -2 -3 -4 -4 -4 -5 -6 -7 -9 -9 -10 -11
9 9 7 6 5 5 5 5 6 4 4 4 3 4 2 2 0 -0 -3 -1 -2 -3 -3 -3 -3 -3 -2 -1 -2 -2 -2 -2 -8 -4 -4 -4 -6 -7 -9 -10 -11 -12 -12 -13

GFSNGP_sfc_dewp_072.txt.gz
Dewpoint
27 25 26 26 25 25 25 26 26 26 26 27 27 28 29 30 31 31 30 31 32 34 36 42 48 50 51 52 53 54 54 54 55 55 54 54 54 54 54 54 53 53 54 55
24 24 24 25 23 24 23 23 26 28 25 27 29 27 27 28 30 30 31 32 32 34 34 36 41 47 50 51 53 53 53 53 54 54 54 54 54 54 55 54 54 54 55 54
22 27 26 24 25 22 22 21 26 24 23 28 28 29 32 35 36 32 32 33 34 33 35 37 38 44 48 50 52 52 52 52 53 53 53 54 54 53 53 54 55 55 54 53
27 29 20 19 23 24 25 23 23 22 28 32 34 37 37 37 38 39 39 38 36 35 35 36 38 40 46 47 50 52 51 51 52 52 52 53 53 53 54 54 54 55 56 56
25 21 19 18 18 19 18 16 28 27 30 33 34 36 34 38 39 41 41 41 41 38 36 36 37 38 42 46 48 50 51 51 51 52 52 53 53 54 55 55 56 56 55 54
28 21 20 21 28 33 30 20 29 31 30 31 33 33 34 38 40 40 40 41 44 44 44 41 40 40 40 43 45 48 51 51 51 52 53 54 55 55 52 54 50 45 43 43
27 27 24 25 23 36 25 29 31 31 31 31 32 34 38 40 38 39 40 41 47 49 49 49 50 48 46 45 46 47 49 52 52 53 54 55 52 51 48 43 41 39 38 37
29 25 24 29 32 29 35 34 33 34 35 36 36 38 38 39 40 40 41 43 47 49 49 50 52 52 49 50 53 53 54 53 53 52 49 49 47 44 43 40 36 34 33 32
26 26 32 35 34 33 39 38 38 40 39 40 40 39 38 39 41 41 42 43 47 47 45 44 46 50 50 50 51 50 49 48 46 45 44 44 42 40 38 37 34 32 31 29
27 25 26 26 31 38 39 39 39 38 38 39 40 42 41 42 41 40 40 40 42 44 41 39 39 41 45 46 45 45 43 42 41 40 38 39 38 37 35 34 32 31 29 27
25 26 26 26 33 38 39 39 38 36 35 34 35 37 37 39 36 36 36 35 36 37 37 36 36 35 36 40 41 39 38 36 35 34 32 31 31 33 34 34 33 31 29 27
24 34 35 34 36 39 38 38 36 34 33 32 32 32 34 33 32 33 32 32 32 32 32 33 32 31 32 34 36 36 34 34 33 32 31 30 28 28 30 30 31 30 29 27
34 35 36 37 37 37 36 36 34 32 30 30 31 31 31 31 29 29 28 27 28 28 29 29 30 31 31 32 31 31 31 31 31 30 29 28 27 26 25 28 29 29 29 29
32 34 34 36 36 33 32 33 32 29 28 27 28 29 30 30 27 26 25 24 25 25 25 27 29 28 30 32 31 30 29 29 28 28 27 27 27 26 26 24 23 25 28 28
29 29 30 34 31 28 29 28 27 25 25 24 24 24 24 24 22 22 21 21 21 21 22 23 24 25 28 28 28 28 27 27 28 28 27 27 27 26 26 25 25 25 25 26
26 28 29 29 27 27 27 25 24 23 23 22 23 22 22 20 19 18 19 19 17 18 19 20 21 24 26 27 27 26 26 26 27 27 27 28 27 26 26 25 24 23 23 23
26 26 26 26 26 25 25 25 24 22 21 20 21 22 21 20 19 19 19 20 19 19 20 21 21 24 26 27 27 27 26 26 25 25 25 25 25 25 24 24 22 20 20 22
23 23 24 24 24 23 22 22 21 20 18 18 18 18 17 17 16 17 18 19 19 18 21 22 23 23 23 25 25 25 24 23 23 23 23 22 22 22 22 21 19 18 18 18
21 21 21 21 22 21 21 19 19 19 19 18 17 16 17 17 17 17 17 17 17 16 18 20 19 19 20 22 22 22 21 21 20 19 19 19 19 18 18 18 17 17 16 15
20 20 20 20 21 19 18 19 19 18 18 18 17 17 16 16 17 16 14 14 14 15 16 17 17 16 16 17 17 17 18 17 15 16 17 16 16 16 14 12 13 13 13 13
20 19 19 19 19 19 18 18 17 16 16 17 15 14 13 13 15 16 14 11 13 12 11 10 10 9 8 9 11 15 15 15 14 14 13 14 13 11 11 11 11 11 11 10
20 19 18 18 17 17 18 18 17 17 16 16 16 16 14 13 12 10 10 9 8 7 7 7 7 8 7 8 9 12 10 9 10 10 10 9 9 9 8 8 7 8 8 7
20 20 19 18 17 17 17 16 16 15 14 13 13 12 11 10 10 9 7 7 7 6 6 7 6 6 6 11 10 9 8 7 7 7 7 7 7 6 5 4 5 4 4 4
20 19 19 19 19 16 15 16 16 15 13 12 12 12 10 11 11 8 7 5 4 5 6 6 6 5 5 9 8 7 7 7 6 6 5 2 6 4 3 2 2 4 2 0
18 18 18 18 16 15 15 12 10 9 9 8 9 8 8 8 10 9 8 6 3 4 5 2 3 3 7 7 6 5 5 4 4 5 4 4 3 3 3 2 0 0 -0 -0
16 14 14 14 12 11 10 9 10 10 9 9 9 11 10 9 7 6 5 3 3 2 4 5 4 6 5 4 4 3 4 3 3 2 2 2 1 1 -0 -1 -2 -2 -2 -2
13 11 10 9 8 8 9 9 10 9 9 10 8 8 8 8 7 5 4 6 5 4 5 5 5 3 3 4 3 3 3 3 -1 1 2 2 1 1 -2 -3 -3 -3 -4 -5

GFSNGP_sfc_dewp_075.txt.gz
Dewpoint
30 30 26 27 26 25 25 26 26 28 26 26 26 27 28 29 29 29 29 30 31 32 33 35 44 49 50 51 54 55 54 54 55 57 57 56 56 56 56 57 56 56 57 57
28 25 24 23 25 25 23 23 23 23 23 26 25 27 24 25 29 32 34 33 33 33 34 34 35 44 48 50 53 54 55 55 55 55 55 56 57 57 57 56 56 56 56 55
22 19 23 25 23 22 23 25 24 24 28 26 26 25 29 31 34 37 38 38 39 39 38 37 36 38 41 47 50 53 54 54 54 55 55 57 56 55 55 56 57 56 55 55
25 26 20 19 20 20 21 22 22 21 23 26 28 29 30 31 37 38 39 40 40 41 42 40 39 37 39 39 46 52 53 53 53 54 55 55 56 55 56 56 56 56 57 57
26 22 19 16 15 17 18 16 23 23 26 28 29 32 30 36 37 38 39 40 41 42 46 47 44 40 38 38 41 46 51 52 52 53 53 54 55 56 57 57 57 56 56 56
26 21 17 17 25 29 25 20 27 28 28 29 29 28 29 35 37 37 37 40 41 45 48 50 50 50 48 42 40 44 49 51 52 52 53 53 55 56 57 56 55 54 48 47
26 24 21 21 23 28 23 28 31 30 31 32 32 32 34 33 36 37 38 39 44 47 48 48 48 49 51 49 45 43 45 49 51 52 53 53 54 56 56 53 47 42 39 38
28 28 23 24 25 27 36 36 35 35 35 36 36 35 35 35 36 39 39 40 42 45 44 43 41 44 49 51 52 53 54 54 53 54 53 53 55 53 48 45 39 36 34 32
24 24 29 32 34 36 37 36 36 36 35 37 37 37 39 38 40 40 38 38 40 41 39 38 37 38 39 42 45 49 52 49 48 46 46 48 46 42 40 40 38 36 34 31
34 31 35 31 28 35 37 37 37 36 36 37 37 37 38 39 40 38 37 36 37 37 35 34 34 34 36 39 41 41 41 40 39 38 36 37 37 39 39 37 35 32 30 28
23 24 23 24 33 36 37 37 37 36 37 35 35 35 35 37 36 36 34 34 33 33 31 30 32 32 34 36 37 36 35 35 34 32 32 31 31 33 33 33 34 31 30 28
25 36 36 33 35 37 36 36 36 35 34 33 34 33 34 35 33 32 31 31 30 29 30 30 29 29 31 33 34 34 32 31 31 31 30 29 28 27 30 30 30 30 30 28
33 34 35 35 36 35 34 34 34 34 31 30 31 30 30 32 28 30 27 27 26 26 25 26 26 27 29 32 32 31 30 29 29 28 28 27 27 25 24 28 30 30 30 30
32 32 33 34 34 33 32 31 32 30 28 27 26 27 27 25 24 23 24 24 24 23 23 23 24 25 28 29 30 30 29 29 27 27 26 26 26 25 25 24 23 25 29 29
28 29 31 32 30 28 28 28 27 25 24 23 22 21 21 20 19 20 22 24 24 23 23 24 24 25 28 28 27 28 28 28 28 28 28 28 27 26 26 25 24 23 24 25
26 28 28 29 28 27 27 27 25 24 23 22 21 21 21 20 21 20 20 21 19 20 21 21 23 26 29 30 29 28 28 28 29 29 28 28 27 26 25 25 25 24 24 24
26 26 26 26 26 25 25 24 24 22 22 21 21 22 22 21 20 20 21 22 21 22 23 23 24 26 26 27 28 28 28 28 27 26 25 26 25 24 23 22 21 20 20 22
24 23 23 25 25 24 22 21 21 20 20 20 21 21 19 19 18 19 20 21 21 20 22 23 24 23 25 26 25 24 24 24 23 23 23 23 23 23 22 20 19 18 18 19
21 21 22 22 23 22 21 21 20 20 20 20 19 18 17 17 17 17 17 17 17 15 18 21 19 20 21 22 21 22 22 21 20 20 20 19 20 20 20 19 18 18 17 16
21 21 21 21 22 21 20 21 20 19 20 19 19 17 16 18 19 18 16 13 14 12 13 13 13 13 14 16 17 17 19 19 16 16 17 17 17 17 15 14 14 14 14 13
20 20 20 19 19 20 20 20 19 17 18 18 15 14 13 14 13 16 13 9 11 11 10 10 9 9 8 9 11 16 16 16 15 15 14 14 14 13 13 13 13 13 12 11
21 20 20 20 19 18 19 19 18 17 17 17 18 18 17 15 12 10 11 9 8 8 7 7 7 9 9 11 10 13 11 11 12 12 12 12 12 11 11 10 10 10 10 9
21 21 20 19 17 17 18 17 17 16 15 15 14 13 11 10 9 9 6 6 6 6 6 7 7 8 9 13 13 12 11 10 10 10 10 10 10 9 8 7 8 7 7 6
21 21 20 21 20 18 16 18 17 16 13 12 12 13 12 12 11 8 6 5 5 6 6 6 7 7 8 11 11 10 10 10 10 10 8 6 8 7 6 5 5 6 5 3
21 21 21 20 18 16 16 13 10 9 9 9 9 8 8 8 10 8 9 7 5 7 8 4 5 5 9 9 8 8 8 7 7 8 7 7 6 6 6 5 4 2 3 3
18 16 16 17 15 12 11 10 10 10 9 10 10 12 12 10 8 8 8 5 6 5 7 8 7 9 8 7 7 6 7 5 6 5 5 5 5 4 3 1 2 2 2 1
17 16 12 10 9 10 10 10 12 10 11 12 9 10 9 10 8 7 7 8 8 8 8 8 8 5 5 6 6 6 6 6 2 2 4 4 3 3 2 1 1 0 -0 -1

GFSNGP_sfc_dewp_078.txt.gz
Dewpoint
26 32 33 36 34 33 35 35 31 30 31 33 35 33 32 31 31 31 34 36 38 39 40 40 42 50 51 53 55 56 55 54 53 55 56 56 56 56 56 57 57 56 56 55
23 24 33 26 25 24 28 31 25 30 33 35 36 29 26 29 30 36 38 38 39 40 41 42 42 41 48 52 54 55 55 55 54 54 55 56 56 56 56 56 56 56 56 55
20 21 24 25 25 23 23 24 25 23 26 30 28 27 28 29 35 37 38 38 40 40 42 46 47 48 43 41 50 53 54 55 55 55 54 55 56 55 55 55 55 55 55 55
26 25 21 22 21 21 22 23 23 24 25 29 27 29 30 32 37 37 37 38 40 42 45 48 50 50 51 50 42 45 52 53 54 55 55 55 55 55 55 55 55 55 55 55
25 22 19 17 16 16 17 17 21 21 25 28 27 29 33 33 36 38 38 39 43 47 48 48 47 47 49 50 50 49 42 52 53 54 54 55 55 55 55 55 55 55 55 54
28 22 18 19 16 25 23 19 28 29 30 29 29 31 34 34 34 37 39 43 44 46 45 44 42 43 46 48 49 49 51 54 51 53 54 54 55 55 56 56 55 55 54 51
28 25 22 19 30 29 24 29 32 31 33 34 34 35 36 36 35 39 39 40 42 43 42 40 39 40 41 42 42 44 48 53 52 52 53 54 54 55 56 56 50 43 38 37
28 25 23 26 27 30 38 39 37 36 35 36 36 36 37 36 39 40 38 37 38 40 39 37 36 37 37 37 39 42 44 44 45 45 46 52 53 50 49 45 39 36 34 32
25 25 29 34 38 37 37 37 37 37 35 36 36 35 36 37 40 38 36 35 36 36 36 34 34 34 35 36 39 38 37 36 35 36 38 42 44 43 42 41 38 35 33 31
33 28 31 41 39 37 35 36 35 35 35 35 35 36 35 36 36 35 34 33 33 33 32 32 32 31 32 34 36 35 34 33 32 32 31 32 36 37 36 35 34 33 31 29
35 37 36 39 40 36 35 36 35 34 34 33 33 33 34 35 32 32 30 30 30 29 29 28 28 29 30 32 34 33 32 32 31 30 29 28 28 30 31 32 34 31 29 29
35 35 38 37 35 35 34 34 34 34 32 31 31 30 31 29 28 26 26 25 25 25 25 25 25 27 28 31 31 32 30 30 30 29 29 28 27 26 30 30 31 31 30 29
32 31 34 36 33 32 32 32 32 31 29 28 28 27 26 25 23 23 21 21 22 23 24 25 26 26 28 30 30 29 28 28 28 27 27 27 26 25 24 28 30 30 30 30
29 30 33 32 31 30 30 30 30 27 26 24 24 23 23 22 21 21 21 22 22 22 24 25 26 27 29 29 29 28 28 28 27 27 26 26 25 25 25 23 21 23 28 28
27 29 31 30 29 28 28 27 27 25 24 22 22 21 20 19 19 20 21 22 22 22 23 23 24 25 30 29 28 28 28 28 28 28 27 27 26 25 25 23 23 23 24 25
26 28 28 28 28 26 25 25 24 23 23 21 21 21 20 19 19 20 21 21 19 19 21 21 22 26 27 27 28 28 27 27 26 26 25 24 23 22 21 20 20 21 22 22
25 25 25 26 26 24 24 23 23 22 21 21 21 22 21 20 20 20 20 20 19 20 21 21 22 24 26 27 25 25 25 24 25 25 24 22 21 20 19 18 17 17 17 19
25 25 25 26 26 24 22 22 21 21 20 21 20 18 17 16 15 16 17 18 17 15 18 20 21 22 23 23 24 24 22 21 20 20 21 21 20 21 20 19 18 16 17 17
23 24 24 24 24 22 21 20 21 20 21 20 18 17 17 16 15 15 15 13 12 11 12 15 17 16 17 19 20 20 19 19 19 19 18 17 17 17 17 17 16 15 15 14
21 21 20 20 21 19 19 20 20 19 19 18 16 15 13 15 18 15 12 10 11 11 12 12 13 13 14 15 16 16 17 17 16 15 15 15 16 16 15 14 14 14 12 12
20 20 20 19 19 20 19 19 18 17 17 17 15 14 12 12 10 12 11 8 10 11 10 10 10 10 10 10 11 14 14 14 14 14 13 13 12 12 12 11 11 11 10 10
21 19 19 19 18 18 19 18 17 17 16 16 16 18 16 13 10 8 8 8 8 8 7 8 10 10 11 11 12 12 11 11 11 12 11 11 10 10 9 8 8 8 8 8
21 20 19 18 17 16 17 17 17 17 16 16 16 13 11 10 8 7 4 6 5 7 6 8 8 9 10 12 12 12 11 10 9 9 10 9 9 8 6 7 7 7 3 6
20 20 20 20 20 18 16 17 16 14 14 12 12 12 14 12 11 8 6 7 8 7 7 8 8 9 9 11 10 8 7 9 10 9 9 6 8 8 6 4 4 4 3 2
20 20 20 19 17 16 16 13 10 10 10 9 9 8 8 8 10 8 10 8 7 9 9 5 8 7 10 9 8 9 9 7 6 7 7 7 6 5 4 4 2 -1 1 1
19 17 17 17 16 14 12 11 10 11 10 10 11 13 12 12 10 10 9 8 8 7 9 10 7 7 8 8 8 7 8 6 4 5 5 5 4 5 3 1 1 1 0 -1
18 17 13 11 9 10 11 12 14 12 13 13 11 12 11 12 10 9 8 10 10 10 10 10 10 6 6 7 7 6 7 7 2 2 4 4 3 3 2 0 -1 -2 -2 -3

GFSNGP_sfc_dewp_081.txt.gz
Dewpoint
30 28 28 37 33 38 37 37 34 34 37 36 41 44 43 39 37 38 38 39 39 41 44 45 48 50 52 52 55 55 54 53 54 55 56 56 56 56 56 57 56 56 56 55
26 25 23 26 31 34 34 37 37 35 36 40 36 37 39 41 37 37 38 38 40 44 48 49 49 49 50 51 53 57 54 53 53 54 55 55 55 55 56 57 56 57 56 56
23 25 28 27 27 26 30 37 36 32 31 35 34 39 33 37 36 36 36 41 47 47 47 46 46 46 47 49 51 52 53 55 54 54 54 55 55 55 55 55 56 56 57 56
25 26 21 28 28 26 27 26 25 24 32 33 33 33 33 37 37 37 44 46 46 45 44 44 43 43 44 48 47 48 49 51 54 56 55 54 54 55 55 55 55 55 55 56
23 24 24 21 22 21 22 21 27 22 31 29 32 33 33 35 37 43 43 45 44 43 41 40 39 40 43 44 44 44 45 47 51 50 51 55 55 54 55 55 55 55 55 55
25 24 19 24 27 30 28 26 33 34 34 34 34 32 34 39 40 40 40 42 42 40 39 37 36 37 39 40 41 41 43 45 45 45 45 47 53 55 55 55 55 55 55 55
24 25 27 27 33 34 25 32 37 35 36 35 35 36 38 40 38 37 37 37 39 38 36 34 34 35 36 37 36 39 40 40 40 39 40 42 44 53 56 55 55 53 46 40
26 23 21 31 33 31 39 38 36 36 37 37 37 37 37 37 35 34 33 33 34 33 33 32 32 32 33 33 34 37 37 36 35 34 34 35 39 42 45 50 45 38 35 33
26 26 38 42 41 42 41 41 38 37 36 37 36 35 36 34 33 31 30 30 30 31 30 29 29 30 30 32 33 35 34 33 32 31 30 30 31 34 38 40 40 36 35 32
32 38 39 41 39 38 37 35 35 35 34 34 34 34 33 31 30 29 27 27 27 27 26 26 26 27 29 31 32 33 32 31 29 28 28 28 29 30 30 31 35 34 32 30
36 38 40 39 39 36 35 35 34 33 32 32 31 31 29 27 26 25 24 24 24 24 24 24 25 26 28 30 30 31 29 29 28 27 27 26 28 28 29 30 31 31 30 30
33 37 37 37 36 36 33 32 31 31 29 28 28 27 27 24 23 22 22 22 22 23 24 25 26 26 28 29 28 28 27 27 27 27 26 26 25 25 30 30 31 31 31 29
33 37 35 33 31 31 31 29 27 26 26 24 24 23 23 22 22 22 21 21 21 22 23 24 25 27 28 29 30 28 27 26 25 25 25 25 24 23 23 27 30 30 30 31
28 36 34 29 28 28 28 26 26 23 23 23 22 21 21 20 21 21 21 22 23 21 22 24 24 24 27 28 27 28 27 26 26 26 25 24 23 23 23 22 21 22 26 27
27 30 30 28 26 26 26 25 23 22 21 21 21 20 19 19 19 19 21 21 20 20 20 20 22 23 25 26 26 25 25 25 24 24 24 23 24 23 23 23 21 21 21 20
26 26 26 27 25 24 24 23 22 21 21 21 20 19 19 19 18 17 17 18 16 16 18 18 19 23 25 23 23 23 23 24 23 22 21 20 20 19 18 18 17 16 16 16
24 22 23 26 23 23 23 23 21 20 19 18 19 20 18 16 16 15 15 15 13 14 17 18 18 21 23 23 22 21 20 20 20 20 20 20 19 17 17 16 15 15 15 16
26 25 26 25 23 21 20 20 19 18 17 17 17 15 13 12 12 12 13 13 11 10 11 15 18 19 21 22 21 20 20 19 18 18 18 17 17 17 16 15 14 13 14 14
21 21 21 21 20 19 18 18 18 18 18 17 15 14 13 12 12 12 12 10 9 8 10 13 16 15 16 18 17 18 16 15 15 16 16 15 15 15 14 12 12 11 11 10
19 19 19 19 19 17 16 16 16 15 15 15 13 12 10 11 13 10 9 8 10 10 12 12 13 12 13 13 14 14 14 14 13 12 10 10 10 10 10 10 10 8 7 7
15 15 16 16 16 16 16 16 15 14 15 14 11 10 9 9 8 10 7 5 8 10 10 10 11 12 10 10 10 11 11 10 10 10 9 7 5 5 5 2 3 1 5 5
14 15 14 14 15 15 16 16 16 15 14 14 15 14 11 9 7 7 7 6 7 8 8 9 10 9 10 11 11 10 9 8 7 7 5 3 -1 -1 -3 -4 -5 -3 3 -2
18 17 17 15 15 15 15 15 14 12 11 11 12 10 8 8 7 5 4 6 7 6 7 7 8 8 9 8 6 6 7 6 3 2 0 -3 -6 -6 -4 2 -1 -10 -10 -3
19 19 18 18 17 16 14 15 14 13 12 11 10 10 12 9 8 8 8 8 4 3 5 8 7 6 4 6 6 2 1 2 3 1 1 -3 -1 1 -7 -13 -14 -14 -12 -8
17 17 18 17 16 16 16 14 11 11 11 10 10 9 8 9 5 8 7 6 9 6 2 1 5 6 3 1 1 3 -2 -2 -4 -3 -1 -8 -8 -13 -14 -13 -14 -12 -8 -13
19 17 17 17 17 17 18 15 13 14 12 10 10 5 5 7 10 10 7 5 4 5 5 -3 -8 -7 -7 -1 -7 -8 -1 -6 -12 -12 -7 -9 -9 -5 -12 -15 -11 -10 -14 -18
19 18 15 13 12 12 14 14 12 10 6 1 2 7 8 3 1 5 -2 -4 -5 -6 -5 -3 -2 -5 -9 -6 -10 -8 -9 -7 -10 -11 -8 -10 -13 -9 -13 -18 -18 -18 -17 -15

GFSNGP_sfc_dewp_084.txt.gz
Dewpoint
30 31 29 29 32 36 35 37 35 34 35 38 42 44 45 46 42 39 43 46 47 47 46 45 46 47 49 51 55 55 55 56 55 55 56 55 55 55 56 56 56 56 56 56
25 26 25 26 25 36 37 36 36 36 36 40 46 46 46 46 44 42 45 46 44 43 43 43 44 45 46 49 50 53 54 56 56 57 56 55 55 55 55 55 55 56 56 55
24 26 25 25 28 30 35 36 36 35 34 42 43 41 43 44 44 45 45 44 42 42 41 41 41 42 45 45 46 47 48 49 53 53 55 56 57 56 56 55 56 56 55 56
26 25 18 23 22 23 30 31 37 35 37 40 41 40 37 41 44 44 43 41 40 40 39 38 38 39 41 41 42 43 43 45 47 48 48 49 51 56 56 56 56 56 56 56
22 22 22 15 18 26 23 31 34 33 38 39 37 39 39 41 42 42 42 40 38 37 36 35 35 37 38 37 38 38 39 39 41 42 44 45 46 47 51 56 56 55 56 56
23 22 17 23 26 30 31 31 36 35 35 34 37 37 36 37 36 36 38 37 34 34 33 32 33 35 36 36 35 36 36 36 36 37 38 40 41 44 46 48 56 56 55 56
23 21 25 28 36 35 27 31 37 37 36 37 37 37 35 35 33 32 33 33 33 32 30 30 30 32 33 33 33 35 35 34 33 32 32 34 36 39 42 44 45 54 54 42
24 22 20 38 37 32 37 37 37 37 37 37 36 35 33 31 30 30 29 30 30 30 28 28 28 29 30 30 32 34 33 31 30 29 29 30 32 33 35 38 39 37 36 34
26 24 38 40 40 40 40 39 38 38 36 36 35 32 31 29 28 27 26 26 27 26 26 26 27 28 28 30 31 32 31 29 28 28 27 28 30 30 30 33 34 33 32 31
33 37 38 39 38 37 37 35 35 36 35 34 33 31 28 27 25 24 24 24 24 24 24 25 26 27 28 29 30 30 29 28 27 27 26 27 28 28 29 29 31 30 30 29
35 37 38 37 37 38 32 34 32 30 30 30 30 27 26 24 23 22 22 22 23 23 24 25 25 26 27 28 28 27 27 27 27 26 25 25 27 28 28 29 30 28 28 28
30 34 36 34 37 37 33 29 28 27 25 25 26 24 24 22 22 21 21 22 22 23 23 23 24 26 26 28 27 26 26 26 26 26 25 24 23 24 27 28 30 31 31 30
34 34 33 33 31 31 29 26 24 24 23 22 22 21 21 21 21 21 20 20 20 21 22 23 23 24 26 26 27 26 26 25 24 23 23 22 22 21 20 22 23 26 27 29
33 37 30 31 28 27 25 23 24 21 21 20 19 20 20 19 19 18 19 20 20 19 20 21 22 22 24 23 23 22 22 22 23 23 22 22 21 21 20 19 18 18 21 23
28 29 27 26 25 25 25 23 22 20 20 20 19 18 17 16 15 15 17 17 17 17 17 18 19 21 22 21 20 21 21 21 21 19 19 18 18 17 17 16 16 16 17 17
26 26 27 24 23 23 23 21 20 20 20 18 17 17 16 15 14 14 13 13 13 13 16 15 17 20 21 19 18 18 19 19 19 18 17 16 16 15 15 15 14 13 12 13
22 22 25 23 21 20 21 21 19 17 17 17 16 16 15 14 13 12 11 12 11 11 12 15 15 18 19 17 16 17 17 17 17 17 16 16 15 14 13 13 12 11 11 13
23 23 23 23 21 19 19 19 18 17 16 16 15 13 11 10 10 10 10 10 10 9 10 12 15 16 17 17 16 16 17 17 16 16 16 15 14 13 12 12 11 9 9 8
19 19 19 19 19 18 17 17 17 16 15 14 12 11 10 10 9 9 8 7 8 8 10 12 16 14 13 16 15 15 14 13 12 13 13 12 12 12 10 8 7 7 6 5
17 18 17 17 17 16 15 15 15 13 14 13 12 10 9 9 8 7 7 6 8 10 11 12 13 12 12 12 13 12 11 12 11 9 8 8 6 5 6 6 5 5 4 3
11 11 12 13 13 13 13 14 14 12 12 12 10 8 7 8 8 6 5 4 7 9 10 11 11 11 10 9 9 10 9 8 6 5 4 3 3 2 0 -0 -0 -3 -3 -3
9 11 10 11 13 13 14 15 14 13 13 12 11 10 7 6 6 6 5 6 7 7 8 10 10 7 6 8 8 7 7 6 4 4 1 -2 -3 -3 -7 -8 -6 -8 -9 -14
14 14 14 13 13 13 14 14 13 12 11 11 9 8 8 8 7 5 3 6 7 7 8 7 5 5 5 3 3 2 3 2 -0 -2 -3 -6 -11 -12 -9 -11 -12 -12 -12 -11
11 12 12 15 15 14 12 13 14 12 10 11 11 11 9 6 4 8 8 4 2 2 3 5 4 3 -1 -0 -1 -4 -6 -7 -7 -8 -6 -10 -14 -16 -18 -19 -17 -14 -16 -15
14 15 16 17 16 15 15 16 13 11 10 9 8 7 7 9 3 7 4 5 6 3 -1 -2 -1 -2 -3 -6 -5 -9 -12 -14 -15 -13 -14 -13 -17 -20 -22 -20 -19 -16 -20 -22
18 17 17 17 16 17 18 15 14 13 10 7 7 0 -0 3 6 6 3 2 4 3 -2 -10 -13 -14 -15 -13 -15 -13 -14 -11 -16 -15 -17 -16 -15 -18 -21 -21 -22 -22 -22 -23
18 17 15 14 14 14 13 12 9 8 8 -1 -1 -1 -1 -6 -4 -2 -7 -10 -12 -11 -5 -5 -7 -5 -6 -12 -14 -15 -15 -15 -16 -15 -18 -18 -16 -16 -21 -22 -23 -24 -24 -24

GFSNGP_sfc_dewp_087.txt.gz
Dewpoint
26 29 30 30 29 30 33 35 33 34 35 37 41 43 44 47 46 45 43 42 42 43 43 45 46 47 48 49 50 54 56 57 56 56 57 57 57 57 57 57 56 56 56 55
25 25 26 25 25 27 30 35 37 36 37 39 42 47 46 46 47 43 42 41 41 40 40 40 41 43 43 45 46 48 49 52 54 56 56 56 56 56 56 57 56 56 56 56
24 26 25 22 25 20 34 36 35 34 38 41 43 42 43 45 47 43 42 40 39 38 37 37 38 40 40 40 41 41 42 43 44 46 47 49 52 56 56 55 56 56 56 56
25 25 16 20 20 19 25 34 34 34 37 42 42 43 46 48 44 42 40 39 37 36 36 36 37 38 38 38 38 38 37 37 39 40 42 44 45 46 47 51 56 56 56 56
22 21 20 19 18 27 29 27 34 34 37 42 40 39 38 41 40 39 38 37 34 33 33 33 35 36 36 36 36 35 35 34 35 35 37 38 38 40 43 45 47 49 56 56
23 20 13 20 28 35 32 27 36 38 40 39 40 36 35 34 36 36 35 33 32 31 29 29 30 34 35 34 35 34 33 32 31 30 32 33 34 36 37 40 43 45 47 45
24 22 23 26 36 37 26 29 38 39 39 39 36 36 34 34 34 33 32 31 31 29 27 27 29 31 31 32 33 33 31 30 29 29 30 31 32 33 34 36 39 38 36 33
25 24 20 37 37 29 35 38 38 39 37 36 34 33 31 29 28 28 27 27 27 26 26 26 27 29 30 30 32 32 30 28 28 28 28 29 29 30 31 34 34 33 32 31
27 25 37 38 37 39 40 39 38 38 37 35 33 30 29 27 26 24 24 24 25 25 25 26 27 27 27 28 30 30 29 27 27 26 27 27 27 28 28 30 30 30 29 28
34 37 37 37 35 36 34 31 32 34 33 33 31 31 28 27 25 24 22 23 23 25 24 25 25 26 27 28 29 28 27 27 26 25 25 25 27 27 27 28 27 26 26 26
33 35 36 36 37 33 31 31 29 27 27 29 29 27 25 23 22 22 22 22 23 23 23 24 25 25 27 27 27 26 26 26 26 25 25 24 24 25 25 27 28 26 26 26
29 32 33 32 36 35 31 30 27 25 24 24 24 23 22 22 21 21 20 21 21 21 21 22 22 23 24 26 25 24 23 24 24 23 22 23 22 22 24 24 26 27 27 26
33 33 32 32 33 30 26 24 23 22 21 20 20 21 21 20 20 20 19 18 19 19 20 21 21 21 22 23 23 23 24 22 22 22 21 21 20 19 17 18 21 23 25 25
34 34 30 27 25 25 23 22 22 21 20 20 19 19 18 17 17 16 17 18 18 17 18 19 19 19 20 19 20 20 20 19 19 18 17 16 15 15 15 13 13 14 19 21
28 28 26 25 25 24 24 22 20 19 19 17 17 16 15 13 13 13 15 16 16 15 16 16 17 18 19 18 18 18 18 17 15 15 15 14 14 13 12 11 11 11 11 13
26 28 25 23 22 22 21 21 20 19 17 17 16 15 14 13 12 12 12 12 11 10 13 13 15 17 17 16 15 16 16 16 15 15 14 13 12 12 11 10 9 8 8 9
23 21 24 21 20 20 19 19 18 17 16 15 15 15 14 12 11 10 10 11 9 8 10 13 12 13 13 12 13 14 15 15 13 15 14 13 12 11 11 9 8 7 6 7
22 22 22 22 20 18 18 18 17 16 15 15 13 11 9 9 8 8 8 7 5 6 8 9 11 11 13 12 13 14 14 14 14 13 12 11 11 10 9 8 7 6 6 4
18 18 19 19 19 18 17 16 15 14 13 12 9 7 7 7 7 7 7 6 6 5 8 10 15 12 11 14 13 13 12 10 10 10 9 7 7 8 7 6 4 3 3 2
16 16 16 16 16 15 14 14 13 12 12 11 9 8 7 7 7 5 5 5 7 9 11 11 11 11 10 10 10 9 8 8 8 6 6 4 3 2 3 2 3 1 -1 -3
9 9 9 9 10 10 11 12 12 10 9 9 7 6 5 6 5 4 4 4 7 8 10 9 8 9 9 8 8 7 5 4 4 2 1 -0 -1 -2 -4 -3 -4 -7 -9 -8
6 9 7 8 11 11 13 14 14 12 11 9 7 6 2 4 2 4 4 6 8 7 8 8 7 4 5 6 6 5 4 3 1 1 -2 -4 -6 -9 -13 -13 -13 -14 -17 -19
6 7 8 6 6 7 10 10 9 9 8 7 5 5 7 8 8 4 2 7 8 7 7 5 3 2 1 1 1 -1 -1 -3 -4 -6 -9 -13 -14 -15 -14 -16 -18 -18 -18 -16
8 10 9 10 11 12 10 12 12 11 6 9 6 2 7 4 3 9 6 2 -1 -0 0 3 2 0 -2 -4 -5 -6 -8 -9 -12 -12 -9 -13 -18 -19 -19 -19 -16 -17 -20 -20
11 11 13 14 15 14 13 14 13 10 9 8 7 7 9 9 2 4 -0 1 3 -1 -5 -7 -6 -8 -12 -14 -15 -16 -17 -18 -18 -19 -19 -20 -22 -24 -25 -25 -25 -24 -26 -27
17 16 16 17 17 17 16 16 13 12 10 5 5 -4 -5 -2 2 1 -3 -3 -2 -3 -7 -15 -18 -19 -19 -17 -19 -18 -18 -14 -19 -19 -20 -18 -21 -22 -24 -23 -25 -25 -25 -26
17 16 16 15 14 14 13 12 11 8 7 1 -2 -7 -5 -9 -9 -4 -10 -13 -14 -12 -10 -13 -7 -10 -13 -18 -16 -15 -15 -17 -20 -19 -23 -23 -23 -24 -25 -25 -26 -28 -29 -29

GFSNGP_sfc_dewp_090.txt.gz
Dewpoint
26 27 29 28 28 30 33 32 30 28 33 35 37 41 44 46 44 40 40 39 39 39 41 43 44 46 47 48 50 57 57 56 56 55 56 56 55 55 56 56 56 56 56 55
25 25 25 24 24 25 25 27 31 31 33 39 41 43 45 46 43 41 39 38 37 37 37 38 39 40 41 41 42 45 46 46 46 48 54 55 56 56 56 56 56 56 56 55
20 26 23 19 23 18 17 34 34 32 35 40 42 43 43 44 42 41 40 38 37 36 36 37 38 38 38 38 38 38 39 39 41 43 44 45 46 47 48 51 56 57 56 56
24 24 13 18 19 20 26 27 36 35 35 41 41 40 41 42 40 38 37 36 36 34 34 34 36 37 37 36 35 35 34 34 34 37 38 39 40 41 43 44 46 49 50 54
21 21 19 18 22 29 27 24 34 35 37 43 39 37 37 38 38 37 36 35 33 32 32 31 31 35 36 35 33 32 31 31 30 32 33 34 35 36 38 40 42 44 43 39
23 19 12 19 27 35 32 17 38 38 39 41 41 37 34 36 36 35 34 32 30 29 28 29 29 32 33 34 33 30 30 29 29 30 31 31 32 32 35 37 39 39 35 34
23 20 23 27 37 36 22 24 37 36 39 38 34 36 35 33 31 30 29 28 27 27 27 27 28 31 30 32 32 30 29 28 29 29 30 30 30 32 32 34 34 34 32 31
25 23 19 37 35 28 35 38 37 36 34 33 31 31 31 30 28 25 24 25 25 25 26 27 28 28 28 29 30 29 28 27 27 28 28 28 29 29 30 31 31 30 29 29
28 26 36 36 34 35 36 35 36 36 35 34 33 31 31 29 24 23 23 23 25 25 25 26 26 27 26 27 28 28 27 26 25 25 25 27 27 27 28 28 28 27 26 25
32 33 35 36 36 33 33 31 32 33 34 34 32 31 28 27 25 23 23 23 23 23 23 24 25 25 27 27 27 27 25 25 24 23 23 23 24 25 26 27 25 25 24 24
32 33 35 34 34 35 33 31 27 25 26 27 26 25 23 22 21 21 21 21 22 21 21 21 22 23 24 25 26 25 24 24 24 24 24 23 23 24 24 27 27 25 25 25
27 31 32 30 32 32 29 28 28 27 24 23 23 22 21 20 20 19 19 19 19 20 20 21 20 20 21 23 24 23 22 22 22 22 21 21 21 21 24 24 24 25 25 25
32 34 32 31 31 30 26 24 21 20 20 20 21 20 19 19 18 19 17 17 17 18 18 19 19 19 19 21 22 21 20 20 19 18 18 18 16 15 13 17 20 22 23 24
30 31 30 26 24 24 22 21 21 20 19 18 17 18 17 16 15 15 16 18 16 16 16 17 17 17 18 17 16 16 15 16 15 15 14 13 12 11 11 10 10 10 16 19
27 27 26 25 23 22 22 21 19 18 17 16 15 14 14 13 12 12 14 15 15 14 14 14 14 15 17 18 16 14 16 14 10 11 11 10 10 10 9 8 7 7 8 10
24 26 24 22 21 20 20 20 18 17 16 15 14 13 12 12 11 11 11 11 9 9 11 12 12 13 16 14 12 12 12 13 11 10 9 9 9 9 8 7 5 4 3 5
22 21 21 21 19 18 18 18 17 15 14 13 13 14 13 12 11 10 10 11 10 9 10 11 10 12 12 11 10 9 10 12 11 12 11 10 9 8 7 5 4 2 1 2
21 21 21 21 19 18 17 16 16 15 13 13 12 10 8 8 7 8 7 8 7 7 8 9 9 8 10 9 10 11 10 12 11 10 9 7 7 6 4 3 3 2 1 1
19 18 18 18 18 16 15 14 14 13 11 9 7 7 7 6 5 4 2 5 5 5 7 8 15 11 9 13 10 10 9 7 8 7 6 3 3 4 2 -0 -2 -2 -1 -1
17 17 15 15 15 14 11 11 10 9 8 8 7 6 5 5 4 3 4 4 6 7 9 9 10 9 9 8 8 7 6 4 6 2 1 -0 -4 -6 -4 -2 -2 -6 -10 -7
7 7 7 8 6 6 3 2 4 5 3 3 3 -1 0 1 2 2 3 4 6 8 9 8 7 7 7 6 6 5 2 -1 -1 -2 -3 -9 -9 -8 -9 -12 -12 -13 -13 -13
2 5 3 5 8 9 9 7 8 4 3 -0 -4 -6 -5 -1 -1 2 1 6 8 6 7 6 5 1 3 5 4 3 3 1 -1 -3 -6 -9 -12 -15 -19 -18 -19 -19 -21 -22
5 7 7 4 5 6 9 9 4 4 1 -2 -4 -2 1 5 5 0 -0 6 8 5 6 4 0 -0 -1 -1 -2 -3 -4 -5 -6 -9 -15 -18 -18 -20 -18 -19 -19 -20 -20 -18
6 7 6 9 9 11 9 11 12 10 3 6 1 -1 7 1 -0 7 5 0 -3 -4 -3 -2 -4 -4 -8 -11 -12 -13 -15 -17 -18 -18 -15 -19 -23 -23 -22 -23 -21 -24 -24 -25
9 9 10 10 12 10 12 13 11 10 9 9 9 8 8 7 -3 0 -3 -3 0 -5 -10 -12 -12 -14 -19 -20 -21 -21 -22 -22 -22 -22 -23 -23 -24 -26 -28 -28 -27 -26 -28 -29
15 13 14 16 16 16 15 14 13 12 9 2 2 -9 -9 -6 -2 -2 -6 -6 -4 -5 -10 -17 -20 -20 -21 -18 -21 -22 -21 -17 -21 -21 -24 -22 -25 -24 -26 -24 -27 -26 -28 -29
13 12 13 13 12 12 10 10 10 8 7 1 -2 -8 -7 -12 -12 -7 -12 -15 -17 -17 -17 -18 -16 -14 -17 -20 -18 -17 -19 -20 -22 -21 -24 -25 -26 -26 -25 -26 -27 -30 -32 -32

GFSNGP_sfc_dewp_093.txt.gz
Dewpoint
26 27 29 26 25 25 28 29 28 24 25 29 34 41 43 43 41 41 39 39 38 39 39 39 40 41 42 45 48 56 56 56 56 56 57 57 57 57 57 57 57 57 57 56
21 25 23 21 20 23 25 26 27 27 30 34 41 41 44 42 40 39 38 37 37 36 37 38 38 39 39 40 41 42 43 44 46 48 48 48 50 55 57 57 57 57 57 56
17 24 20 14 20 15 18 20 29 27 32 38 39 39 42 41 39 37 36 35 35 34 33 34 37 37 36 36 37 36 37 37 39 41 42 42 44 45 45 46 49 51 52 54
21 23 11 15 21 21 23 24 33 34 36 40 40 38 37 39 37 36 35 33 33 33 33 32 35 37 36 34 33 34 33 32 34 36 37 38 39 39 41 43 45 46 41 39
19 17 17 17 28 27 25 21 36 37 38 41 38 36 34 37 36 35 34 33 32 32 31 32 33 35 35 33 32 31 30 30 31 33 33 34 35 36 38 41 41 38 36 34
23 15 12 20 30 35 34 15 35 37 40 41 39 36 33 33 33 31 30 29 28 28 29 30 32 33 32 32 30 29 29 30 31 31 31 32 33 34 36 36 35 33 31 31
22 19 20 33 35 34 18 24 34 35 35 37 32 33 32 30 30 29 26 26 27 27 27 27 28 31 30 30 30 29 28 28 29 29 30 31 32 32 33 33 32 31 30 30
23 21 19 35 33 29 35 37 36 34 33 32 32 32 30 29 28 26 24 25 26 26 25 26 26 27 28 29 29 28 27 25 25 26 27 28 30 30 30 30 30 29 29 29
29 30 35 36 34 35 36 34 35 34 34 32 31 29 28 27 27 26 23 23 23 23 23 24 24 25 25 28 28 27 26 24 24 24 24 25 27 28 28 28 28 27 27 26
32 33 32 33 34 34 33 30 31 33 33 33 29 28 26 26 25 25 23 21 21 21 21 21 22 23 24 26 26 26 25 25 24 23 23 23 24 25 26 26 26 25 25 26
32 31 33 29 32 32 30 31 29 26 26 26 25 23 22 21 21 20 20 20 20 20 20 20 20 21 22 24 25 23 23 23 23 23 22 22 24 25 25 27 26 25 26 26
26 30 30 28 30 30 27 26 26 24 23 24 24 22 20 19 19 18 18 19 18 19 19 19 19 19 21 22 23 23 22 22 23 22 21 21 20 20 23 24 25 25 26 26
31 33 30 30 29 28 25 22 21 20 20 19 19 19 18 18 18 18 16 16 17 17 17 18 19 19 20 21 21 21 22 22 20 20 19 19 19 19 18 18 19 20 23 23
29 31 28 26 24 24 21 20 20 18 17 17 16 17 16 16 15 15 16 17 16 16 16 17 17 17 19 19 19 18 19 17 19 19 19 18 18 18 17 18 17 16 16 18
26 26 26 24 22 21 21 19 17 16 15 15 14 14 14 14 13 13 15 14 15 14 15 15 15 16 19 19 18 19 19 18 18 18 17 16 17 16 16 15 14 14 15 14
24 23 22 21 19 18 18 18 16 15 14 14 13 13 13 12 12 12 12 12 11 11 12 12 13 15 16 17 18 18 17 15 16 17 17 16 15 14 13 12 11 10 10 10
22 20 20 20 18 17 17 17 16 15 14 13 13 14 13 12 11 10 10 11 10 11 12 12 12 13 14 14 17 18 18 16 14 16 15 14 13 12 11 10 8 8 7 7
20 20 21 20 19 17 16 16 15 14 13 13 12 11 9 9 9 8 9 10 9 9 11 12 14 13 14 15 15 15 15 14 14 13 12 12 10 9 9 7 6 5 6 4
18 17 17 17 17 15 14 14 14 13 12 11 10 8 8 8 8 8 9 8 8 8 9 12 13 12 12 14 12 12 12 12 10 10 9 8 9 7 7 6 5 5 4 4
15 15 14 14 14 13 12 12 12 10 11 10 9 8 7 6 7 7 8 7 8 9 10 10 10 10 10 9 9 9 10 11 8 8 8 7 8 7 6 3 4 4 5 4
11 11 10 10 9 9 8 8 9 8 8 7 7 5 4 4 4 5 6 6 8 9 8 8 7 6 6 6 6 9 9 8 8 7 6 6 6 5 5 5 4 4 4 3
10 10 9 10 11 10 10 11 9 7 6 4 1 1 3 5 5 6 8 7 7 7 6 6 6 4 5 6 6 8 7 6 6 6 5 5 4 4 3 3 3 3 2 2
11 11 10 9 10 11 11 11 9 9 7 6 5 7 8 8 7 5 3 7 7 6 6 6 3 2 2 7 7 6 5 4 4 3 3 3 3 3 3 3 2 2 2 1
12 12 11 12 12 12 11 12 12 10 7 8 6 5 8 8 8 6 5 4 2 5 6 6 4 -0 0 4 4 4 4 4 4 4 2 -4 3 2 2 1 1 2 0 -2
13 13 13 13 13 13 12 12 11 10 10 9 9 9 8 7 8 8 8 6 3 3 6 -3 -2 -4 5 5 3 2 3 4 4 4 3 3 2 2 2 1 -1 0 -1 -2
15 14 14 15 16 16 15 14 13 13 11 9 8 8 8 8 8 9 8 5 6 3 6 5 5 5 5 5 4 3 3 3 3 3 1 2 1 1 0 0 -1 -1 -1 -2
16 15 15 14 12 12 12 12 14 13 13 12 10 8 7 8 7 6 2 7 7 5 5 5 5 3 4 4 4 4 3 3 -1 2 2 2 1 1 -1 -1 -1 -1 -3 -5

GFSNGP_sfc_dewp_096.txt.gz
Dewpoint
24 23 23 21 19 20 21 22 23 21 21 26 38 41 42 41 38 37 38 36 35 35 36 39 39 40 41 42 44 52 53 53 55 56 56 56 57 56 57 58 57 56 56 56
22 20 17 15 14 14 17 20 21 23 24 35 39 39 39 39 37 36 35 36 35 35 34 37 37 37 38 39 40 41 41 42 44 46 47 48 49 50 53 54 56 57 57 57
17 17 13 13 18 15 18 22 23 23 28 33 38 37 38 37 37 36 35 35 33 33 34 35 37 35 36 37 38 37 38 37 38 39 41 43 44 44 45 47 48 46 45 41
18 16 5 19 20 23 21 27 29 30 34 39 38 36 36 37 36 35 33 33 33 32 33 34 36 36 34 34 34 37 36 35 36 37 37 39 39 41 43 43 41 39 38 39
17 12 14 23 27 26 24 24 32 35 36 38 36 35 33 34 33 33 33 33 31 33 33 33 34 34 33 32 31 31 31 32 34 35 36 37 37 39 40 39 36 34 34 34
21 11 11 27 29 31 30 21 33 34 35 39 37 37 32 30 31 31 31 28 28 28 28 31 33 33 32 31 30 30 30 30 32 32 33 33 35 37 37 34 33 32 31 32
23 19 21 32 31 31 21 30 35 34 32 31 28 29 31 30 29 32 26 26 27 27 27 27 29 31 30 30 30 29 28 29 29 30 31 32 33 34 34 34 33 33 32 32
25 21 17 34 30 29 34 36 35 34 33 30 30 30 29 29 28 30 24 23 24 25 25 26 26 28 28 28 29 28 28 27 27 28 29 30 30 31 32 32 32 32 31 31
29 28 34 33 33 33 34 32 35 35 35 33 31 30 30 29 28 28 25 23 22 23 23 24 24 25 26 27 28 27 26 25 25 25 26 27 28 29 29 29 30 29 28 29
33 31 30 33 32 33 32 32 32 33 33 33 30 30 28 28 27 25 22 21 21 22 21 22 23 24 25 26 26 26 25 24 24 23 23 24 25 25 26 28 27 27 28 28
32 33 31 30 31 32 31 31 29 28 28 28 26 24 23 21 21 20 20 20 21 21 21 20 21 22 23 24 25 24 24 23 24 23 22 22 23 24 24 27 27 27 27 27
28 32 32 30 31 31 28 27 26 25 24 24 23 22 21 20 19 19 19 19 19 20 20 20 21 21 22 23 24 24 24 24 25 25 24 23 21 21 23 23 24 24 25 26
31 33 32 31 31 30 27 22 21 21 21 20 20 20 19 19 19 19 17 18 18 19 19 20 21 22 23 24 24 25 26 25 24 24 24 23 24 24 21 21 20 21 22 22
32 32 28 27 25 23 22 20 20 18 18 18 18 19 19 19 19 18 19 19 18 18 19 20 20 21 23 24 24 24 25 23 26 25 25 25 25 24 24 24 22 21 18 19
26 27 26 24 22 21 21 19 18 17 16 16 16 17 17 17 17 17 17 17 18 18 18 19 19 20 22 23 23 24 25 24 25 24 24 24 24 24 24 23 22 21 21 19
24 23 23 21 20 19 19 18 17 17 17 16 16 16 16 15 15 15 15 15 15 15 15 15 16 17 19 22 23 24 23 20 22 24 23 23 23 22 21 20 19 18 16 15
23 21 22 19 19 18 18 18 18 17 17 17 16 17 16 15 15 14 14 14 14 14 15 16 16 16 18 19 22 22 23 21 19 21 21 20 20 19 18 17 16 14 12 11
21 21 20 20 19 18 17 17 16 16 16 16 15 14 13 13 13 12 13 12 12 12 14 15 15 16 16 18 19 20 20 19 18 18 17 18 16 15 15 13 11 11 11 9
17 17 18 17 17 17 17 17 17 15 15 14 13 12 12 12 12 12 12 11 11 11 12 13 13 13 14 15 14 16 17 17 15 14 14 13 14 12 13 13 12 12 10 10
16 17 16 17 16 16 15 15 15 14 14 13 12 12 10 8 9 10 10 10 11 11 12 11 11 11 11 11 11 12 15 15 12 13 14 13 14 14 11 7 9 11 12 10
16 16 15 14 14 14 14 14 13 13 12 12 11 7 7 8 8 9 10 10 11 10 10 9 8 7 5 6 7 14 15 14 14 13 13 13 12 11 11 11 11 11 10 10
16 15 14 14 14 14 14 15 13 12 11 7 6 6 7 9 8 9 9 9 9 8 7 7 6 6 6 7 9 12 10 10 11 11 11 11 11 11 10 10 10 10 10 9
17 16 15 15 15 16 15 15 14 13 11 9 9 11 11 10 9 9 9 8 8 8 7 9 5 5 6 12 12 11 10 9 9 9 9 10 9 9 9 9 9 9 9 8
17 16 16 16 15 15 15 16 15 13 12 11 10 10 10 13 14 9 8 7 5 8 10 9 7 4 5 10 10 9 10 10 10 11 8 3 9 8 8 7 6 8 6 4
17 16 16 15 15 16 15 14 12 12 11 10 10 10 8 8 13 12 13 10 2 7 11 3 2 3 10 10 9 8 8 10 8 9 9 9 8 7 7 7 4 5 5 4
17 16 16 16 15 15 15 13 13 14 13 14 14 16 16 14 12 11 11 8 7 6 9 12 11 10 10 9 8 8 7 7 7 7 6 6 6 5 5 4 4 4 4 4
17 15 15 14 14 13 12 12 13 13 14 17 15 15 13 14 13 10 8 12 11 11 11 11 11 8 9 8 7 7 7 7 5 6 6 6 6 6 5 4 4 4 4 3

GFSNGP_sfc_dewp_099.txt.gz
Dewpoint
25 20 22 25 27 27 26 22 22 21 21 36 38 39 38 37 36 36 35 34 35 35 35 35 36 36 38 40 42 46 47 50 53 57 56 57 57 58 57 57 58 58 58 58
20 21 20 17 15 14 15 17 19 19 31 37 38 39 38 37 37 36 35 34 34 34 35 35 36 35 36 38 39 40 40 41 45 47 46 47 50 51 56 56 55 54 50 54
17 13 12 18 16 13 17 22 22 25 34 39 37 36 36 37 35 34 34 33 33 33 33 35 35 36 35 35 37 37 38 38 39 42 43 43 45 45 44 44 43 44 41 38
18 15 12 20 23 21 24 27 28 27 30 36 36 33 34 34 32 32 32 32 34 32 33 33 35 35 35 35 35 35 35 36 38 39 39 40 41 41 39 38 37 38 37 36
17 15 19 21 25 26 24 30 30 30 33 36 34 32 31 32 33 33 32 31 31 33 33 33 33 35 34 33 32 32 33 34 35 37 37 39 38 38 37 35 34 34 35 35
21 11 16 32 29 29 28 28 33 33 33 35 35 36 29 31 32 34 33 29 27 28 28 30 34 34 33 32 32 32 32 33 34 34 35 35 37 37 36 35 34 34 33 32
23 19 26 32 31 31 23 30 35 33 31 29 28 29 31 32 32 34 26 26 27 26 26 26 28 32 32 32 31 32 32 30 32 33 33 34 34 35 36 36 35 34 33 33
26 21 22 31 30 29 32 35 35 34 32 31 31 31 31 31 30 31 30 24 24 25 25 25 26 27 29 30 30 30 32 31 28 29 30 31 32 33 33 34 33 33 32 31
29 28 32 32 31 32 33 32 35 35 33 32 32 31 31 30 29 28 23 22 23 23 24 24 25 25 26 28 30 29 27 27 29 28 27 27 29 30 31 31 31 30 30 29
32 31 30 31 30 31 33 33 34 32 32 32 31 31 30 29 28 26 22 21 22 23 22 23 24 24 25 26 26 26 26 25 24 24 25 25 25 26 26 29 29 29 29 28
31 31 30 29 31 30 30 30 29 28 28 28 27 26 25 23 22 21 21 21 22 22 22 22 23 23 24 25 26 25 25 25 25 24 22 21 22 24 24 26 26 27 26 26
29 33 32 30 32 31 29 28 27 26 25 25 24 23 23 21 21 20 20 21 21 21 22 21 21 22 23 24 26 25 25 25 26 26 25 23 21 20 23 24 24 24 25 26
33 34 33 32 33 30 26 23 22 22 22 21 21 21 21 21 20 21 19 19 19 20 21 21 22 22 24 25 25 26 26 26 25 25 25 25 26 25 22 21 21 22 22 23
35 33 30 29 26 24 23 21 20 19 20 20 20 21 21 20 20 20 20 20 19 19 20 21 21 22 25 25 27 27 26 26 26 26 26 26 26 25 26 25 23 22 20 20
27 27 26 25 23 22 21 20 19 18 18 18 18 19 19 19 19 18 19 19 19 19 19 20 19 20 22 26 24 24 25 26 26 25 25 26 26 25 25 24 23 23 23 21
24 24 23 22 21 21 21 20 19 19 18 18 18 17 17 17 17 17 17 16 16 16 17 17 17 18 20 22 27 26 23 23 25 26 25 25 24 23 22 22 21 19 17 17
24 22 23 21 20 19 19 20 19 19 19 18 19 19 18 17 17 16 16 16 15 15 16 16 16 17 19 20 24 24 24 23 22 23 22 22 22 21 20 20 18 16 13 14
22 22 21 21 20 19 18 18 18 18 18 17 16 16 15 15 15 15 16 15 15 14 14 15 15 17 17 18 20 20 20 19 18 18 18 19 18 17 17 15 14 14 14 12
19 19 19 19 19 18 18 19 18 17 16 16 15 14 14 14 14 13 13 13 13 14 14 14 14 14 14 15 15 16 17 18 16 15 15 15 17 15 16 16 15 14 13 13
18 18 18 18 18 18 18 17 17 16 16 15 14 14 11 10 11 11 12 12 12 12 13 12 12 10 10 10 13 13 16 16 12 15 16 16 17 16 14 10 12 14 14 13
19 18 17 17 16 16 17 16 15 15 14 14 11 9 9 10 10 11 15 14 13 11 11 8 8 8 6 8 8 16 16 16 15 15 15 15 15 14 14 13 13 13 13 13
18 17 16 16 16 16 16 17 16 14 12 10 8 9 11 13 12 12 10 11 11 9 9 9 7 6 7 11 11 14 12 12 13 14 13 13 13 13 13 12 12 12 12 12
18 17 17 16 17 17 17 16 15 14 12 11 11 12 13 12 11 11 12 11 9 8 9 11 6 5 7 14 14 13 12 11 11 11 12 12 12 12 11 10 10 10 10 9
19 18 17 18 18 17 19 18 18 16 14 13 12 12 13 14 18 11 10 8 5 9 10 9 8 5 8 13 12 11 11 12 12 12 10 5 11 10 10 8 7 8 8 7
19 19 18 17 16 19 16 15 13 14 14 12 12 11 11 11 14 13 14 13 6 8 13 6 4 5 12 12 11 10 10 11 10 10 10 10 9 9 9 8 7 7 6 6
19 17 17 17 16 15 14 13 13 13 13 16 17 19 18 16 14 12 13 10 8 8 10 14 13 10 11 11 9 9 8 8 9 10 8 7 8 7 7 6 6 6 6 6
18 18 15 14 13 12 12 12 14 14 15 17 16 22 16 17 16 10 11 13 14 13 12 13 12 12 10 10 9 9 9 9 7 7 7 8 8 8 7 7 6 6 6 6

GFSNGP_sfc_dewp_105.txt.gz
Dewpoint
34 34 33 35 35 35 32 34 33 34 33 35 36 35 35 35 34 34 33 33 33 33 33 34 34 34 35 36 36 38 38 39 42 46 52 53 55 58 59 59 58 58 57 56
33 33 33 33 31 28 32 37 36 35 34 37 36 35 33 33 32 32 32 32 31 32 33 33 33 33 33 35 35 35 36 38 38 40 41 43 45 46 48 47 46 44 44 42
28 26 28 29 30 29 30 31 31 31 35 34 31 30 30 31 31 31 30 31 31 32 33 33 33 33 33 33 35 34 34 35 37 38 38 39 38 38 38 39 38 37 37 36
23 26 23 29 31 32 30 30 31 32 32 31 30 30 30 32 32 33 33 30 31 31 32 33 34 33 33 33 32 33 33 33 35 37 37 36 37 37 35 35 35 34 34 35
26 26 29 26 26 28 31 29 31 30 32 31 31 29 28 31 33 34 33 29 28 29 31 33 33 34 32 31 32 31 32 32 33 33 35 35 35 35 35 33 32 31 32 32
28 24 22 25 27 29 30 23 33 30 29 29 32 27 25 31 32 34 35 26 25 26 26 28 30 31 31 30 29 29 31 31 32 33 33 33 33 33 34 33 31 31 30 31
26 26 24 28 29 29 23 24 35 32 29 27 25 27 29 31 32 34 27 24 25 25 24 25 27 28 29 29 28 30 31 30 31 31 31 32 32 33 33 33 32 31 30 30
25 22 18 29 27 24 31 34 35 34 32 29 29 29 29 29 29 30 24 22 23 24 24 24 25 28 26 28 29 26 27 27 27 29 29 29 29 32 32 31 30 29 28 28
26 25 32 31 31 34 35 34 35 35 31 30 29 29 26 28 29 28 23 22 22 22 23 23 24 25 27 29 28 26 24 24 24 25 26 27 26 27 28 28 28 27 26 26
29 30 30 31 33 33 36 33 31 30 32 32 31 31 30 29 24 23 22 22 22 22 22 22 24 25 27 29 27 27 24 23 22 22 22 23 24 24 25 25 24 25 24 24
29 30 29 30 31 32 29 28 28 25 25 25 25 23 22 21 21 21 21 21 22 22 21 21 22 24 26 28 28 27 27 28 23 21 20 22 23 23 24 26 25 23 24 25
25 33 30 29 32 31 28 27 25 24 22 22 23 22 22 21 21 20 21 21 21 22 21 20 20 22 24 26 27 27 27 27 27 26 22 20 20 21 24 24 25 26 26 25
30 32 30 31 33 31 24 22 21 22 22 20 21 22 21 21 21 22 20 20 20 20 18 19 19 19 21 25 26 26 25 26 26 26 26 26 20 19 18 21 22 23 24 24
33 31 31 33 26 24 23 22 22 20 21 22 22 22 21 19 19 18 18 21 19 18 18 17 16 16 19 21 20 24 26 25 24 26 26 25 24 23 22 16 15 18 23 22
28 27 26 25 22 22 22 21 20 20 19 19 19 20 19 18 17 16 16 16 17 16 14 14 14 14 16 19 22 18 22 25 26 20 20 23 19 20 20 17 14 12 14 16
25 24 24 23 21 21 22 21 20 20 19 19 19 19 19 17 17 16 15 14 14 13 13 10 12 13 15 15 15 24 20 20 22 21 20 18 17 18 16 13 11 9 10 10
26 27 27 22 20 20 20 20 21 20 17 15 13 14 15 17 14 13 11 11 8 5 6 6 7 10 10 10 11 16 18 15 18 17 15 18 16 16 17 10 5 3 3 4
23 22 22 23 21 20 20 20 18 17 15 15 14 9 6 6 6 4 4 5 10 6 2 3 6 10 8 9 13 18 17 19 18 14 15 15 17 15 13 13 13 8 5 10
20 20 21 21 20 19 18 17 16 16 12 9 6 2 -0 -2 -0 -1 -1 1 -0 1 3 6 15 12 12 13 12 17 17 14 15 15 19 13 8 11 12 10 7 7 7 7
19 19 18 18 18 17 15 12 10 8 6 7 2 -2 -1 -3 -3 -3 -2 5 3 6 8 10 10 8 9 10 10 15 14 14 17 9 7 8 8 -0 0 6 11 8 3 -0
12 12 11 10 7 6 5 4 5 4 1 -3 -2 -4 -3 -1 -1 -3 2 12 5 5 10 9 7 4 5 5 11 11 9 11 10 10 8 11 8 8 3 5 0 2 3 2
9 8 6 6 8 7 9 7 8 2 1 -3 -5 -6 -4 5 4 3 1 8 10 2 10 8 6 -1 2 2 13 6 8 7 8 8 6 2 5 6 4 1 1 2 3 2
11 10 10 7 8 8 9 8 4 3 0 -1 -1 2 5 10 11 8 8 9 10 4 11 5 -1 -4 -4 -1 -1 -2 4 3 -1 2 -3 -4 -6 -6 -4 -6 -2 -1 -7 -6
11 13 11 13 13 15 13 11 12 15 6 8 8 4 9 6 4 15 9 2 -1 -5 -3 -0 -5 -3 -7 1 0 -4 -3 2 0 -3 -0 -5 -5 -7 -7 -11 -10 -10 -5 -10
14 14 15 13 18 19 21 21 18 19 19 17 17 17 11 14 6 8 5 4 5 1 1 -2 -1 -4 -8 -3 1 -6 -6 -0 -4 -11 -10 -5 -4 -4 -8 -5 -9 -10 -12 -14
19 20 20 20 17 16 16 15 13 14 15 10 13 15 18 16 13 8 5 7 6 4 1 1 -3 -1 -4 -5 3 -6 -3 1 -3 1 -3 -7 -4 1 -2 -5 -9 -11 -6 -2
20 15 18 17 20 17 15 13 10 10 8 2 2 3 7 16 15 10 1 -1 -1 4 6 4 8 8 4 1 -5 -6 -3 -0 3 1 -6 -10 -12 -8 -1 -1 -3 -10 -12 -12

GFSNGP_sfc_dewp_108.txt.gz
Dewpoint
35 35 35 34 34 35 35 34 29 31 30 32 33 33 33 33 31 31 30 29 31 32 32 33 33 33 33 34 35 36 36 37 38 40 41 44 50 59 59 58 58 58 57 56
32 34 32 31 32 32 34 34 34 31 28 34 34 32 31 31 30 29 28 28 29 31 31 32 32 32 32 33 33 34 35 35 36 37 38 39 40 44 45 45 44 44 43 42
28 32 31 23 29 29 30 32 32 29 31 32 29 28 29 31 31 30 27 29 29 30 31 32 32 33 32 32 33 32 32 34 34 35 35 36 37 36 37 38 40 38 38 39
26 31 17 29 33 31 29 29 30 32 31 28 27 29 29 31 31 31 27 27 28 28 31 31 32 32 31 31 31 31 31 31 33 34 33 34 34 33 33 33 34 34 35 36
28 26 28 26 26 28 29 28 31 30 31 29 29 28 27 31 32 32 28 27 26 27 29 31 30 32 30 29 28 29 28 29 31 32 33 33 33 32 32 33 31 32 32 33
29 22 19 25 26 28 29 22 32 29 28 26 32 24 24 30 32 30 26 25 24 25 26 27 30 30 30 26 26 26 27 28 30 31 30 32 32 32 32 32 31 31 31 31
25 23 24 27 28 29 22 23 34 30 29 26 24 26 29 30 29 29 24 24 24 23 24 25 26 28 28 26 24 25 27 27 28 28 29 30 31 32 32 31 30 30 29 30
24 19 16 30 28 23 31 34 34 32 29 28 28 28 28 29 25 24 22 22 22 22 22 24 25 26 27 28 25 24 24 24 25 26 27 28 29 29 29 29 28 28 28 28
25 24 31 34 32 35 35 34 34 32 29 28 28 28 27 23 23 23 22 21 22 21 21 23 24 26 26 30 28 25 22 22 23 24 24 25 26 26 26 27 26 26 27 27
25 29 30 32 34 34 33 31 29 28 32 32 30 29 24 23 22 22 21 21 21 20 20 21 22 23 26 28 29 28 24 20 21 22 22 23 23 24 24 24 24 25 25 26
28 29 30 29 31 29 28 27 24 23 23 24 22 22 21 20 21 21 20 21 20 19 19 20 20 21 22 26 26 26 26 26 22 20 20 21 24 24 24 26 26 24 24 26
24 32 30 29 31 30 26 24 24 23 22 22 22 21 20 20 20 20 20 20 19 18 18 18 18 19 20 22 26 25 24 25 26 23 20 20 20 21 25 26 27 27 28 26
29 31 26 27 30 30 23 22 22 21 21 22 22 21 20 19 18 20 19 17 17 16 15 15 16 16 17 20 23 25 23 25 25 25 25 20 19 19 17 20 24 24 26 26
31 31 30 30 23 24 22 21 23 22 22 21 20 19 19 17 17 16 17 19 15 14 14 15 15 14 16 17 17 18 20 21 19 18 19 19 16 15 12 11 10 11 18 23
32 26 23 22 22 21 21 20 19 18 18 18 19 18 16 15 14 14 14 15 14 13 13 12 12 12 15 17 17 18 21 22 20 17 16 15 15 12 9 8 7 8 10 14
24 23 22 22 21 22 21 20 19 18 17 17 17 18 17 16 15 14 13 13 12 9 10 6 9 9 12 12 12 14 14 16 14 12 14 15 14 11 8 7 7 7 8 4
26 24 22 20 20 20 20 20 19 16 14 12 11 12 16 11 10 8 5 9 5 2 2 2 3 5 6 8 9 11 14 12 11 13 13 13 12 10 6 4 4 7 6 2
22 22 23 21 20 20 19 18 16 15 13 13 10 3 -0 1 1 -0 -0 -1 2 2 1 2 4 6 8 10 12 16 15 17 16 13 13 13 12 12 10 8 7 7 4 8
21 20 21 20 20 18 17 16 15 14 7 3 1 -1 -4 -6 -5 -5 -7 -5 -5 -2 1 5 12 9 10 11 12 15 14 11 13 14 15 8 6 12 7 4 7 2 2 3
18 18 18 17 17 15 12 7 6 5 -1 1 -6 -5 -3 -5 -8 -7 -7 1 2 4 6 8 7 5 8 9 9 13 11 10 15 8 5 6 -0 -6 0 6 4 -2 -8 -7
10 10 9 10 5 2 2 1 2 2 -2 -7 -4 -5 -4 -3 -5 -8 -1 6 2 3 8 6 5 4 5 5 10 6 3 4 8 6 6 5 5 3 0 -1 2 2 3 -1
5 6 2 3 7 5 3 2 5 -2 -3 -6 -9 -12 -10 2 1 -1 -2 6 9 2 9 7 5 -4 0 1 8 0 5 3 3 6 2 2 2 1 -1 0 -0 -2 -5 -6
7 8 7 4 6 8 5 5 -1 -0 -2 -4 -4 -3 1 8 8 5 5 9 10 4 8 4 -2 -7 -7 -0 -7 -9 -2 -1 -4 -5 -7 -12 -11 -9 -7 -3 -2 -3 -6 -3
9 11 10 12 10 13 11 9 10 12 5 7 7 6 9 9 4 13 10 3 -1 -5 -5 -2 -7 -5 -9 -10 -8 -12 -11 -6 -3 -7 -5 -7 -8 -13 -15 -17 -14 -16 -17 -15
14 13 12 11 16 15 18 19 20 19 19 18 18 19 14 14 8 8 7 4 4 1 -1 -4 -3 -5 -12 -14 -10 -10 -12 -11 -12 -14 -13 -10 -6 -4 -5 -9 -11 -14 -17 -19
18 17 16 18 17 16 16 17 12 13 13 7 8 1 4 8 14 13 9 3 5 3 -0 -5 -7 -7 -7 -10 -9 -9 -11 -5 -9 -10 -9 -11 -14 -9 -4 -6 -10 -15 -17 -17
18 16 17 18 19 16 14 12 8 6 4 -3 0 1 2 -2 9 13 9 4 -1 -1 -1 1 -0 2 2 0 -2 -5 -10 -9 -7 -6 -9 -12 -15 -15 -12 -3 -2 -10 -13 -14

GFSNGP_sfc_dewp_111.txt.gz
Dewpoint
33 33 31 31 32 36 33 32 26 28 26 29 30 31 33 30 29 27 27 27 30 30 30 31 31 31 31 32 33 34 33 35 36 37 38 38 38 38 41 57 58 57 57 57
30 30 29 27 30 29 33 32 30 27 25 31 32 32 30 30 28 26 25 26 28 29 29 30 30 30 30 30 31 32 32 32 34 35 36 36 36 36 36 37 41 47 47 47
26 30 29 21 27 28 28 29 31 25 28 30 27 27 28 29 28 25 25 26 27 29 30 30 31 29 29 29 30 30 30 31 32 34 34 34 34 34 34 34 34 35 37 39
28 30 17 28 32 32 26 27 30 28 28 27 26 28 29 31 29 26 25 25 27 29 29 30 30 30 28 28 28 29 29 29 30 31 32 32 33 33 33 33 33 32 33 34
27 23 27 27 28 27 28 26 30 30 28 28 29 29 26 30 31 26 25 25 25 27 28 28 29 30 26 26 26 26 27 27 28 30 30 31 31 31 32 32 32 32 32 32
29 21 18 24 26 29 29 23 30 29 28 28 30 23 23 30 29 27 25 23 23 24 25 26 27 29 25 23 24 24 25 26 27 28 28 29 30 30 31 31 31 31 30 31
26 22 24 26 31 32 23 23 32 28 27 25 24 26 29 26 24 25 22 22 22 22 24 25 25 27 26 25 22 23 24 24 25 25 27 27 28 29 29 29 29 29 29 30
23 17 15 30 29 23 30 33 31 29 26 26 27 27 25 23 21 23 22 21 21 21 22 23 23 24 25 27 27 22 23 23 23 23 25 25 26 26 27 28 27 28 28 28
25 23 31 34 32 34 34 31 34 29 27 27 26 24 20 20 21 22 21 20 20 20 21 21 22 23 24 26 27 25 21 21 22 23 24 24 24 24 24 26 26 27 27 27
25 29 29 31 30 32 33 27 26 31 31 30 24 23 22 22 22 21 21 19 19 19 18 19 20 21 22 24 26 25 24 21 20 21 22 23 23 24 24 24 24 25 25 26
26 29 27 29 29 28 26 24 23 23 23 22 21 21 20 20 20 19 19 18 17 17 17 17 18 18 19 22 25 24 24 24 21 20 20 20 23 25 24 27 27 25 25 27
21 29 29 27 30 27 25 24 23 22 21 22 21 20 20 19 20 18 17 17 16 14 14 15 15 16 17 19 22 24 22 23 24 22 20 20 19 20 24 24 26 27 29 26
30 30 27 29 31 25 23 22 22 22 22 21 20 18 18 17 18 19 17 14 12 13 13 14 14 14 15 18 20 23 23 23 22 22 23 19 18 17 13 16 21 23 25 25
31 30 27 23 23 23 23 23 23 21 20 19 17 17 16 15 14 14 15 16 13 12 12 12 13 11 12 14 15 15 19 19 17 18 16 16 12 8 7 5 5 9 15 21
27 25 23 21 21 20 20 19 18 18 18 17 17 15 14 13 12 12 13 13 10 11 10 9 10 9 12 14 15 14 17 14 11 9 12 13 10 6 2 3 2 4 9 11
23 22 22 22 21 21 20 19 18 17 16 16 16 16 15 14 13 11 11 11 10 7 7 4 8 6 9 11 11 12 9 11 8 5 5 7 5 4 5 5 5 5 5 3
23 22 21 20 19 20 19 18 17 15 13 11 9 14 11 9 8 6 4 5 2 -2 -2 -1 -0 2 5 6 8 10 9 11 9 11 10 8 6 4 2 2 3 3 -1 -4
23 24 23 21 20 19 18 16 15 14 12 11 7 1 -0 -0 -0 -2 -1 -2 -0 -1 -4 -1 1 1 5 7 11 14 12 14 15 11 11 8 9 11 7 5 5 4 0 4
21 21 21 20 20 18 17 15 13 13 5 0 -0 -3 -7 -9 -8 -8 -11 -7 -7 -3 0 2 11 7 8 10 13 13 11 9 11 13 12 6 4 8 8 6 0 -4 -2 -0
19 19 18 17 17 15 10 5 4 2 -4 -3 -9 -6 -4 -7 -11 -9 -10 -4 -0 3 4 6 6 4 5 8 9 10 9 7 11 7 2 4 -7 -6 1 5 5 -3 -10 -9
10 9 9 9 3 1 1 -1 0 2 -4 -9 -6 -8 -8 -6 -7 -12 -3 5 2 2 6 6 4 2 4 4 9 6 -1 -2 -0 2 2 -0 -1 1 -7 -7 -2 -3 -5 -8
3 5 -0 0 4 3 0 -1 3 -4 -5 -8 -13 -15 -11 1 -2 -2 -2 5 8 2 8 7 5 -3 -2 -1 6 -2 3 3 2 1 -2 -2 -2 -3 -4 -4 -9 -11 -9 -7
5 6 5 2 4 5 4 3 -3 -3 -4 -7 -6 -4 -2 7 7 4 5 9 9 4 6 5 -1 -7 -8 -8 -7 -11 -9 -7 -2 -1 -7 -13 -13 -13 -7 -3 -4 -3 -4 -6
6 9 9 9 8 12 11 7 9 11 3 5 5 3 8 9 5 12 14 7 2 -2 -7 -3 -6 -5 -10 -13 -13 -14 -13 -13 -12 -11 -9 -11 -9 -13 -14 -17 -14 -17 -19 -17
12 11 11 10 14 13 16 17 18 18 17 18 16 16 14 14 11 9 9 8 5 1 0 -3 -5 -4 -13 -16 -15 -14 -15 -16 -15 -17 -13 -12 -10 -7 -10 -11 -10 -12 -19 -20
16 15 14 16 15 15 15 17 13 12 13 7 6 0 1 2 5 10 11 10 7 4 2 0 -7 -7 -10 -10 -11 -12 -11 -9 -12 -11 -13 -10 -14 -14 -14 -8 -4 -8 -14 -11
16 15 16 16 18 17 14 13 11 10 7 -2 -1 3 -0 -4 -3 3 6 4 -1 -2 -1 0 0 -2 -2 -3 -4 -3 -6 -8 -12 -9 -14 -15 -18 -16 -18 -15 -9 -5 -9 -17

GFSNGP_sfc_dewp_114.txt.gz
Dewpoint
31 31 29 28 30 31 28 28 23 25 23 26 28 29 30 29 25 25 25 27 28 29 29 30 28 29 30 30 31 32 32 33 34 35 36 36 37 38 38 38 39 41 52 57
31 34 32 25 27 27 29 30 27 26 23 29 30 30 28 28 24 24 24 26 27 28 28 28 28 27 28 28 30 30 30 31 32 33 33 34 35 36 36 36 36 36 37 39
27 28 27 19 26 26 26 28 30 22 26 29 26 25 27 27 25 23 24 25 27 27 28 28 28 26 27 27 28 28 28 29 30 31 32 32 32 33 33 34 35 35 35 35
28 28 17 25 29 28 25 26 29 26 27 26 25 27 28 29 26 23 23 24 25 27 27 27 28 26 25 26 26 26 27 27 28 29 30 30 31 31 32 32 33 33 33 34
27 23 26 26 26 26 26 25 29 30 30 29 28 28 25 29 26 25 23 23 24 26 27 26 27 28 24 23 24 24 25 26 27 27 28 28 29 30 30 30 30 31 31 32
27 21 17 23 26 30 29 21 28 26 26 28 30 21 21 25 24 23 22 22 22 23 23 24 26 28 26 23 22 22 23 24 25 26 27 27 28 28 30 30 30 30 29 30
25 22 23 26 30 33 22 22 28 26 25 24 23 24 25 24 22 23 21 21 21 22 22 22 23 24 26 26 23 23 23 24 23 23 25 25 26 28 28 28 29 29 28 29
25 20 17 31 30 23 30 31 29 26 26 26 25 23 22 21 19 21 20 19 19 20 20 21 22 22 23 24 26 23 22 22 23 24 24 25 24 24 25 27 27 27 26 27
24 22 30 32 30 32 31 33 30 28 27 25 23 19 19 17 18 20 19 18 18 18 18 19 19 20 21 23 26 23 23 21 21 22 24 24 24 25 24 24 24 25 26 26
25 28 29 29 30 31 28 27 30 29 29 24 23 22 20 21 20 19 18 16 16 17 17 17 17 18 20 21 24 24 22 22 20 20 21 22 22 23 24 25 24 23 24 24
26 28 28 29 28 27 25 24 23 23 23 22 21 20 20 19 18 18 16 16 14 14 15 15 16 16 17 19 22 22 22 22 21 19 19 19 21 24 23 25 27 25 24 25
25 29 28 28 28 28 25 23 23 21 21 21 21 20 19 18 18 16 14 12 12 12 13 14 13 13 14 16 20 22 21 21 22 23 19 18 18 16 21 23 23 25 25 24
30 30 28 29 26 25 22 22 22 21 20 18 18 18 17 17 17 17 16 12 11 11 11 12 12 11 12 15 18 21 21 22 20 20 20 18 15 13 11 14 18 20 22 22
30 27 25 23 23 23 23 22 22 19 18 17 16 16 15 13 13 13 13 12 11 10 10 10 10 8 9 12 13 12 13 14 13 13 9 8 4 3 2 2 1 5 12 17
25 26 22 21 21 20 20 19 18 17 17 16 15 14 13 13 11 12 12 11 10 9 8 8 7 6 9 13 14 12 15 10 3 2 5 4 1 -1 -1 1 3 2 5 8
23 22 21 21 20 20 19 18 17 16 16 16 16 15 14 12 10 8 8 9 8 6 5 1 5 4 7 8 9 11 8 9 6 2 2 3 1 3 4 3 3 2 3 0
22 21 21 20 19 19 18 18 16 14 11 10 9 11 9 7 6 5 1 3 -0 -4 -4 -3 -3 -2 2 3 5 7 7 10 8 9 7 5 4 2 1 -0 -1 -0 -4 -6
24 24 23 21 19 18 17 16 15 14 10 9 6 -1 -3 -3 -1 -3 -5 -5 -6 -4 -6 -4 -2 -1 1 5 10 12 11 12 12 9 10 6 7 9 4 4 3 1 -2 1
22 21 21 20 19 18 16 15 13 11 3 -1 -3 -4 -9 -11 -10 -10 -11 -10 -8 -4 -2 -0 11 6 5 8 12 11 10 9 10 10 8 4 1 9 7 3 -2 -6 -3 -3
19 19 18 17 16 14 9 4 4 2 -6 -6 -10 -8 -8 -9 -12 -12 -12 -5 -1 3 2 5 6 4 4 7 7 9 7 4 8 4 1 3 -5 -5 2 5 1 -5 -11 -10
10 9 9 8 2 0 -0 -3 -1 1 -6 -11 -7 -10 -9 -8 -9 -13 -2 4 3 1 5 6 3 3 1 1 6 5 -1 -5 -4 -2 -5 -8 -6 -1 -4 -4 -5 -3 -5 -7
3 5 3 2 6 1 -2 -3 0 -6 -6 -10 -15 -17 -13 -0 -2 -2 -1 6 8 3 5 7 5 -2 -3 -5 5 -5 2 0 -2 -2 -4 -9 -11 -12 -9 -5 -6 -7 -7 -6
5 5 5 3 4 4 2 2 -4 -3 -4 -6 -6 -5 -3 5 7 7 6 9 9 6 5 4 -0 -5 -7 -13 -11 -13 -12 -11 -10 -8 -10 -15 -18 -18 -13 -9 -10 -11 -14 -11
6 7 6 7 7 11 10 6 8 11 2 4 5 1 6 6 5 11 12 11 7 5 -2 -3 -7 -4 -9 -14 -15 -16 -16 -17 -16 -18 -13 -14 -20 -13 -8 -14 -14 -16 -20 -19
10 9 9 9 13 11 14 16 17 17 16 16 16 15 11 12 6 9 4 8 9 7 3 -2 -5 -7 -14 -16 -16 -15 -13 -15 -15 -19 -11 -9 -8 -15 -15 -18 -15 -8 -10 -20
15 13 13 15 13 12 14 14 12 10 11 7 6 -0 -1 -3 2 2 4 3 6 8 2 0 -8 -7 -7 -8 -8 -8 -8 -5 -9 -11 -13 -11 -13 -11 -6 -10 -13 -8 -5 -8
14 14 14 15 16 16 13 10 7 8 5 -4 -3 0 -2 -5 -4 -2 -3 -4 -3 -2 -1 -2 1 4 1 3 3 1 -1 -4 -8 -7 -10 -10 -13 -12 -10 -11 -14 -16 -7 -5

GFSNGP_sfc_dewp_117.txt.gz
Dewpoint
33 32 28 28 27 28 26 27 21 24 22 25 27 28 27 28 27 26 26 25 26 27 28 27 26 27 28 29 30 31 31 32 33 34 35 35 36 36 37 38 39 39 39 39
30 34 32 26 28 26 29 27 26 24 23 29 29 29 26 26 24 22 23 24 25 25 25 26 25 25 26 27 28 29 29 30 31 32 32 33 33 34 35 35 36 36 37 37
26 32 28 23 26 26 26 27 27 21 26 28 25 25 25 24 23 21 22 23 25 26 26 27 27 25 26 26 27 27 28 28 29 30 31 31 32 32 32 33 33 33 34 34
27 30 19 28 30 29 24 26 28 26 26 24 24 26 26 25 23 22 22 23 24 26 26 27 29 28 25 25 26 26 26 26 27 28 30 30 31 31 31 32 32 31 31 32
27 24 27 27 27 26 26 24 28 28 29 26 27 26 23 25 23 23 23 23 23 24 25 26 28 29 28 25 25 25 25 26 26 27 28 29 30 31 32 31 31 30 30 30
28 23 19 24 28 31 30 20 27 25 26 24 30 22 21 24 23 22 21 21 21 21 21 23 25 26 27 26 25 24 25 26 26 28 27 27 29 30 32 32 32 32 31 30
24 23 22 26 31 35 23 23 27 25 25 23 22 23 24 23 22 21 19 19 20 20 20 20 21 23 24 25 26 25 25 25 26 27 28 28 30 30 30 32 32 31 32 32
24 22 19 30 32 25 28 31 28 27 25 24 24 24 23 22 21 20 18 17 18 18 18 19 20 20 21 23 25 24 24 24 25 26 27 28 27 29 29 28 28 28 28 29
24 22 30 33 30 32 34 30 29 27 25 24 23 22 21 21 20 19 16 16 17 17 17 17 18 19 19 22 23 23 23 21 22 23 24 25 26 27 26 27 25 25 26 26
27 29 28 30 31 28 29 30 30 26 25 24 23 23 22 20 19 17 15 14 15 16 15 16 16 16 19 21 22 21 21 21 19 19 20 21 21 21 23 26 24 24 24 25
26 28 28 28 29 27 25 25 24 23 22 21 21 20 18 16 15 14 11 11 12 13 13 13 13 15 17 19 21 19 20 20 21 20 19 17 20 21 22 25 25 23 24 25
25 29 28 28 30 27 25 23 22 21 21 20 20 18 18 17 16 14 10 10 10 9 9 11 11 14 15 17 20 19 18 19 21 21 20 18 16 16 20 20 21 22 22 24
30 30 30 29 26 24 23 22 21 19 18 17 17 17 16 16 15 13 11 8 8 9 8 8 9 11 14 17 19 20 20 20 20 20 19 17 16 16 16 19 16 17 19 20
29 28 27 23 22 22 21 20 20 17 16 15 14 14 14 13 13 12 11 10 9 9 9 8 8 9 13 16 17 17 20 16 20 21 21 18 17 17 17 16 16 16 15 16
29 28 25 23 22 21 20 19 18 16 16 15 14 13 13 13 12 12 12 10 8 9 9 8 8 8 12 14 16 17 19 20 20 21 20 16 17 17 16 15 14 14 14 13
22 22 22 21 20 19 19 18 17 17 16 16 14 14 13 12 11 10 11 11 8 9 9 7 8 8 8 12 14 17 18 17 16 19 19 19 17 16 15 14 13 12 11 10
22 21 21 20 20 20 19 18 17 16 15 14 14 13 12 11 11 10 8 8 8 7 7 8 7 7 6 10 14 17 18 18 16 17 17 17 16 16 15 14 13 12 11 9
25 24 23 22 20 18 16 15 15 14 13 12 11 6 5 6 8 6 6 4 5 6 7 8 7 8 8 11 14 14 15 15 15 15 15 16 15 15 15 14 12 11 11 9
23 22 22 21 19 18 16 16 15 13 9 6 5 5 3 3 5 5 3 5 7 9 11 9 10 7 6 10 11 12 13 13 12 12 13 13 14 13 15 15 14 13 11 10
20 20 19 18 17 16 14 12 10 8 5 5 2 3 7 6 3 4 3 9 12 13 11 10 8 6 4 7 9 9 12 12 10 11 12 12 13 13 13 11 12 13 13 12
17 16 14 12 9 9 9 8 8 9 5 3 5 4 5 5 5 2 10 12 15 10 10 9 9 7 3 4 7 11 11 11 11 10 10 10 11 11 11 12 12 12 12 12
12 11 9 8 10 8 7 8 8 5 4 2 -2 -3 0 9 10 10 8 11 14 10 10 10 9 6 5 1 7 11 10 9 9 10 10 10 9 9 10 10 10 10 11 10
12 11 10 9 12 13 9 10 7 8 7 6 7 8 9 13 13 13 11 12 13 15 13 12 8 5 4 9 10 9 9 8 9 9 9 9 8 8 8 8 9 10 10 9
11 12 12 12 12 14 14 15 12 14 10 11 12 9 12 16 15 13 13 12 12 13 15 14 10 4 1 11 10 9 8 10 10 10 9 3 9 8 8 8 8 9 8 5
13 13 13 13 16 16 16 17 18 18 18 17 17 15 13 12 14 14 12 13 12 14 16 14 8 6 8 10 9 8 9 10 10 10 9 9 9 9 9 9 7 8 8 7
15 16 16 17 17 17 17 17 17 17 15 16 15 15 14 12 12 11 12 9 11 10 13 13 12 11 12 11 10 9 9 9 8 8 7 9 9 8 8 8 8 8 7 8
17 15 16 17 18 19 18 17 16 17 14 14 13 13 11 11 10 9 7 11 11 10 10 9 9 7 7 8 9 10 10 10 8 8 8 8 8 9 8 8 8 8 6 6

GFSNGP_sfc_dewp_120.txt.gz
Dewpoint
31 32 32 28 29 30 28 30 29 27 23 26 27 27 28 29 28 27 26 25 27 28 29 30 29 28 28 31 31 32 32 34 35 34 34 35 36 36 36 36 37 37 38 37
32 35 34 28 30 28 28 29 27 25 24 29 29 29 27 26 24 22 23 23 24 25 26 28 28 27 27 28 30 31 31 31 32 34 33 33 34 34 34 34 34 35 35 34
25 33 28 26 28 30 28 26 28 25 26 28 27 25 25 24 22 22 22 23 25 26 27 27 29 28 28 28 28 29 29 30 30 31 32 33 32 32 32 33 33 33 33 33
25 31 25 30 30 27 25 25 26 25 26 25 25 25 26 25 23 23 23 24 25 27 27 27 28 28 28 27 28 28 29 28 29 30 30 31 32 33 34 33 33 32 32 32
26 28 28 28 28 27 27 24 27 27 27 26 27 26 25 25 23 23 23 23 23 24 26 28 29 28 28 29 28 28 29 29 29 29 30 30 31 32 33 33 34 33 33 32
28 24 22 25 28 32 31 23 26 26 27 28 29 27 24 25 24 23 21 21 20 20 20 22 24 26 27 29 29 28 29 30 30 30 30 30 32 32 33 34 33 34 33 32
26 24 24 26 32 35 25 25 27 26 25 25 25 26 25 23 24 23 19 19 20 19 19 20 20 23 25 25 28 30 29 29 30 30 31 32 32 33 32 33 33 32 32 32
25 24 21 29 33 29 29 29 28 27 26 26 25 24 24 24 23 21 18 17 17 18 18 19 19 20 21 23 23 23 26 26 26 28 32 33 32 33 33 33 32 32 32 32
25 25 31 34 32 35 30 29 28 27 26 26 26 25 24 23 23 20 16 16 17 17 17 17 17 17 19 21 21 22 22 23 23 23 24 25 29 30 28 31 29 29 28 29
28 30 30 31 33 33 31 30 28 27 26 26 25 24 23 22 20 17 13 13 14 15 15 15 17 17 18 19 19 19 19 18 20 20 20 21 20 21 23 24 25 24 25 25
28 29 30 31 32 31 29 27 25 24 23 23 21 19 18 17 15 12 11 11 10 10 11 12 14 16 17 18 18 16 17 18 18 19 18 17 19 21 20 23 21 22 23 24
30 31 32 30 32 31 26 24 23 22 21 20 19 18 18 17 16 12 10 9 8 6 6 7 9 14 17 18 18 17 16 16 20 20 19 17 16 17 20 18 18 19 19 21
32 34 33 33 31 26 24 22 21 20 19 18 17 17 17 16 13 12 9 7 7 7 7 7 8 10 15 19 19 20 21 18 19 19 19 19 19 19 19 21 17 17 16 17
29 29 28 26 23 22 21 20 20 17 16 16 16 15 15 14 14 13 12 10 8 8 9 10 12 12 15 18 20 21 22 20 22 23 23 22 22 22 22 21 20 21 18 16
29 30 27 23 22 21 20 19 18 16 15 15 14 14 14 15 15 14 12 9 9 12 12 12 12 12 11 13 16 19 20 21 22 23 23 22 22 22 21 20 19 19 18 15
25 25 24 23 21 20 20 19 17 17 16 16 15 14 12 13 13 14 14 13 12 12 12 12 11 12 10 13 16 17 19 17 18 21 20 20 20 19 18 18 17 17 16 14
24 23 23 22 21 21 21 20 19 19 19 18 17 17 14 14 14 14 14 13 12 12 13 14 12 12 11 13 15 17 18 17 15 17 17 17 17 17 16 16 16 15 15 14
26 26 25 24 23 21 18 17 17 17 18 17 16 12 10 12 13 13 13 13 13 13 14 14 13 12 11 12 13 13 14 13 13 14 13 15 14 14 15 15 13 13 13 12
26 26 25 23 22 19 17 17 18 17 15 13 10 10 11 11 13 14 13 12 14 15 17 14 13 11 9 10 10 10 12 12 11 10 12 11 14 13 14 16 15 14 13 12
25 24 23 21 20 19 19 18 16 13 12 12 10 11 13 13 13 12 13 15 17 17 16 14 11 9 8 6 9 7 11 12 9 11 13 11 14 14 14 12 13 14 15 14
24 23 21 19 17 17 16 16 15 13 12 12 12 13 13 13 12 11 15 14 18 18 16 13 12 9 6 4 5 12 13 13 12 12 12 12 12 12 12 13 13 14 14 14
21 19 16 15 15 15 15 16 16 13 12 10 8 8 10 16 17 17 17 15 14 14 15 15 13 10 8 8 8 14 12 11 11 12 12 12 11 11 11 11 11 13 12 13
20 18 17 16 16 17 16 15 13 13 13 13 14 16 17 17 16 14 13 13 12 14 15 15 17 12 11 14 17 16 15 14 13 13 13 13 12 12 10 10 10 11 12 11
19 18 17 18 17 16 16 17 16 17 16 18 18 16 17 17 18 15 14 14 14 16 18 18 18 16 13 18 17 17 16 16 15 15 14 12 14 12 11 10 9 10 10 10
18 18 18 17 16 17 18 18 17 17 18 17 17 16 15 14 18 17 18 17 15 15 16 16 16 14 16 17 16 15 15 15 15 14 13 14 15 14 13 11 10 10 10 9
18 17 17 17 18 17 17 17 17 18 17 19 18 21 21 19 17 16 15 14 13 12 13 14 14 14 14 14 14 13 14 13 13 13 13 12 12 12 14 13 11 10 10 10
19 18 17 17 17 17 19 20 20 19 19 21 18 19 16 16 16 12 11 13 13 12 12 12 12 10 10 10 10 10 10 10 10 10 10 12 11 12 12 13 14 13 11 10